[[{"header":{"parameterUnit":"m.s-1","parameterCategory":1,"la1":31.0,"la2":29.5877,"lo1":-88.7671,"lo2":-86.6584,"dy":0.0162,"dx":0.0185,"nx":115,"ny":88,"refTime":"2023-04-20T18:00:00:Z","depth":0,"parameterNumber":2,"parameterNumberName":"U-component_of_WINDS"},"data":[0.0,0.0,0.0,0.0,0.0,0.0,0.0,0.0,0.0,0.0,0.0,0.0,0.0,0.0,0.0,0.0,0.0,0.0,0.0,0.0,0.0,0.0,0.0,0.0,0.0,0.0,0.0,0.0,0.0,0.0,0.0,0.0,0.0,0.0,0.0,0.0,0.0,0.0,0.0,0.0,0.0,0.0,0.0,0.0,0.0,0.0,0.0,0.0,0.0,0.0,0.0,0.0,0.0,0.0,0.0,0.0,0.0,0.0,0.0,0.0,0.0,0.0,0.0,0.0,0.0,0.0,0.0,0.0,0.0,0.0,0.0,0.0,0.0,0.0,0.0,0.0,0.0,0.0,0.0,0.0,0.0,0.0,0.0,0.0,0.0,0.0,0.0,0.0,0.0,0.0,0.0,0.0,0.0,0.0,0.0,0.0,0.0,0.0,0.0,0.0,0.0,0.0,0.0,0.0,0.0,0.0,0.0,0.0,0.0,0.0,0.0,0.0,0.0,0.0,0.0,0.0,0.0,0.0,0.0,0.0,0.0,0.0,0.0,0.0,0.0,0.0,0.0,0.0,0.0,0.0,0.0,0.0,0.0,0.0,0.0,0.0,0.0,0.0,0.0,0.0,0.0,0.0,0.0,0.0,0.0,0.0,0.0,0.0,0.0,0.0,0.0,0.0,0.0,0.0,0.0,0.0,0.0,0.0,0.0,0.0,0.0,0.0,0.0,0.0,0.0,0.0,0.0,0.0,0.0,0.0,0.0,0.0,0.0,0.0,0.0,0.0,0.0,0.0,0.0,0.0,0.0,0.0,0.0,0.0,0.0,0.0,0.0,0.0,0.0,0.0,0.0,0.0,0.0,0.0,0.0,0.0,0.0,0.0,0.0,0.0,0.0,0.0,0.0,0.0,0.0,0.0,0.0,0.0,0.0,0.0,0.0,0.0,0.0,0.0,0.0,0.0,0.0,0.0,0.0,0.0,0.0,0.0,0.0,0.0,0.0,0.0,0.0,0.0,0.0,0.0,0.0,0.0,0.0,0.0,0.0,0.0,0.0,0.0,0.0,0.0,0.0,0.0,0.0,0.0,0.0,0.0,0.0,0.0,0.0,0.0,0.0,0.0,0.0,0.0,0.0,0.0,0.0,0.0,0.0,0.0,0.0,0.0,0.0,0.0,0.0,0.0,0.0,0.0,0.0,0.0,0.0,0.0,0.0,0.0,0.0,0.0,0.0,0.0,0.0,0.0,0.0,0.0,0.0,0.0,0.0,0.0,0.0,0.0,0.0,0.0,0.0,0.0,0.0,0.0,0.0,0.0,0.0,0.0,0.0,0.0,0.0,0.0,0.0,0.0,0.0,0.0,0.0,0.0,0.0,0.0,0.0,0.0,0.0,0.0,0.0,0.0,0.0,0.0,0.0,0.0,0.0,0.0,0.0,0.0,0.0,0.0,0.0,0.0,0.0,0.0,0.0,0.0,0.0,0.0,0.0,0.0,0.0,0.0,0.0,0.0,0.0,0.0,0.0,0.0,0.0,0.0,0.0,0.0,0.0,0.0,0.0,0.0,0.0,0.0,0.0,0.0,0.0,0.0,0.0,0.0,0.0,0.0,0.0,0.0,0.0,0.0,0.0,0.0,0.0,0.0,0.0,0.0,0.0,0.0,0.0,0.0,0.0,0.0,0.0,0.0,0.0,0.0,0.0,0.0,0.0,0.0,0.0,0.0,0.0,0.0,0.0,0.0,0.0,0.0,0.0,0.0,0.0,0.0,0.0,0.0,0.0,0.0,0.0,0.0,0.0,0.0,0.0,0.0,0.0,0.0,0.0,0.0,0.0,0.0,0.0,0.0,0.0,0.0,0.0,0.0,0.0,0.0,0.0,0.0,0.0,0.0,0.0,0.0,0.0,0.0,0.0,0.0,0.0,0.0,0.0,0.0,0.0,0.0,0.0,0.0,0.0,0.0,0.0,0.0,0.0,0.0,0.0,0.0,0.0,0.0,0.0,0.0,0.0,0.0,0.0,0.0,0.0,0.0,0.0,0.0,0.0,0.0,0.0,0.0,0.0,0.0,0.0,0.0,0.0,0.0,0.0,0.0,0.0,0.0,0.0,0.0,0.0,0.0,0.0,0.0,0.0,0.0,0.0,0.0,0.0,0.0,0.0,0.0,0.0,0.0,0.0,0.0,0.0,0.0,0.0,0.0,0.0,0.0,0.0,0.0,0.0,0.0,0.0,0.0,0.0,0.0,0.0,0.0,0.0,0.0,0.0,0.0,0.0,0.0,0.0,0.0,0.0,0.0,0.0,0.0,0.0,0.0,0.0,0.0,0.0,0.0,0.0,0.0,0.0,0.0,0.0,0.0,0.0,0.0,0.0,0.0,0.0,0.0,0.0,0.0,0.0,0.0,0.0,0.0,0.0,0.0,0.0,0.0,0.0,0.0,0.0,0.0,0.0,0.0,0.0,0.0,0.0,0.0,0.0,0.0,0.0,0.0,0.0,0.0,0.0,0.0,0.0,0.0,0.0,0.0,0.0,0.0,0.0,0.0,0.0,0.0,0.0,0.0,0.0,0.0,0.0,0.0,0.0,0.0,0.0,0.0,0.0,0.0,0.0,0.0,0.0,0.0,0.0,0.0,0.0,0.0,0.0,0.0,0.0,0.0,0.0,0.0,0.0,0.0,0.0,0.0,0.0,0.0,0.0,0.0,0.0,0.0,0.0,0.0,0.0,0.0,0.0,0.0,0.0,0.0,0.0,0.0,0.0,0.0,0.0,0.0,0.0,0.0,0.0,0.0,0.0,0.0,0.0,0.0,0.0,0.0,0.0,0.0,0.0,0.0,0.0,0.0,0.0,0.0,0.0,0.0,0.0,0.0,0.0,0.0,0.0,0.0,0.0,0.0,0.0,0.0,0.0,0.0,0.0,0.0,0.0,0.0,0.0,0.0,0.0,0.0,0.0,0.0,0.0,0.0,0.0,0.0,0.0,0.0,0.0,0.0,0.0,0.0,0.0,0.0,0.0,0.0,0.0,0.0,0.0,0.0,0.0,0.0,0.0,0.0,0.0,0.0,0.0,0.0,0.0,0.0,0.0,0.0,0.0,0.0,0.0,0.0,0.0,0.0,0.0,0.0,0.0,0.0,0.0,0.0,0.0,0.0,0.0,0.0,0.0,0.0,0.0,0.0,0.0,0.0,0.0,0.0,0.0,0.0,0.0,0.0,0.0,0.0,0.0,0.0,0.0,0.0,0.0,0.0,0.0,0.0,0.0,0.0,0.0,0.0,0.0,0.0,0.0,0.0,0.0,0.0,0.0,0.0,0.0,0.0,0.0,0.0,0.0,0.0,0.0,0.0,0.0,0.0,0.0,0.0,0.0,0.0,0.0,0.0,0.0,0.0,0.0,0.0,0.0,0.0,0.0,0.0,0.0,0.0,0.0,0.0,0.0,0.0,0.0,0.0,0.0,0.0,0.0,0.0,0.0,0.0,0.0,0.0,0.0,0.0,0.0,0.0,0.0,0.0,0.0,0.0,0.0,0.0,0.0,0.0,0.0,0.0,0.0,0.0,0.0,0.0,0.0,0.0,0.0,0.0,0.0,0.0,0.0,0.0,0.0,0.0,0.0,0.0,0.0,0.0,0.0,0.0,0.0,0.0,0.0,0.0,0.0,0.0,0.0,0.0,0.0,0.0,0.0,0.0,0.0,0.0,0.0,0.0,0.0,0.0,0.0,0.0,0.0,0.0,0.0,0.0,0.0,0.0,0.0,0.0,0.0,0.0,0.0,0.0,0.0,0.0,0.0,0.0,0.0,0.0,0.0,0.0,0.0,0.0,0.0,0.0,0.0,0.0,0.0,0.0,0.0,0.0,0.0,0.0,0.0,0.0,0.0,0.0,0.0,0.0,0.0,0.0,0.0,0.0,0.0,0.0,0.0,0.0,0.0,0.0,0.0,0.0,0.0,0.0,0.0,0.0,0.0,0.0,0.0,0.0,0.0,0.0,0.0,0.0,0.0,0.0,0.0,0.0,0.0,0.0,0.0,0.0,0.0,0.0,0.0,0.0,0.0,0.0,0.0,0.0,0.0,0.0,0.0,0.0,0.0,0.0,0.0,0.0,0.0,0.0,0.0,0.0,0.0,0.0,0.0,0.0,0.0,0.0,0.0,0.0,0.0,0.0,0.0,0.0,0.0,0.0,0.0,0.0,0.0,0.0,0.0,0.0,0.0,0.0,0.0,0.0,0.0,0.0,0.0,0.0,0.0,0.0,0.0,0.0,0.0,0.0,4.8515,0.0,0.0,0.0,0.0,0.0,0.0,0.0,0.0,0.0,0.0,0.0,0.0,0.0,0.0,0.0,0.0,0.0,0.0,0.0,0.0,0.0,0.0,0.0,0.0,0.0,0.0,0.0,0.0,0.0,0.0,0.0,0.0,0.0,0.0,0.0,0.0,0.0,0.0,0.0,0.0,0.0,0.0,0.0,0.0,0.0,0.0,0.0,0.0,0.0,0.0,0.0,0.0,0.0,0.0,0.0,0.0,0.0,0.0,0.0,0.0,0.0,0.0,0.0,0.0,0.0,0.0,0.0,0.0,0.0,0.0,0.0,0.0,0.0,0.0,0.0,0.0,0.0,0.0,0.0,0.0,0.0,0.0,0.0,0.0,0.0,0.0,0.0,0.0,0.0,0.0,0.0,0.0,0.0,0.0,0.0,0.0,0.0,0.0,0.0,0.0,0.0,0.0,0.0,0.0,0.0,0.0,0.0,0.0,0.0,0.0,4.972,5.0186,4.9736,4.9328,4.8924,0.0,0.0,0.0,0.0,0.0,0.0,0.0,0.0,0.0,0.0,0.0,0.0,0.0,0.0,0.0,0.0,0.0,0.0,0.0,0.0,0.0,0.0,0.0,0.0,0.0,0.0,0.0,0.0,0.0,0.0,0.0,0.0,0.0,0.0,0.0,0.0,0.0,0.0,0.0,0.0,0.0,0.0,0.0,0.0,0.0,0.0,0.0,0.0,0.0,0.0,0.0,0.0,0.0,0.0,0.0,0.0,0.0,0.0,0.0,0.0,0.0,0.0,0.0,0.0,0.0,0.0,0.0,0.0,0.0,0.0,0.0,0.0,0.0,0.0,0.0,0.0,0.0,0.0,0.0,0.0,0.0,0.0,0.0,0.0,0.0,0.0,0.0,0.0,0.0,0.0,0.0,0.0,0.0,0.0,0.0,0.0,0.0,0.0,0.0,0.0,0.0,0.0,0.0,0.0,0.0,0.0,0.0,0.0,0.0,0.0,0.0,0.0,5.0218,4.9456,4.8746,0.0,0.0,0.0,0.0,0.0,0.0,0.0,0.0,0.0,0.0,0.0,0.0,0.0,0.0,0.0,0.0,0.0,0.0,0.0,0.0,0.0,0.0,0.0,0.0,0.0,0.0,0.0,0.0,0.0,0.0,0.0,0.0,0.0,0.0,0.0,0.0,0.0,0.0,0.0,0.0,0.0,0.0,0.0,0.0,0.0,0.0,0.0,0.0,0.0,0.0,0.0,0.0,0.0,0.0,0.0,0.0,0.0,0.0,0.0,0.0,0.0,0.0,0.0,0.0,0.0,0.0,0.0,0.0,0.0,0.0,0.0,0.0,0.0,0.0,0.0,0.0,0.0,0.0,0.0,0.0,0.0,0.0,0.0,0.0,0.0,0.0,0.0,0.0,0.0,0.0,0.0,0.0,0.0,0.0,0.0,0.0,0.0,0.0,0.0,0.0,0.0,0.0,0.0,0.0,0.0,0.0,0.0,0.0,0.0,0.0,5.0493,5.071,4.9825,0.0,4.7179,0.0,0.0,0.0,0.0,0.0,0.0,0.0,0.0,0.0,0.0,0.0,0.0,0.0,0.0,0.0,0.0,0.0,0.0,0.0,0.0,0.0,0.0,0.0,0.0,0.0,0.0,0.0,0.0,0.0,0.0,0.0,0.0,0.0,0.0,0.0,0.0,0.0,0.0,0.0,0.0,0.0,0.0,0.0,0.0,0.0,0.0,0.0,0.0,0.0,0.0,0.0,0.0,0.0,0.0,0.0,0.0,0.0,0.0,0.0,0.0,0.0,0.0,0.0,0.0,0.0,0.0,0.0,0.0,0.0,0.0,0.0,0.0,0.0,0.0,0.0,0.0,0.0,0.0,0.0,0.0,0.0,0.0,0.0,0.0,0.0,0.0,0.0,0.0,0.0,0.0,0.0,0.0,0.0,0.0,0.0,0.0,0.0,0.0,0.0,0.0,0.0,0.0,0.0,0.0,0.0,0.0,0.0,0.0,0.0,0.0,5.0679,5.104,4.9386,4.7851,0.0,0.0,0.0,0.0,0.0,0.0,0.0,0.0,0.0,0.0,0.0,0.0,0.0,0.0,0.0,0.0,0.0,0.0,0.0,0.0,0.0,0.0,0.0,0.0,0.0,0.0,0.0,0.0,0.0,0.0,0.0,0.0,0.0,0.0,0.0,0.0,0.0,0.0,0.0,0.0,0.0,0.0,0.0,0.0,0.0,0.0,0.0,0.0,0.0,0.0,0.0,0.0,0.0,0.0,0.0,0.0,0.0,0.0,0.0,0.0,0.0,0.0,0.0,0.0,0.0,0.0,0.0,0.0,0.0,0.0,0.0,0.0,0.0,0.0,0.0,0.0,0.0,0.0,0.0,0.0,0.0,0.0,0.0,0.0,0.0,0.0,0.0,0.0,0.0,0.0,0.0,0.0,0.0,0.0,0.0,0.0,0.0,0.0,0.0,0.0,0.0,0.0,0.0,0.0,0.0,0.0,0.0,0.0,0.0,0.0,4.9513,5.0094,5.0114,4.8553,4.7041,4.576,0.0,0.0,0.0,0.0,0.0,0.0,0.0,0.0,0.0,0.0,0.0,0.0,0.0,0.0,0.0,0.0,0.0,0.0,0.0,0.0,0.0,0.0,0.0,0.0,0.0,0.0,0.0,0.0,0.0,0.0,0.0,0.0,0.0,0.0,0.0,0.0,0.0,0.0,0.0,0.0,0.0,0.0,0.0,0.0,0.0,0.0,0.0,0.0,0.0,0.0,0.0,0.0,0.0,0.0,0.0,0.0,0.0,0.0,0.0,0.0,0.0,0.0,0.0,0.0,0.0,0.0,0.0,0.0,0.0,0.0,0.0,0.0,0.0,0.0,0.0,0.0,0.0,0.0,0.0,0.0,0.0,0.0,0.0,0.0,0.0,0.0,0.0,0.0,0.0,0.0,0.0,0.0,0.0,0.0,0.0,0.0,0.0,0.0,0.0,0.0,0.0,0.0,0.0,0.0,0.0,0.0,0.0,0.0,4.6654,4.7927,4.8285,4.7644,4.7103,4.6257,0.0,0.0,0.0,0.0,0.0,0.0,0.0,0.0,0.0,0.0,0.0,0.0,0.0,0.0,0.0,0.0,0.0,0.0,0.0,0.0,0.0,0.0,0.0,0.0,0.0,0.0,0.0,0.0,0.0,0.0,0.0,0.0,0.0,0.0,0.0,0.0,0.0,0.0,0.0,0.0,0.0,0.0,0.0,0.0,0.0,0.0,0.0,0.0,0.0,0.0,0.0,0.0,0.0,0.0,0.0,0.0,0.0,0.0,0.0,0.0,0.0,0.0,0.0,0.0,0.0,0.0,0.0,0.0,0.0,0.0,0.0,0.0,0.0,0.0,0.0,0.0,0.0,0.0,0.0,0.0,0.0,0.0,0.0,0.0,0.0,0.0,0.0,0.0,0.0,0.0,0.0,0.0,0.0,0.0,0.0,0.0,0.0,0.0,0.0,0.0,0.0,0.0,0.0,0.0,0.0,0.0,0.0,0.0,0.0,4.5961,4.6768,4.7011,4.6628,4.594,4.531,0.0,0.0,0.0,0.0,0.0,0.0,0.0,0.0,0.0,0.0,0.0,0.0,0.0,0.0,0.0,0.0,0.0,0.0,0.0,0.0,0.0,0.0,0.0,0.0,0.0,0.0,0.0,0.0,0.0,0.0,0.0,0.0,0.0,0.0,0.0,0.0,0.0,0.0,0.0,0.0,0.0,0.0,0.0,0.0,0.0,0.0,0.0,0.0,0.0,0.0,0.0,0.0,0.0,0.0,0.0,0.0,0.0,0.0,0.0,0.0,0.0,0.0,0.0,0.0,0.0,0.0,0.0,0.0,0.0,0.0,0.0,0.0,0.0,0.0,0.0,0.0,0.0,0.0,0.0,0.0,0.0,0.0,0.0,0.0,0.0,0.0,0.0,0.0,0.0,0.0,0.0,0.0,0.0,0.0,0.0,0.0,0.0,0.0,0.0,0.0,0.0,0.0,0.0,0.0,0.0,0.0,0.0,0.0,0.0,4.516,0.0,4.5658,4.5582,4.497,4.4515,0.0,0.0,0.0,0.0,0.0,0.0,0.0,0.0,0.0,0.0,0.0,0.0,0.0,0.0,0.0,0.0,0.0,0.0,0.0,0.0,0.0,0.0,0.0,0.0,0.0,0.0,0.0,0.0,0.0,0.0,0.0,0.0,0.0,0.0,0.0,0.0,0.0,0.0,0.0,0.0,0.0,0.0,0.0,0.0,0.0,0.0,0.0,0.0,0.0,0.0,0.0,0.0,0.0,0.0,0.0,0.0,0.0,0.0,0.0,0.0,0.0,0.0,0.0,0.0,0.0,0.0,0.0,0.0,0.0,0.0,0.0,0.0,0.0,0.0,0.0,0.0,0.0,0.0,0.0,0.0,0.0,0.0,0.0,0.0,0.0,0.0,0.0,0.0,0.0,0.0,0.0,0.0,0.0,0.0,0.0,0.0,0.0,0.0,0.0,0.0,0.0,0.0,0.0,0.0,0.0,0.0,0.0,0.0,4.3921,4.4278,4.4123,4.4173,4.4266,4.4123,4.391,0.0,0.0,0.0,0.0,0.0,0.0,0.0,0.0,0.0,0.0,0.0,0.0,0.0,0.0,0.0,0.0,0.0,0.0,0.0,0.0,0.0,0.0,0.0,0.0,0.0,0.0,0.0,0.0,0.0,0.0,0.0,0.0,0.0,0.0,0.0,0.0,0.0,0.0,0.0,0.0,0.0,0.0,0.0,0.0,0.0,0.0,0.0,0.0,0.0,0.0,0.0,0.0,0.0,0.0,0.0,0.0,0.0,0.0,0.0,0.0,0.0,0.0,0.0,0.0,0.0,0.0,0.0,0.0,0.0,0.0,0.0,0.0,0.0,0.0,0.0,0.0,0.0,0.0,0.0,0.0,0.0,0.0,0.0,0.0,0.0,0.0,0.0,0.0,0.0,0.0,0.0,0.0,0.0,0.0,0.0,0.0,0.0,0.0,0.0,0.0,0.0,0.0,0.0,0.0,0.0,0.0,0.0,0.0,0.0,4.3606,4.3734,4.3812,4.3871,4.3832,4.3754,0.0,0.0,0.0,0.0,0.0,0.0,0.0,0.0,0.0,0.0,0.0,0.0,0.0,0.0,0.0,0.0,0.0,0.0,0.0,0.0,0.0,0.0,0.0,0.0,0.0,0.0,0.0,0.0,0.0,0.0,0.0,0.0,0.0,0.0,0.0,0.0,0.0,0.0,0.0,0.0,0.0,0.0,0.0,0.0,0.0,0.0,0.0,0.0,0.0,0.0,0.0,0.0,0.0,0.0,0.0,0.0,0.0,0.0,0.0,0.0,0.0,0.0,0.0,0.0,0.0,0.0,0.0,0.0,0.0,0.0,0.0,0.0,0.0,0.0,0.0,0.0,0.0,0.0,0.0,0.0,0.0,0.0,0.0,0.0,0.0,0.0,0.0,0.0,0.0,0.0,0.0,0.0,0.0,0.0,0.0,0.0,0.0,0.0,0.0,0.0,0.0,0.0,0.0,0.0,0.0,0.0,0.0,0.0,0.0,4.329,4.3478,4.3557,4.3537,4.3557,4.3557,4.3557,0.0,0.0,0.0,0.0,0.0,0.0,0.0,0.0,0.0,0.0,0.0,0.0,0.0,0.0,0.0,0.0,0.0,0.0,0.0,0.0,0.0,0.0,0.0,0.0,0.0,0.0,0.0,0.0,0.0,0.0,0.0,0.0,0.0,0.0,0.0,0.0,0.0,0.0,0.0,0.0,0.0,0.0,0.0,0.0,0.0,0.0,0.0,0.0,0.0,0.0,0.0,0.0,0.0,0.0,0.0,0.0,0.0,0.0,0.0,0.0,0.0,0.0,0.0,0.0,0.0,0.0,0.0,0.0,0.0,0.0,0.0,0.0,0.0,0.0,0.0,0.0,0.0,0.0,0.0,0.0,0.0,0.0,0.0,0.0,0.0,0.0,0.0,0.0,0.0,0.0,0.0,0.0,0.0,0.0,0.0,0.0,0.0,0.0,0.0,0.0,0.0,0.0,0.0,0.0,0.0,0.0,0.0,0.0,4.329,4.329,4.329,4.329,4.329,4.329,0.0,0.0,0.0,0.0,0.0,0.0,0.0,0.0,0.0,0.0,0.0,0.0,0.0,0.0,0.0,0.0,0.0,0.0,0.0,0.0,0.0,0.0,0.0,0.0,0.0,0.0,0.0,0.0,0.0,0.0,0.0,0.0,0.0,0.0,0.0,0.0,0.0,0.0,0.0,0.0,0.0,0.0,0.0,0.0,0.0,0.0,0.0,0.0,0.0,0.0,0.0,0.0,0.0,0.0,0.0,0.0,0.0,0.0,0.0,0.0,0.0,0.0,0.0,0.0,0.0,0.0,0.0,0.0,0.0,0.0,0.0,0.0,0.0,0.0,0.0,0.0,0.0,0.0,0.0,0.0,0.0,0.0,0.0,0.0,0.0,0.0,0.0,0.0,0.0,0.0,0.0,0.0,0.0,0.0,0.0,0.0,0.0,0.0,0.0,0.0,0.0,0.0,0.0,0.0,0.0,0.0,0.0,0.0,0.0,4.329,4.329,4.329,4.329,4.329,4.329,0.0,0.0,0.0,0.0,0.0,0.0,0.0,0.0,0.0,0.0,0.0,0.0,0.0,0.0,0.0,0.0,0.0,0.0,0.0,0.0,0.0,0.0,0.0,0.0,0.0,0.0,0.0,0.0,0.0,0.0,0.0,0.0,0.0,0.0,0.0,0.0,0.0,0.0,0.0,0.0,0.0,0.0,0.0,0.0,0.0,0.0,0.0,0.0,0.0,0.0,0.0,0.0,0.0,0.0,0.0,0.0,0.0,0.0,0.0,0.0,0.0,0.0,0.0,0.0,0.0,0.0,0.0,0.0,0.0,0.0,0.0,0.0,0.0,0.0,0.0,0.0,0.0,0.0,0.0,0.0,0.0,0.0,0.0,0.0,0.0,0.0,0.0,0.0,0.0,0.0,0.0,0.0,0.0,0.0,0.0,0.0,0.0,0.0,0.0,0.0,0.0,0.0,0.0,0.0,0.0,0.0,0.0,0.0,4.329,4.329,4.329,4.329,4.329,4.329,4.329,0.0,0.0,0.0,0.0,0.0,0.0,0.0,0.0,0.0,0.0,0.0,0.0,0.0,0.0,0.0,0.0,0.0,0.0,0.0,0.0,0.0,0.0,0.0,0.0,0.0,0.0,0.0,0.0,0.0,0.0,0.0,0.0,0.0,0.0,0.0,0.0,0.0,0.0,0.0,0.0,0.0,0.0,0.0,0.0,0.0,0.0,0.0,0.0,0.0,0.0,0.0,0.0,0.0,0.0,0.0,0.0,0.0,0.0,0.0,0.0,0.0,0.0,0.0,0.0,0.0,0.0,0.0,0.0,0.0,0.0,0.0,0.0,0.0,0.0,0.0,0.0,0.0,0.0,0.0,0.0,0.0,0.0,0.0,0.0,0.0,0.0,0.0,0.0,0.0,0.0,0.0,0.0,0.0,0.0,0.0,0.0,0.0,0.0,0.0,0.0,0.0,0.0,0.0,0.0,0.0,0.0,0.0,0.0,4.329,4.329,4.329,4.329,4.329,4.329,4.329,0.0,0.0,0.0,0.0,0.0,0.0,0.0,0.0,0.0,0.0,0.0,0.0,0.0,0.0,0.0,0.0,0.0,0.0,0.0,0.0,0.0,0.0,0.0,0.0,0.0,0.0,0.0,0.0,0.0,0.0,0.0,0.0,0.0,0.0,0.0,0.0,0.0,0.0,0.0,0.0,0.0,0.0,0.0,0.0,0.0,0.0,0.0,0.0,0.0,0.0,0.0,0.0,0.0,0.0,0.0,0.0,0.0,0.0,0.0,0.0,0.0,0.0,0.0,0.0,0.0,0.0,0.0,0.0,0.0,0.0,0.0,0.0,0.0,0.0,0.0,0.0,0.0,0.0,0.0,0.0,0.0,0.0,0.0,0.0,0.0,0.0,0.0,0.0,0.0,0.0,0.0,0.0,0.0,0.0,0.0,0.0,0.0,0.0,0.0,0.0,0.0,0.0,0.0,0.0,0.0,0.0,0.0,0.0,4.329,4.329,4.329,4.329,4.329,4.329,4.329,0.0,0.0,0.0,0.0,0.0,0.0,0.0,0.0,0.0,0.0,0.0,0.0,0.0,0.0,0.0,0.0,0.0,0.0,0.0,0.0,0.0,0.0,0.0,0.0,0.0,0.0,0.0,0.0,0.0,0.0,0.0,0.0,0.0,0.0,0.0,0.0,0.0,0.0,0.0,0.0,0.0,0.0,0.0,0.0,0.0,0.0,0.0,0.0,4.0187,0.0,0.0,0.0,0.0,0.0,0.0,0.0,0.0,0.0,0.0,0.0,0.0,0.0,0.0,0.0,0.0,0.0,0.0,0.0,0.0,0.0,0.0,0.0,0.0,0.0,0.0,0.0,0.0,0.0,0.0,0.0,0.0,0.0,0.0,0.0,0.0,0.0,0.0,0.0,0.0,0.0,0.0,0.0,0.0,0.0,0.0,0.0,0.0,0.0,0.0,0.0,0.0,0.0,0.0,0.0,0.0,0.0,0.0,0.0,4.329,4.329,4.329,4.329,4.329,4.329,4.329,0.0,0.0,0.0,0.0,0.0,0.0,0.0,0.0,0.0,0.0,0.0,0.0,0.0,0.0,0.0,0.0,0.0,0.0,0.0,0.0,0.0,0.0,0.0,0.0,0.0,0.0,0.0,0.0,0.0,0.0,0.0,0.0,0.0,0.0,0.0,0.0,0.0,0.0,0.0,0.0,0.0,0.0,0.0,0.0,0.0,0.0,0.0,0.0,0.0,0.0,0.0,0.0,0.0,0.0,0.0,0.0,0.0,0.0,0.0,0.0,0.0,0.0,0.0,0.0,0.0,0.0,0.0,0.0,0.0,0.0,0.0,0.0,0.0,0.0,0.0,0.0,0.0,0.0,0.0,0.0,0.0,0.0,0.0,0.0,0.0,0.0,0.0,0.0,0.0,0.0,0.0,0.0,0.0,0.0,0.0,0.0,0.0,0.0,0.0,0.0,0.0,0.0,0.0,0.0,0.0,0.0,0.0,4.329,4.3349,4.3459,4.3439,4.3499,4.3609,4.3499,4.3439,4.3459,0.0,0.0,0.0,0.0,0.0,0.0,0.0,0.0,0.0,0.0,0.0,0.0,0.0,0.0,0.0,0.0,0.0,0.0,0.0,0.0,0.0,0.0,0.0,0.0,0.0,0.0,0.0,0.0,0.0,0.0,0.0,0.0,0.0,0.0,0.0,0.0,0.0,0.0,4.0457,4.1025,0.0,0.0,0.0,0.0,0.0,0.0,0.0,0.0,4.1643,0.0,0.0,0.0,0.0,0.0,0.0,0.0,0.0,0.0,0.0,0.0,0.0,0.0,0.0,0.0,0.0,0.0,0.0,0.0,0.0,0.0,0.0,0.0,0.0,0.0,0.0,0.0,0.0,0.0,0.0,0.0,0.0,0.0,0.0,0.0,0.0,0.0,0.0,0.0,0.0,0.0,0.0,0.0,0.0,0.0,0.0,0.0,0.0,0.0,0.0,0.0,0.0,0.0,0.0,0.0,0.0,4.329,4.329,4.3579,4.4117,4.4147,4.4386,4.4945,4.4416,4.4147,4.4117,0.0,0.0,0.0,0.0,0.0,0.0,0.0,0.0,0.0,0.0,0.0,0.0,0.0,0.0,0.0,0.0,0.0,0.0,0.0,0.0,0.0,0.0,0.0,0.0,0.0,0.0,0.0,0.0,0.0,0.0,0.0,0.0,0.0,0.0,0.0,0.0,0.0,0.0,0.0,4.1343,4.1403,0.0,0.0,0.0,0.0,0.0,0.0,0.0,0.0,4.2771,0.0,0.0,0.0,0.0,0.0,0.0,0.0,0.0,0.0,0.0,0.0,0.0,0.0,0.0,0.0,0.0,0.0,0.0,0.0,0.0,0.0,0.0,0.0,0.0,0.0,0.0,0.0,0.0,0.0,0.0,0.0,0.0,0.0,0.0,0.0,0.0,0.0,0.0,0.0,0.0,0.0,0.0,0.0,0.0,0.0,0.0,0.0,0.0,0.0,0.0,0.0,0.0,0.0,0.0,0.0,4.4296,4.4326,4.4506,4.4796,4.4825,4.4975,4.5274,4.4975,4.4676,0.0,0.0,0.0,0.0,0.0,0.0,0.0,0.0,0.0,0.0,0.0,0.0,0.0,0.0,0.0,0.0,0.0,0.0,0.0,0.0,0.0,0.0,0.0,0.0,0.0,0.0,0.0,0.0,0.0,0.0,0.0,0.0,0.0,0.0,0.0,0.0,0.0,0.0,0.0,0.0,4.2162,4.2402,4.2402,0.0,0.0,0.0,0.0,0.0,0.0,4.31,4.319,0.0,0.0,0.0,0.0,0.0,0.0,0.0,0.0,0.0,0.0,0.0,0.0,0.0,0.0,0.0,0.0,0.0,0.0,0.0,0.0,0.0,0.0,0.0,0.0,0.0,0.0,0.0,0.0,0.0,0.0,0.0,0.0,0.0,0.0,0.0,0.0,0.0,0.0,0.0,0.0,0.0,0.0,0.0,0.0,0.0,0.0,0.0,0.0,0.0,0.0,0.0,0.0,0.0,0.0,0.0,4.5274,4.5274,4.5364,4.5484,4.5484,4.5574,4.5693,4.5574,4.5244,0.0,0.0,0.0,0.0,0.0,0.0,0.0,0.0,0.0,0.0,0.0,0.0,0.0,0.0,0.0,0.0,0.0,0.0,0.0,0.0,0.0,0.0,0.0,0.0,0.0,0.0,0.0,0.0,0.0,0.0,0.0,0.0,0.0,0.0,0.0,0.0,0.0,0.0,0.0,0.0,0.0,4.3369,4.3489,4.3519,0.0,0.0,0.0,0.0,4.3698,4.3728,0.0,0.0,0.0,0.0,0.0,0.0,0.0,0.0,0.0,0.0,0.0,0.0,0.0,0.0,0.0,0.0,0.0,0.0,0.0,0.0,0.0,0.0,0.0,0.0,0.0,0.0,0.0,0.0,0.0,0.0,0.0,0.0,0.0,0.0,0.0,0.0,0.0,0.0,0.0,0.0,0.0,0.0,0.0,0.0,0.0,0.0,0.0,0.0,0.0,0.0,0.0,0.0,0.0,0.0,0.0,0.0,4.5274,4.5274,4.5603,4.6151,4.6181,4.645,4.704,4.6501,4.6151,0.0,0.0,0.0,0.0,0.0,0.0,0.0,0.0,0.0,0.0,0.0,0.0,0.0,0.0,0.0,0.0,0.0,0.0,0.0,0.0,0.0,0.0,0.0,0.0,0.0,0.0,0.0,0.0,0.0,0.0,0.0,0.0,0.0,0.0,0.0,0.0,0.0,0.0,0.0,0.0,0.0,4.3499,4.4087,4.4177,4.4407,0.0,0.0,4.5065,4.5065,4.5065,0.0,0.0,0.0,0.0,0.0,0.0,0.0,0.0,0.0,0.0,0.0,0.0,0.0,0.0,0.0,0.0,0.0,0.0,0.0,0.0,0.0,0.0,0.0,0.0,0.0,0.0,0.0,0.0,0.0,0.0,0.0,0.0,0.0,0.0,0.0,0.0,0.0,0.0,0.0,0.0,0.0,0.0,0.0,0.0,0.0,0.0,0.0,0.0,0.0,0.0,0.0,0.0,0.0,0.0,0.0,4.5828,4.6027,4.6005,4.6154,4.645,4.648,4.6555,4.669,4.6533,4.6207,0.0,0.0,0.0,0.0,0.0,0.0,0.0,0.0,0.0,0.0,0.0,0.0,0.0,0.0,0.0,0.0,0.0,0.0,0.0,0.0,0.0,0.0,0.0,0.0,0.0,0.0,0.0,0.0,0.0,0.0,0.0,0.0,0.0,0.0,0.0,0.0,0.0,0.0,0.0,0.0,0.0,0.0,4.4766,4.4855,0.0,0.0,0.0,4.5274,4.5274,0.0,0.0,0.0,0.0,0.0,0.0,0.0,0.0,0.0,0.0,0.0,0.0,0.0,0.0,0.0,0.0,0.0,0.0,0.0,0.0,0.0,0.0,0.0,0.0,0.0,0.0,0.0,0.0,0.0,0.0,0.0,0.0,0.0,0.0,0.0,0.0,0.0,0.0,0.0,0.0,0.0,0.0,0.0,0.0,0.0,0.0,0.0,0.0,0.0,0.0,0.0,0.0,0.0,0.0,0.0,0.0,0.0,4.6403,4.6403,4.6403,4.6403,4.6336,4.6225,4.6046,4.6158,0.0,0.0,0.0,0.0,0.0,0.0,0.0,0.0,0.0,0.0,0.0,0.0,0.0,0.0,0.0,0.0,0.0,0.0,0.0,0.0,0.0,0.0,0.0,0.0,0.0,0.0,0.0,4.269,0.0,0.0,0.0,0.0,0.0,0.0,0.0,0.0,0.0,0.0,0.0,0.0,0.0,0.0,4.4796,4.5454,4.5544,4.5603,0.0,0.0,4.5813,4.5783,4.5783,4.5783,0.0,0.0,0.0,0.0,0.0,0.0,0.0,0.0,0.0,0.0,0.0,0.0,0.0,0.0,0.0,0.0,0.0,0.0,0.0,0.0,0.0,0.0,0.0,0.0,0.0,0.0,0.0,0.0,0.0,0.0,0.0,0.0,0.0,0.0,0.0,0.0,0.0,0.0,0.0,0.0,0.0,0.0,0.0,0.0,0.0,0.0,0.0,0.0,0.0,0.0,0.0,0.0,0.0,0.0,0.0,4.5882,4.5859,4.5859,4.5837,4.5656,4.5549,4.5549,4.5338,4.5287,0.0,0.0,0.0,0.0,0.0,0.0,0.0,0.0,0.0,0.0,0.0,0.0,0.0,0.0,0.0,0.0,0.0,0.0,0.0,0.0,0.0,0.0,0.0,0.0,0.0,0.0,0.0,0.0,0.0,0.0,0.0,0.0,0.0,0.0,0.0,0.0,0.0,0.0,0.0,0.0,0.0,4.5484,4.6151,4.6241,4.645,0.0,0.0,4.7189,4.716,4.7189,4.716,4.716,0.0,0.0,0.0,0.0,0.0,0.0,0.0,0.0,0.0,0.0,0.0,0.0,0.0,0.0,0.0,0.0,0.0,0.0,0.0,0.0,0.0,0.0,0.0,0.0,0.0,0.0,0.0,0.0,0.0,0.0,0.0,0.0,0.0,0.0,0.0,0.0,0.0,0.0,0.0,0.0,0.0,0.0,0.0,0.0,0.0,0.0,0.0,0.0,0.0,0.0,0.0,0.0,0.0,4.5797,4.5471,4.5284,4.536,4.5699,4.5198,4.4812,4.4646,4.4349,4.4153,0.0,0.0,0.0,0.0,0.0,0.0,0.0,0.0,0.0,0.0,0.0,0.0,0.0,0.0,0.0,0.0,0.0,0.0,0.0,0.0,0.0,0.0,0.0,0.0,0.0,0.0,0.0,0.0,4.4915,4.5185,4.5852,0.0,0.0,0.0,0.0,0.0,0.0,0.0,0.0,0.0,0.0,4.6151,4.6809,4.692,0.0,0.0,4.7908,4.8079,4.8468,4.8528,4.8379,4.7967,4.7698,0.0,0.0,0.0,0.0,0.0,0.0,0.0,0.0,0.0,0.0,0.0,0.0,0.0,0.0,0.0,0.0,0.0,0.0,0.0,0.0,0.0,0.0,0.0,0.0,0.0,0.0,0.0,0.0,0.0,0.0,0.0,0.0,0.0,0.0,0.0,0.0,0.0,0.0,0.0,0.0,0.0,0.0,0.0,0.0,0.0,0.0,0.0,0.0,0.0,0.0,0.0,0.0,4.5312,4.5094,4.4777,4.4795,4.5208,4.4526,4.4033,4.3859,4.3554,4.3253,0.0,0.0,0.0,0.0,0.0,0.0,0.0,0.0,0.0,0.0,0.0,0.0,0.0,0.0,0.0,0.0,0.0,0.0,0.0,0.0,0.0,0.0,0.0,0.0,0.0,0.0,0.0,0.0,4.5783,4.6082,4.654,0.0,0.0,0.0,0.0,0.0,0.0,0.0,0.0,0.0,0.0,4.6891,4.7568,4.7658,4.7837,4.8306,4.841,4.8634,4.9104,4.9194,4.9015,4.8544,0.0,0.0,0.0,0.0,0.0,0.0,0.0,0.0,0.0,0.0,0.0,0.0,0.0,0.0,0.0,0.0,0.0,0.0,0.0,0.0,0.0,0.0,0.0,0.0,0.0,0.0,0.0,0.0,0.0,0.0,4.6587,0.0,0.0,0.0,0.0,0.0,0.0,0.0,0.0,0.0,0.0,0.0,0.0,0.0,0.0,0.0,0.0,0.0,0.0,0.0,0.0,0.0,0.0,4.4997,4.4637,4.4281,4.4129,4.413,4.3617,4.3333,4.3307,4.3074,4.2786,4.2542,0.0,0.0,0.0,0.0,0.0,0.0,0.0,0.0,0.0,0.0,0.0,0.0,0.0,0.0,0.0,0.0,0.0,0.0,0.0,0.0,0.0,0.0,0.0,0.0,0.0,0.0,4.6168,4.6839,4.7249,0.0,0.0,0.0,0.0,0.0,0.0,0.0,0.0,0.0,0.0,4.7478,4.7684,4.8348,4.8466,4.8414,4.8496,4.8732,4.8899,4.8928,4.8928,4.8899,0.0,0.0,0.0,0.0,0.0,0.0,0.0,0.0,0.0,0.0,0.0,0.0,0.0,0.0,0.0,0.0,0.0,0.0,0.0,0.0,0.0,0.0,0.0,0.0,0.0,0.0,0.0,4.6385,4.6409,0.0,0.0,0.0,0.0,0.0,0.0,0.0,0.0,0.0,0.0,0.0,4.396,4.396,0.0,0.0,0.0,0.0,0.0,0.0,0.0,0.0,0.0,0.0,0.0,0.0,4.446,4.4384,4.3888,4.3808,4.4201,4.3489,4.3095,4.3095,4.2627,4.2396,4.2502,0.0,0.0,0.0,0.0,0.0,0.0,0.0,0.0,0.0,0.0,0.0,0.0,0.0,0.0,0.0,0.0,0.0,0.0,0.0,0.0,0.0,0.0,0.0,0.0,0.0,4.544,0.0,0.0,0.0,0.0,0.0,0.0,0.0,0.0,0.0,0.0,0.0,4.6475,4.7509,4.7317,4.731,4.7893,4.78,4.7921,0.0,0.0,0.0,0.0,0.0,0.0,0.0,0.0,0.0,0.0,0.0,0.0,0.0,0.0,4.9387,4.8857,4.8577,4.8488,4.8718,0.0,0.0,0.0,0.0,0.0,0.0,0.0,0.0,0.0,0.0,0.0,0.0,0.0,0.0,4.5951,0.0,4.6219,0.0,0.0,0.0,0.0,0.0,0.0,0.0,0.0,4.3463,4.3362,4.3441,4.3441,4.3782,0.0,4.436,4.452,0.0,0.0,0.0,0.0,0.0,0.0,0.0,0.0,4.4045,4.4146,4.3896,4.3881,4.4241,4.3632,4.3288,4.3263,4.2551,4.2251,4.2518,4.2163,4.2267,0.0,0.0,0.0,0.0,0.0,0.0,0.0,0.0,0.0,0.0,0.0,0.0,0.0,0.0,0.0,0.0,0.0,0.0,0.0,0.0,0.0,0.0,0.0,4.5328,0.0,0.0,0.0,0.0,0.0,0.0,0.0,0.0,0.0,4.6319,4.6177,4.631,4.7132,4.6898,4.6942,4.7738,0.0,0.0,0.0,0.0,0.0,0.0,0.0,4.9247,4.8821,4.8542,4.826,4.8028,4.819,4.8436,4.8735,0.0,0.0,4.8957,4.8717,4.8629,4.8887,4.8747,4.8659,4.8864,4.9098,4.9362,0.0,0.0,0.0,0.0,0.0,0.0,0.0,0.0,4.4899,4.5,0.0,4.5276,0.0,0.0,0.0,0.0,0.0,4.452,0.0,0.0,4.2708,4.2728,4.3027,4.3052,4.3334,4.3872,4.3923,4.3951,4.4008,4.4758,0.0,0.0,0.0,0.0,0.0,0.0,4.3823,4.3925,4.4133,4.4269,4.4294,4.4011,4.3815,4.379,4.2788,4.2372,4.2591,4.206,4.2129,4.2945,4.2448,0.0,0.0,0.0,0.0,0.0,0.0,0.0,0.0,0.0,0.0,0.0,0.0,0.0,0.0,0.0,0.0,0.0,0.0,0.0,0.0,4.4858,0.0,0.0,0.0,0.0,0.0,0.0,0.0,0.0,0.0,0.0,4.5594,4.5467,4.5536,4.622,0.0,0.0,0.0,0.0,4.8233,4.8756,4.932,4.9718,4.9718,4.924,4.8874,4.8845,0.0,0.0,4.8387,4.8058,4.7998,4.8736,4.8666,4.8731,4.9474,4.9117,4.8963,4.9508,4.9194,4.8987,4.9562,5.0039,5.0415,4.5391,0.0,0.0,0.0,0.0,4.5945,4.5893,4.5893,4.5921,4.5948,4.5949,4.5579,0.0,0.0,0.0,0.0,0.0,0.0,4.4916,4.4428,4.3739,4.3495,4.3563,4.3591,4.3667,4.3843,4.4222,4.4539,4.4766,4.4983,4.4806,4.4251,0.0,0.0,0.0,0.0,4.3708,4.413,4.4023,4.4133,4.4508,4.4421,4.4364,4.4364,4.3714,4.3394,4.3425,4.2764,4.2474,4.2717,4.2524,0.0,0.0,0.0,0.0,0.0,0.0,0.0,0.0,0.0,0.0,0.0,0.0,0.0,0.0,0.0,0.0,0.0,0.0,0.0,4.4236,4.4652,4.4857,0.0,0.0,0.0,0.0,0.0,0.0,0.0,0.0,0.0,4.5233,4.5156,4.5394,0.0,0.0,4.6647,4.735,4.7294,4.7375,4.7947,4.8192,0.0,4.8626,4.8327,4.8029,4.8029,4.7839,4.7757,4.7891,4.7999,4.8134,4.8379,4.8325,4.8351,4.8613,4.9182,4.9563,4.981,4.9671,4.9614,4.981,4.9983,5.0096,4.5592,4.6039,4.6062,4.6026,4.6026,4.6052,4.6026,4.6052,4.6026,4.6026,4.6026,4.5661,4.5505,4.5479,4.5032,0.0,0.0,0.0,4.5052,4.4879,4.4353,4.4141,4.4116,4.4116,4.4141,4.4141,4.4468,4.4676,4.4933,4.4908,4.4751,4.4454,0.0,0.0,4.4428,4.4066,4.4074,4.4374,4.4483,4.4618,4.497,4.4941,4.4815,4.4589,4.4263,4.4141,4.4116,4.3456,4.3144,4.3254,4.2816,4.2495,0.0,0.0,0.0,0.0,0.0,0.0,0.0,0.0,0.0,0.0,0.0,4.3673,0.0,0.0,0.0,0.0,4.4081,4.4053,4.3668,4.3925,0.0,0.0,0.0,0.0,0.0,0.0,0.0,4.5023,4.5089,4.5115,4.5114,4.5178,4.5406,4.5955,4.6072,4.6271,4.6819,0.0,4.6839,4.7415,4.7612,4.7753,4.7977,4.7624,4.7245,4.7007,4.698,4.7036,4.7175,4.7285,4.7365,4.7577,4.7631,4.7711,4.7978,4.8675,4.9228,4.922,4.9244,4.9244,4.9218,4.9411,4.955,4.5874,4.6255,4.5806,4.5633,4.5553,4.5553,4.5553,4.5582,4.5582,4.5553,4.5582,4.5502,4.5479,4.5425,4.5218,0.0,4.5124,4.486,4.474,4.4715,4.469,4.4665,4.4665,4.4665,4.4665,4.4665,4.4715,4.474,4.474,4.474,4.4715,4.4769,4.5059,4.498,4.4618,4.4589,4.4614,4.4665,4.5221,4.5552,4.5547,4.5547,4.5296,4.4765,4.469,4.4665,4.464,4.4166,4.4008,4.4266,4.3303,4.2803,4.2998,0.0,0.0,0.0,0.0,0.0,0.0,0.0,0.0,0.0,0.0,0.0,0.0,0.0,0.0,0.0,4.3275,0.0,4.2918,4.2944,0.0,0.0,0.0,4.3625,4.4256,4.454,4.4789,4.5083,0.0,0.0,4.5128,4.5372,4.5553,4.5572,4.5553,4.5758,4.6324,4.6404,4.6583,4.7107,4.7442,4.7648,4.7633,4.7212,4.6685,4.6163,4.5956,4.6176,4.6458,4.6318,4.63,4.6823,4.6869,4.7027,4.757,4.7948,4.8092,4.8157,4.8217,4.8217,4.8298,4.8677,4.9029,4.6577,4.6326,4.6597,4.6481,4.6107,4.6107,4.6107,4.6078,4.6107,4.6107,4.6082,4.5683,4.5225,4.4846,4.5242,4.5389,4.5414,4.5723,4.5869,4.5874,4.5472,4.5296,4.5271,4.5296,4.5271,4.5321,4.5668,4.5924,4.5869,4.5899,4.5924,4.5899,4.5959,4.5531,4.4614,4.4589,4.4844,4.5271,4.5422,4.5698,4.61,4.6125,4.605,4.5869,4.5497,4.5296,4.5271,4.4715,4.4472,4.4504,4.385,4.3462,4.3309,4.2587,0.0,0.0,0.0,0.0,0.0,0.0,0.0,0.0,0.0,4.2464,4.2886,0.0,4.2968,0.0,4.2915,4.3058,4.2975,4.3382,0.0,0.0,4.4243,4.4585,4.5154,4.525,4.5238,4.5107,4.5443,4.5623,4.5418,4.5833,4.6105,4.6103,4.6107,4.6158,4.6309,4.6334,4.6449,4.684,4.701,4.7108,4.7316,4.7036,4.6671,4.6281,4.6434,4.6637,4.667,4.6792,4.6935,4.7063,4.7118,4.717,4.7324,4.7383,4.7449,4.7487,4.7841,4.8186,4.8213,4.8318,4.8452,4.7305,4.7054,4.7324,4.7274,4.6979,4.6502,4.6296,4.6296,4.6296,4.6296,4.6301,4.5999,4.5673,4.5367,4.5698,4.5849,4.5874,4.6175,4.6296,4.6271,4.5999,4.5849,4.5849,4.5849,4.5849,4.5874,4.6175,4.6296,4.6296,4.6296,4.6296,4.6296,4.6296,4.5969,4.5367,4.5372,4.5522,4.5849,4.5849,4.5999,4.6301,4.6296,4.6296,4.6301,4.6024,4.5849,4.5849,4.5296,4.502,4.4995,4.4468,4.4098,4.3938,4.3523,4.305,0.0,0.0,0.0,0.0,0.0,0.0,0.0,0.0,0.0,0.0,0.0,4.3041,4.3286,4.3345,4.3447,4.3693,4.4026,4.4266,4.4428,4.4539,4.4779,4.5084,4.5338,4.5432,4.5312,4.5733,4.6027,4.5879,4.6326,4.6647,4.6647,4.6878,4.6928,4.6697,4.6647,4.6813,4.7222,4.7303,4.7364,4.7496,4.7369,4.7242,4.7059,4.7182,4.7303,4.7303,4.74,4.7496,4.7496,4.7496,4.7496,4.7496,4.7496,4.7496,4.7556,4.7798,4.8077,4.8143,4.8151,4.8203,4.7983,4.7908,4.7983,4.7958,4.7832,4.6903,4.6502,4.6527,4.6502,4.6496,4.6527,4.6502,4.6527,4.6502,4.6527,4.6502,4.6527,4.6502,4.6527,4.6502,4.6502,4.6527,4.6527,4.6502,4.6527,4.6502,4.6502,4.6527,4.6527,4.6527,4.6471,4.6502,4.6502,4.6527,4.6502,4.6502,4.6451,4.6296,4.6296,4.6296,4.6296,4.6296,4.6296,4.6296,4.6296,4.6296,4.6271,4.5849,4.5598,4.5602,4.5045,4.4715,4.469,4.464,4.4163,0.0,4.3187,0.0,0.0,0.0,0.0,0.0,0.0,0.0,0.0,4.2891,4.3526,4.4294,4.4086,4.4116,4.4539,4.4589,4.464,4.469,4.4715,4.4715,4.4815,4.5347,4.5698,4.5698,4.6175,4.6527,4.6552,4.6923,4.7199,4.7224,4.7556,4.7682,4.74,4.7249,4.738,4.7826,4.7908,4.7844,4.7869,4.7889,4.7857,4.7883,4.7832,4.7908,4.7889,4.7889,4.7914,4.7914,4.7863,4.7889,4.7908,4.7914,4.7914,4.7894,4.79,4.796,4.8034,4.8058,4.8237,4.8335,4.7958,4.841,4.8335,4.7883,4.7682,4.7606,4.7606,4.7606,4.7606,4.7606,4.7606,4.7575,4.7606,4.7606,4.7606,4.7606,4.7606,4.7606,4.7606,4.7606,4.7606,4.7606,4.7606,4.7606,4.7606,4.7606,4.7606,4.7606,4.7606,4.7606,4.7606,4.7606,4.7606,4.7606,0.0,0.0,0.0,4.6296,4.6296,4.6296,4.6296,4.6296,4.6296,4.6296,0.0,4.6301,4.62,4.615,4.6125,4.5623,0.0,0.0,0.0,0.0,0.0,0.0,0.0,0.0,0.0,0.0,0.0,4.4202,4.4105,4.4159,4.4234,4.4385,4.4529,4.4497,4.4489,4.4589,4.4589,4.4819,4.5271,4.5321,4.5497,4.5949,4.6446,4.6798,4.6798,4.7249,4.7606,4.7581,4.7707,4.7757,4.7757,4.7857,4.8058,4.8441,4.8058,4.7832,4.7908,4.8008,4.7933,4.7908,4.7958,4.8008,4.7908,4.7908,4.7933,4.7983,4.7958,4.7933,4.7958,4.7908,4.7933,4.7933,4.7908,4.7983,4.7933,4.7933,4.7914,4.7937,4.7943,4.7968,4.9665,0.0,4.9439,4.9264,0.0,4.8736,4.8736,4.8711,4.8134,4.7908,4.7908,4.7908,4.7908,4.7908,4.7908,4.7908,4.7908,4.7908,4.7908,4.7908,4.7908,4.7908,4.7908,4.7908,4.7908,4.7908,4.7908,4.7908,4.7908,4.7908,4.7908,4.7908,4.7908,4.7908,4.7908,4.7908,4.7657,4.7104,4.7104,4.7074,4.7104,4.7074,4.7104,4.7104,4.7104,0.0,0.0,0.0,0.0,0.0,0.0,0.0,0.0,4.5995,0.0,4.5095,4.5045,4.492,4.4614,4.4589,4.4715,4.5045,4.5547,4.5468,4.4665,4.4589,4.4715,4.502,4.5045,4.5171,4.5392,4.5668,4.5944,4.6276,4.6527,4.6803,4.7079,4.7324,4.7506,4.75,4.7701,4.7908,4.7908,4.8184,4.8309,4.836,4.8586,4.8837,4.9063,4.8686,4.841,4.8686,4.8736,4.8736,4.8736,4.8736,4.8736,4.8736,4.8736,4.8736,4.8736,4.8736,4.8736,4.8736,4.8736,4.8736,4.8736,4.8736,4.8736,4.8736,4.8736,4.8862,4.9038,4.8711,4.8435,5.0996,5.0569,5.0569,5.0318,4.9891,4.9891,4.9891,4.9816,0.0,0.0,0.0,4.8209,4.8209,4.8178,4.8209,4.8209,4.8209,4.8209,4.8209,4.8209,4.8209,4.8259,4.8328,4.836,4.841,4.851,4.851,4.851,4.851,4.851,4.851,4.851,4.851,4.8485,4.851,4.851,4.851,4.8485,4.8109,4.7908,4.7908,4.7908,4.7908,4.7908,4.7908,4.7908,4.7908,4.7908,4.7908,4.7908,4.7908,4.7707,4.7274,4.7249,4.6823,4.5999,4.5924,4.5723,4.5217,4.5167,4.5397,4.5874,4.6753,4.6647,4.5267,4.5167,4.5397,4.5874,4.5899,4.6125,4.6552,4.6948,4.7249,4.7249,4.7657,4.7883,4.7908,4.8008,4.8058,4.8058,4.8184,4.8259,4.841,4.8812,4.917,4.9296,4.964,4.9891,4.9816,4.9464,4.9238,4.9615,4.9791,4.9891,4.9891,4.9891,4.9891,4.9891,4.9891,4.9891,4.9891,4.9891,4.9891,4.9891,4.9891,4.9924,4.9891,4.9891,4.9891,4.9891,4.9891,5.0017,5.0368,4.9866,4.9446,5.1247,5.118,5.1172,5.1122,5.1079,5.1046,5.1079,5.0946,4.9841,4.9364,4.9364,4.9364,4.9364,4.9364,4.9364,4.9364,4.9364,4.9339,4.9364,4.9364,4.9364,4.9615,5.0067,5.0067,5.0318,5.077,5.0795,5.0828,5.0795,5.0795,5.0828,5.0803,5.082,5.0803,5.0853,5.0828,5.0828,5.0803,4.8887,4.7908,4.7908,4.7908,4.7908,4.7908,4.7933,4.7908,4.7908,4.7933,4.7908,4.7908,4.7908,4.7857,4.7807,4.7807,4.7732,4.7581,4.7556,4.7531,4.7456,4.7456,4.7481,4.7556,4.7707,4.7682,4.7481,4.7425,4.7481,4.7556,4.7506,4.7581,4.7682,4.7732,4.7807,4.7807,4.7857,4.7933,4.8008,4.841,4.8743,4.8736,4.912,4.954,4.9891,5.0092,5.0318,5.077,5.0828,5.1004,5.0878,5.0544,5.0243,5.0343,5.0745,5.1029,5.0954,5.1054,5.0946,5.1046,5.1004,5.0954,5.0929,5.0896,5.0896,5.0996,5.0954,5.0979,5.0971,5.1046,5.0946,5.0921,5.0929,5.0996,5.1122,5.0971,5.0954,5.2,5.1724,5.1724,5.1548,5.1306,5.1306,5.1306,5.128,5.0745,5.0519,5.0552,5.0519,5.0494,5.0519,5.0519,5.0519,5.0519,5.0519,5.0552,5.0552,5.0552,5.0645,5.087,5.0896,5.1021,5.1306,5.1306,5.1306,5.1306,5.1306,5.1306,5.1306,5.1306,5.1306,5.1306,5.1306,5.1306,5.1306,5.0268,4.9741,4.9715,4.9439,4.9264,4.9264,4.8987,4.8837,4.8837,4.8812,4.8812,4.8837,4.8837,4.8686,4.8385,4.8385,4.8234,4.7933,4.7908,4.7908,4.7908,4.7908,4.8058,4.8335,4.8416,4.851,4.8812,4.8259,4.7908,4.7908,4.7908,4.7908,4.7933,4.8184,4.8416,4.8385,4.8636,4.8937,4.9238,4.949,4.9791,5.0125,5.0376,5.0594,5.0845,5.087,5.0946,5.128,5.1306,5.1331,5.1356,5.1348,5.1222,5.0971,5.1122,5.128,5.1331,5.1306,5.1306,5.1306,5.1306,5.1306,5.1306,5.1331,5.1331,5.1306,5.1331,5.1306,5.1331,5.1306,5.1306,5.1306,5.1306,5.1348,5.1624,5.195,5.195,5.2779,5.2379,5.2379,5.2129,5.1754,5.1754,5.1738,5.1613,5.158,5.1538,5.1422,5.1331,5.1306,5.1306,5.1306,5.1306,5.1306,5.1306,5.1306,5.1306,5.1306,5.1381,5.1473,5.1507,5.1523,5.1649,5.1649,5.1649,5.1649,5.1649,5.1649,5.1649,5.1649,5.1649,5.1649,5.1649,5.1649,5.1649,5.1649,5.1582,5.1306,5.0845,5.0594,5.0594,5.0193,4.9967,4.9967,4.9967,4.9967,4.9967,4.9967,4.9798,4.9396,4.9371,4.917,4.8736,4.8661,4.8661,4.8661,4.8661,4.8862,4.9321,4.9371,4.9547,4.9841,4.9188,4.8611,4.851,4.8686,4.8736,4.8837,4.9145,4.9371,4.9396,4.9748,5.0117,5.0519,5.0619,5.077,5.1197,5.1306,5.1331,5.1481,5.1507,5.1548,5.1674,5.1649,5.1649,5.1699,5.2051,5.2076,5.195,5.1749,5.1724,5.1649,5.1699,5.1699,5.1649,5.1699,5.1749,5.1749,5.1699,5.1674,5.1724,5.1724,5.1749,5.1699,5.1699,5.1724,5.1774,5.18,5.19,5.2402,5.2929,5.2904,5.3293,5.3269,5.322,5.3244,5.3121,5.3146,5.285,5.2492,5.2456,5.2186,5.1773,5.1421,5.1348,5.1306,5.1322,5.1348,5.1381,5.1331,5.1356,5.1356,5.1306,5.1548,5.2026,5.2051,5.2302,5.2729,5.2744,5.2779,5.2744,5.2779,5.2744,5.2744,5.2744,5.2744,5.2779,5.2744,5.2744,5.2744,5.2744,5.2277,5.1381,5.1255,5.1197,5.1197,5.1147,5.1122,5.1105,5.1155,5.1122,5.1122,5.113,5.1096,5.1054,5.1054,5.0996,5.0954,5.0954,5.0971,5.0979,5.0971,5.0954,5.1079,5.1004,5.1004,5.1071,5.1029,5.0745,5.0343,5.0645,5.0803,5.1004,5.0954,5.0904,5.0853,5.0979,5.118,5.1197,5.1197,5.1222,5.1306,5.1398,5.1507,5.195,5.2076,5.2277,5.2729,5.2779,5.2779,5.2744,5.282,5.302,5.3231,5.308,5.2804,5.2744,5.2744,5.2779,5.2744,5.2744,5.2779,5.2779,5.2779,5.2744,5.2779,5.2779,5.2779,5.2744,5.2744,5.2744,5.2779,5.2804,5.2929,5.3457,5.3934,5.3843,5.2889,5.2671,5.2696,5.2671,5.2696,5.2696,5.2719,5.2716,5.2716,5.2737,5.273,5.2604,5.2327,5.197,5.1945,5.2047,5.2218,5.2251,5.2251,5.2251,5.2251,5.2528,5.3005,5.3055,5.3356,5.3858,5.3884,5.3909,5.3909,5.3909,5.3884,5.3909,5.3909,5.3884,5.3884,5.3909,5.3919,5.3909,5.3909,5.3718,5.3155,5.2277,5.1774,5.1724,5.1448,5.1306,5.1306,5.1306,5.1306,5.1306,5.1306,5.1306,5.1306,5.1306,5.1306,5.1306,5.1306,5.1306,5.1306,5.1306,5.1306,5.1306,5.1306,5.1306,5.1331,5.1574,5.1649,5.1473,5.1348,5.1306,5.1331,5.1331,5.1306,5.1306,5.1306,5.1423,5.1749,5.1774,5.1875,5.2176,5.2251,5.2327,5.2544,5.2854,5.3281,5.3758,5.3884,5.3833,5.3884,5.3909,5.3984,5.4135,5.4009,5.3909,5.3858,5.3884,5.3884,5.3884,5.3884,5.3884,5.3858,5.3884,5.3884,5.3893,5.3808,5.3808,5.3884,5.3884,5.3909,5.3833,5.3884,5.3984,5.422,5.4446,5.4321,5.2557,5.2336,5.2299,5.2299,5.2299,5.2299,5.2388,5.2525,5.25,5.2598,5.2732,5.2768,5.2571,5.2277,5.2484,5.2824,5.3034,5.3034,5.3034,5.3034,5.3034,5.3233,5.3593,5.3723,5.4019,5.4405,5.4501,5.4597,5.4597,5.4597,5.4597,5.4597,5.4597,5.4597,5.4597,5.4597,5.4597,5.4597,5.4597,5.4597,5.4421,5.3406,5.2779,5.2729,5.2226,5.1984,5.1925,5.18,5.1724,5.1749,5.1724,5.1724,5.1724,5.1724,5.1724,5.1724,5.1724,5.1724,5.1724,5.1724,5.1724,5.1724,5.185,5.195,5.2026,5.2452,5.2754,5.2779,5.2402,5.221,5.1749,5.1724,5.1774,5.19,5.195,5.2176,5.2729,5.2779,5.2955,5.3306,5.3381,5.3381,5.3432,5.3708,5.4084,5.4446,5.4547,5.4597,5.4597,5.4572,5.4622,5.4798,5.4823,5.4748,5.4647,5.4522,5.4597,5.4597,5.4522,5.4496,5.4597,5.4597,5.4572,5.4295,5.4522,5.4572,5.4396,5.4471,5.4622,5.4647,5.4697,5.4773,5.4823,5.4924,5.5049,5.2617,5.2556,5.2556,5.2471,5.2556,5.2494,5.2273,5.1826,5.1826,5.1568,5.1265,5.1205,5.1318,5.1712,5.2732,5.3309,5.3356,5.3307,5.3318,5.3318,5.3367,5.3381,5.3466,5.3764,5.4028,5.4213,5.4488,5.4651,5.4637,5.4612,5.4597,5.4647,5.4697,5.4647,5.4697,5.4723,5.4622,5.4723,5.4723,5.4672,5.4647,5.4547,5.4446,5.4396,5.3858,5.3507,5.3507,5.3105,5.282,5.282,5.282,5.282,5.282,5.2854,5.2854,5.282,5.2854,5.282,5.282,5.282,5.2854,5.2904,5.3231,5.3557,5.3482,5.3944,5.4245,5.4421,5.422,5.3808,5.303,5.2854,5.303,5.3432,5.3532,5.3783,5.4346,5.422,5.4471,5.4446,5.4371,5.4371,5.4471,5.4547,5.4597,5.4697,5.4672,5.4697,5.4773,5.4697,5.4888,5.5214,5.5315,5.5225,5.4748,5.4873,5.4798,5.4823,5.4974,5.4748,5.4647,5.4597,5.4647,5.4697,5.4823,5.4848,5.4672,5.4672,5.4773,5.4898,5.5189,5.529,5.534,5.5817,5.5892,5.1308,5.1076,5.1076,5.1076,5.1076,5.1076,5.1101,5.1171,5.1148,5.1209,5.1276,5.1253,5.1329,5.1481,5.2198,5.2699,5.2974,5.2997,5.3166,5.3407,5.3407,5.3579,5.3935,5.4044,5.4313,5.4646,5.478,5.4999,5.5217,5.5217,5.5363,5.558,5.5616,5.5616,5.5616,5.5616,5.5616,5.5616,5.5616,5.5616,5.5591,5.5616,5.5616,5.5566,5.4773,5.4295,5.4295,5.4059,5.3959,5.3959,5.3984,5.3984,5.3984,5.3959,5.4019,5.3984,5.3984,5.3984,5.3984,5.3984,5.3984,5.3984,5.4135,5.4295,5.4321,5.4471,5.4597,5.4622,5.4622,5.4346,5.417,5.3959,5.4034,5.4245,5.4295,5.4371,5.4547,5.4597,5.4597,5.4597,5.4597,5.4723,5.5013,5.5125,5.5239,5.5541,5.5616,5.5566,5.5591,5.5616,5.5641,5.5842,5.5917,5.5867,5.5691,5.5641,5.5641,5.5641,5.5666,5.5641,5.5566,5.5491,5.5541,5.5465,5.544,5.544,5.539,5.5415,5.5415,5.5516,5.5792,5.5742,5.5917,5.6093,5.6168,5.0048,4.9813,4.9752,4.9813,4.9774,4.9813,4.9931,5.0165,5.0204,5.0338,5.0572,5.0611,5.0627,5.0821,5.1053,5.1576,5.2173,5.2519,5.2887,5.3132,5.3132,5.3362,5.3653,5.3812,5.4118,5.4559,5.4892,5.5152,5.5374,5.5411,5.5632,5.5974,5.6036,5.6109,5.6182,5.6219,5.6219,5.6219,5.6219,5.6194,5.6219,5.6219,5.6219,5.6118,5.5491,5.5049,5.4873,5.4697,5.4597,5.4597,5.4597,5.4597,5.4597,5.4597,5.4597,5.4597,5.4597,5.4597,5.4597,5.4597,5.4597,5.4622,5.4773,5.4873,5.4873,5.5024,5.5089,5.5089,5.5089,5.5089,5.5125,5.5125,5.5074,5.4924,5.4873,5.4913,5.5064,5.5114,5.5114,5.5164,5.5164,5.5315,5.5566,5.5641,5.5817,5.6194,5.6219,5.6219,5.6219,5.6219,5.6219,5.6219,5.6168,5.6168,5.6043,5.5993,5.5993,5.6018,5.5993,5.6143,5.6219,5.6219,5.6219,5.6219,5.6219,5.6219,5.6219,5.6219,5.6219,5.6219,5.6143,5.6043,5.6118,5.6168,5.6219,4.8868,4.8806,4.8846,4.8767,4.8767,4.8727,4.8868,4.8907,4.8907,4.8925,4.9044,4.8986,4.9201,4.9455,4.9612,5.002,5.0807,5.1738,5.2348,5.2561,5.2547,5.2547,5.2632,5.2959,5.3299,5.3785,5.4533,5.493,5.493,5.4967,5.5152,5.5497,5.5595,5.5779,5.6182,5.6146,5.6182,5.6219,5.6219,5.6219,5.6219,5.6219,5.6219,5.6219,5.6118,5.5867,5.539,5.4974,5.4748,5.4723,5.4723,5.4647,5.4748,5.4748,5.4672,5.4748,5.4697,5.4672,5.4672,5.4723,5.4798,5.4823,5.5114,5.539,5.544,5.5792,5.6043,5.6018,5.6043,5.6093,5.6068,5.6043,5.5867,5.5491,5.539,5.5591,5.5968,5.6143,5.6168,5.6093,5.6043,5.6168,5.6194,5.6118,5.6143,5.6194,5.6219,5.6219,5.6219,5.6219,5.6219,5.6219,5.6219,5.6219,5.6219,5.6194,5.6194,5.6194,5.6168,5.6219,5.6219,5.6219,5.6219,5.6219,5.6219,5.6219,5.6219,5.6219,5.6219,5.6219,5.6219,5.6219,5.6219,5.6219,5.6219,4.7111,4.7111,4.7111,4.7111,4.7111,4.7111,4.7293,4.7573,4.7613,4.7733,4.7973,4.8012,4.8092,4.823,4.8468,4.8745,4.9083,4.9769,5.0627,5.1578,5.1709,5.177,5.177,5.1924,5.2192,5.2574,5.3082,5.3672,5.4085,5.416,5.452,5.5078,5.5189,5.5411,5.5779,5.5779,5.5889,5.6182,5.6219,5.6219,5.6219,5.6219,5.6219,5.6219,5.6219,5.6118,5.5942,5.5792,5.5717,5.5666,5.5691,5.5691,5.5691,5.5691,5.5691,5.5691,5.5691,5.5691,5.5691,5.5666,5.5605,5.5717,5.5842,5.5942,5.5942,5.6057,5.6182,5.6219,5.6219,5.6219,5.6219,5.6219,5.6118,5.5968,5.5968,5.5968,5.6143,5.6219,5.6219,5.6219,5.6219,5.6219,5.6219,5.6219,5.6219,5.6219,5.6219,5.6219,5.6219,5.6219,5.6219,5.6219,5.6219,5.6219,5.6219,5.6219,5.6219,5.6219,5.6219,5.6219,5.6219,5.6219,5.6219,5.6219,5.6219,5.6219,5.6219,5.6219,5.6219,5.6219,5.6219,5.6219,5.6219,5.6219,5.6219,4.5779,4.58,4.582,4.584,4.584,4.584,4.5962,4.6246,4.6246,4.6407,4.6609,4.6649,4.6749,4.691,4.7151,4.7472,4.7752,4.8052,4.8824,4.9925,5.0355,5.0455,5.0533,5.0782,5.1153,5.1578,5.2115,5.2612,5.3105,5.3295,5.3785,5.4421,5.4533,5.4855,5.5337,5.5374,5.5521,5.5742,5.5742,5.5779,5.5742,5.5742,5.5779,5.5742,5.5779,5.5779,5.5779,5.5742,5.5827,5.5926,5.5852,5.5779,5.5742,5.5717,5.5754,5.5779,5.5742,5.5717,5.5742,5.5631,5.5779,5.5742,5.5779,5.5779,5.5779,5.5852,5.5999,5.5999,5.6109,5.6219,5.6219,5.6219,5.6219,5.6219,5.6194,5.6219,5.6219,5.6219,5.6219,5.6219,5.6219,5.6219,5.6219,5.6219,5.6219,5.6219,5.6219,5.6219,5.6219,5.6219,5.6219,5.6219,5.6219,5.6219,5.6219,5.6219,5.6219,5.6219,5.6219,5.6219,5.6219,5.6219,5.6219,5.6219,5.6219,5.6219,5.6219,5.6219,5.6219,5.6219,5.6219,5.6219,5.6219,5.6219,5.6219,4.4923,4.4923,4.4923,4.4923,4.4923,4.4923,4.5005,4.5005,4.5046,4.5086,4.5127,4.525,4.5352,4.5637,4.5881,4.6205,4.677,4.6851,4.7092,4.7653,4.8211,4.8648,4.9004,4.9612,5.0121,5.0572,5.1347,5.177,5.1924,5.2345,5.2916,5.3559,5.3709,5.4085,5.4669,5.4892,5.493,5.5004,5.5041,5.5078,5.5078,5.5078,5.5078,5.5078,5.5078,5.5078,5.5041,5.493,5.5115,5.5448,5.5263,5.5115,5.5041,5.5004,5.5078,5.5115,5.5041,5.5078,5.5041,5.5152,5.5115,5.5115,5.5115,5.5004,5.5152,5.5411,5.5595,5.5595,5.5852,5.6072,5.6047,5.6109,5.6146,5.6219,5.6219,5.6219,5.6219,5.6219,5.6219,5.6219,5.6219,5.6219,5.6219,5.6219,5.6219,5.6219,5.6219,5.6219,5.6219,5.6219,5.6219,5.6219,5.6219,5.6219,5.6219,5.6219,5.6219,5.6219,5.6219,5.6219,5.6219,5.6219,5.6219,5.6219,5.6219,5.6219,5.6219,5.6219,5.6219,5.6219,5.6219,5.6219,5.6219,5.6219,5.6219,4.4041,4.4041,4.4041,4.4041,4.4041,4.4041,4.4247,4.4534,4.4575,4.4698,4.4923,4.5025,4.5005,4.5148,4.5168,4.5332,4.5515,4.5556,4.5556,4.5678,4.5881,4.6811,4.7813,4.8428,4.8785,4.9044,4.9808,5.0316,5.0627,5.1324,5.1962,5.2459,5.2764,5.312,5.3634,5.3972,5.4272,5.457,5.4855,5.493,5.493,5.493,5.5004,5.5004,5.4967,5.4794,5.4496,5.3972,5.4184,5.5078,5.5078,5.5004,5.4892,5.4892,5.4855,5.4855,5.493,5.4967,5.4967,5.493,5.4967,5.5004,5.4818,5.5004,5.5004,5.5078,5.5152,5.5189,5.5263,5.5337,5.5374,5.5595,5.5852,5.6182,5.6146,5.6182,5.6219,5.6219,5.6219,5.6219,5.6219,5.6219,5.6219,5.6219,5.6219,5.6219,5.6219,5.6219,5.6219,5.6219,5.6219,5.6219,5.6219,5.6219,5.6219,5.6219,5.6219,5.6219,5.6219,5.6219,5.6219,5.6219,5.6219,5.6219,5.6219,5.6219,5.6219,5.6219,5.6219,5.6219,5.6219,5.6219,5.6219,5.6219,5.6219,4.3691,4.3691,4.3691,4.3691,4.3691,4.3691,4.3876,4.4082,4.4123,4.4205,4.4411,4.4452,4.4472,4.4452,4.4472,4.4595,4.4698,4.4739,4.4882,4.5005,4.5086,4.5759,4.6669,4.7232,4.7472,4.7752,4.8547,4.9061,4.9415,5.0199,5.0782,5.1208,5.1655,5.2115,5.2688,5.2916,5.3257,5.3572,5.3897,5.3972,5.3972,5.3972,5.3972,5.3972,5.3972,5.3822,5.337,5.2954,5.3181,5.3996,5.4085,5.401,5.401,5.401,5.3972,5.3972,5.3972,5.3972,5.3972,5.3972,5.3972,5.3972,5.3972,5.401,5.3972,5.4122,5.4259,5.4459,5.4608,5.4794,5.5004,5.5226,5.5448,5.5632,5.5705,5.5852,5.6146,5.6219,5.6219,5.6219,5.6219,5.6219,5.6219,5.6219,5.6219,5.6219,5.6219,5.6219,5.6219,5.6219,5.6182,5.6109,5.6109,5.6109,5.6146,5.6146,5.6182,5.6182,5.6219,5.6219,5.6219,5.6219,5.6219,5.6219,5.6219,5.6219,5.6219,5.6219,5.6219,5.6219,5.6219,5.6219,5.6219,5.6219,5.6219,4.3691,4.3691,4.3691,4.3691,4.3691,4.3691,4.3752,4.3711,4.3733,4.3752,4.3774,4.3733,4.3835,4.3691,4.3876,4.3958,4.4329,4.4329,4.4493,4.4677,4.48,4.5107,4.5454,4.6022,4.6387,4.6811,4.7592,4.7911,4.823,4.8903,4.9533,4.9925,5.0338,5.0983,5.1501,5.1732,5.2039,5.2383,5.255,5.2588,5.2588,5.2588,5.265,5.265,5.2497,5.2345,5.2039,5.1793,5.2,5.2764,5.255,5.2574,5.2512,5.2474,5.2512,5.2574,5.2612,5.2574,5.2512,5.2588,5.2512,5.255,5.255,5.2474,5.2626,5.2878,5.3143,5.3521,5.3911,5.416,5.4595,5.4744,5.4756,5.4855,5.4892,5.5226,5.5742,5.6011,5.6072,5.6072,5.6072,5.6072,5.6072,5.6072,5.6036,5.5779,5.5816,5.5816,5.5816,5.5779,5.5816,5.5852,5.5889,5.5999,5.6036,5.6036,5.6109,5.6182,5.6219,5.6219,5.6219,5.6219,5.6219,5.6219,5.6219,5.6219,5.6219,5.6219,5.6219,5.6219,5.6219,5.6219,5.6219,5.6219,5.6219,4.3691,4.3691,4.3691,4.3691,4.3691,4.3691,4.3691,4.3691,4.3691,4.3691,4.3691,4.3691,4.3691,4.3691,4.3691,4.3793,4.3876,4.3917,4.3917,4.3958,4.4,4.4041,4.4309,4.4944,4.5311,4.5678,4.6306,4.6709,4.6991,4.7832,4.8508,4.8626,4.9122,4.9555,5.0042,5.0394,5.0727,5.1153,5.1462,5.1578,5.1578,5.1555,5.1578,5.1578,5.1308,5.1176,5.0921,5.0377,5.0121,5.0471,5.1092,5.1439,5.1539,5.1578,5.1578,5.1555,5.1616,5.1616,5.1655,5.1555,5.1632,5.1555,5.1516,5.1655,5.1655,5.1693,5.1962,5.2307,5.2459,5.2878,5.3446,5.3583,5.3709,5.3935,5.4047,5.4122,5.4347,5.4868,5.5201,5.5238,5.5263,5.5263,5.5263,5.5275,5.53,5.53,5.53,5.5263,5.53,5.5374,5.5448,5.5521,5.5521,5.5558,5.5595,5.5669,5.5779,5.5852,5.5926,5.5962,5.5999,5.6146,5.6109,5.6146,5.6219,5.6219,5.6219,5.6219,5.6219,5.6219,5.6219,5.6219,5.6219,5.6219,5.6219,4.3691,4.3691,4.3691,4.3691,4.3691,4.3691,4.3691,4.3691,4.3691,4.3691,4.3691,4.3691,4.3691,4.3691,4.3691,4.3691,4.3691,4.3691,4.3691,4.3752,4.3733,4.3691,4.3733,4.4123,4.4493,4.478,4.5352,4.5678,4.6003,4.6709,4.7312,4.7392,4.7933,4.8529,4.8824,4.9101,4.9455,4.983,5.0104,5.0221,5.0221,5.0221,5.0221,5.0221,5.0009,4.9852,4.9494,4.9179,4.8824,4.8824,4.9258,4.9847,5.0182,5.0221,5.026,5.0221,5.0221,5.0221,5.0221,5.0221,5.0221,5.026,5.0221,5.0221,5.0277,5.0355,5.0727,5.1037,5.1347,5.1693,5.2268,5.2574,5.2726,5.2916,5.3143,5.3143,5.3143,5.3822,5.4421,5.4421,5.4421,5.4421,5.4421,5.4459,5.4645,5.4719,5.5016,5.5041,5.5115,5.5152,5.5115,5.5152,5.5078,5.5078,5.5115,5.5226,5.5349,5.5411,5.5448,5.5448,5.5448,5.5705,5.5937,5.6072,5.6146,5.6219,5.6219,5.6219,5.6219,5.6219,5.6194,5.6219,5.6182,5.6146,5.6182,4.3691,4.3691,4.3691,4.3691,4.3691,4.3691,4.3691,4.3691,4.3691,4.3691,4.3691,4.3691,4.3691,4.3691,4.3691,4.3691,4.3691,4.3691,4.3691,4.3691,4.3691,4.3691,4.3733,4.3815,4.4,4.4329,4.4739,4.4923,4.5148,4.5678,4.6144,4.6225,4.6749,4.7272,4.7672,4.7911,4.815,4.8569,4.8767,4.8806,4.8806,4.8806,4.8806,4.8806,4.8648,4.849,4.815,4.7871,4.7632,4.7373,4.7253,4.7613,4.8132,4.8648,4.8688,4.8749,4.8806,4.8846,4.8846,4.8806,4.8767,4.871,4.8749,4.8727,4.8846,4.9061,4.9376,4.9808,5.0182,5.0611,5.1053,5.1285,5.1539,5.1732,5.2039,5.2039,5.2,5.2688,5.303,5.337,5.337,5.3408,5.3559,5.3672,5.3911,5.4173,5.4459,5.4645,5.4682,5.4608,5.4384,5.4272,5.4085,5.4197,5.4272,5.4371,5.457,5.4868,5.4905,5.4942,5.5004,5.53,5.5632,5.5962,5.6072,5.6146,5.6182,5.6219,5.6219,5.6194,5.6084,5.5999,5.5999,5.6072,5.6036,4.3691,4.3691,4.3691,4.3691,4.3691,4.3691,4.3691,4.3691,4.3691,4.3691,4.3691,4.3691,4.3691,4.3691,4.3691,4.3691,4.3691,4.3691,4.3691,4.3691,4.3691,4.3691,4.3691,4.3691,4.3793,4.3917,4.4247,4.4493,4.4575,4.4944,4.527,4.527,4.5474,4.58,4.6225,4.6427,4.687,4.7253,4.7533,4.7693,4.7693,4.7693,4.7693,4.7653,4.7453,4.7253,4.7052,4.6508,4.6063,4.5982,4.5637,4.5617,4.6084,4.7092,4.7653,4.7733,4.7693,4.7653,4.7653,4.7733,4.7813,4.7832,4.7733,4.7733,4.7773,4.7893,4.815,4.8547,4.9004,4.9398,4.9769,4.9964,5.0121,5.0377,5.0572,5.0611,5.0572,5.0766,5.1131,5.1516,5.1885,5.2307,5.2421,5.2612,5.2802,5.293,5.312,5.3233,5.3271,5.3195,5.3044,5.2968,5.2892,5.3143,5.3332,5.3446,5.3634,5.4122,5.4272,5.4459,5.457,5.493,5.5263,5.5349,5.5717,5.5999,5.6072,5.6072,5.6072,5.5926,5.5816,5.5705,5.5669,5.5632,5.5448,4.3691,4.3691,4.3691,4.3691,4.3691,4.3691,4.3691,4.3691,4.3691,4.3691,4.3691,4.3691,4.3691,4.3691,4.3691,4.3691,4.3691,4.3691,4.3691,4.3691,4.3691,4.3691,4.3691,4.3691,4.3691,4.3793,4.3958,4.4082,4.4082,4.4493,4.4657,4.4759,4.4882,4.5127,4.5311,4.5556,4.5759,4.6003,4.6205,4.6326,4.6286,4.6286,4.6286,4.6205,4.6124,4.5962,4.5881,4.5637,4.5352,4.5311,4.5127,4.5005,4.525,4.5637,4.6286,4.6286,4.6326,4.6286,4.6286,4.6246,4.6205,4.6246,4.6286,4.6246,4.6326,4.6488,4.691,4.7472,4.7933,4.8291,4.8508,4.8666,4.8943,4.914,4.9359,4.9359,4.9241,4.9201,4.9376,4.969,5.0355,5.0844,5.1115,5.1308,5.1578,5.1732,5.1824,5.1862,5.1862,5.1862,5.1785,5.1824,5.1785,5.1939,5.223,5.2345,5.2574,5.3105,5.3422,5.361,5.3822,5.3972,5.4234,5.4496,5.4942,5.5386,5.5595,5.5485,5.5558,5.5595,5.5374,5.5189,5.5226,5.5152,5.4892,4.3691,4.3691,4.3691,4.3691,4.3691,4.3691,4.3691,4.3691,4.3691,4.3691,4.3691,4.3691,4.3691,4.3691,4.3691,4.3691,4.3691,4.3691,4.3691,4.3691,4.3691,4.3691,4.3691,4.3691,4.3691,4.3691,4.3733,4.3691,4.3774,4.4082,4.4247,4.4329,4.4595,4.4759,4.4718,4.4862,4.4841,4.4882,4.5005,4.5025,4.5025,4.5025,4.5025,4.4964,4.4923,4.4923,4.5005,4.478,4.4698,4.4698,4.4698,4.4718,4.4759,4.4759,4.4759,4.4759,4.4882,4.5025,4.5046,4.5127,4.5291,4.5332,4.5086,4.5046,4.5168,4.5596,4.5921,4.6528,4.6811,4.7092,4.7192,4.7472,4.7712,4.7871,4.8132,4.8251,4.7951,4.7792,4.7712,4.819,4.8903,4.9359,4.9634,5.0126,5.0377,5.0416,5.0533,5.0572,5.0572,5.0627,5.0627,5.0727,5.0766,5.0821,5.0976,5.1169,5.1462,5.1924,5.2192,5.2345,5.2574,5.2764,5.3105,5.3446,5.3897,5.4248,5.4533,5.4892,5.4979,5.4979,5.4781,5.4595,5.4408,5.4234,5.401,4.3691,4.3691,4.3691,4.3691,4.3691,4.3691,4.3691,4.3691,4.3691,4.3691,4.3691,4.3691,4.3691,4.3691,4.3691,4.3691,4.3691,4.3691,4.3691,4.3691,4.3691,4.3691,4.3691,4.3691,4.3691,4.3691,4.3691,4.3691,4.3733,4.3793,4.3835,4.3876,4.3917,4.3917,4.4082,4.4329,4.4452,4.4534,4.48,4.4964,4.4923,4.4923,4.4923,4.4841,4.4657,4.4452,4.4411,4.4205,4.4,4.3958,4.3917,4.3876,4.3835,4.3876,4.3876,4.4082,4.4472,4.5025,4.4923,4.4841,4.4841,4.4841,4.4882,4.4984,4.4923,4.4964,4.5168,4.5168,4.5393,4.5678,4.6043,4.6022,4.6225,4.6467,4.6709,4.6749,4.6588,4.6669,4.6588,4.6588,4.7272,4.7752,4.811,4.8648,4.9144,4.9144,4.9184,4.9241,4.932,4.9398,4.9477,4.9516,4.9533,4.9573,4.9729,4.9925,5.0238,5.0711,5.0944,5.1076,5.1385,5.1616,5.1962,5.2345,5.274,5.3309,5.3822,5.416,5.4384,5.4197,5.3822,5.3559,5.337,5.3219,5.3068,4.3691,4.3691,4.3691,4.3691,4.3691,4.3691,4.3691,4.3691,4.3691,4.3691,4.3691,4.3691,4.3691,4.3691,4.3691,4.3691,4.3691,4.3691,4.3691,4.3691,4.3691,4.3691,4.3691,4.3691,4.3691,4.3691,4.3691,4.3691,4.3691,4.3691,4.3691,4.3691,4.3691,4.3733,4.3691,4.3917,4.4,4.4041,4.4164,4.4247,4.4247,4.4288,4.4288,4.4288,4.4082,4.4041,4.3958,4.3876,4.3691,4.3691,4.3691,4.3691,4.3691,4.3711,4.3711,4.3752,4.4,4.4205,4.4247,4.4288,4.4329,4.4288,4.4288,4.4205,4.4288,4.4513,4.4657,4.4657,4.4882,4.5086,4.525,4.5332,4.5393,4.5515,4.5576,4.5535,4.5535,4.5556,4.5596,4.5556,4.5637,4.6103,4.6669,4.7232,4.7693,4.7853,4.7973,4.8132,4.8211,4.8269,4.8291,4.8291,4.8291,4.8331,4.8468,4.8666,4.8903,4.928,4.9595,4.983,5.0182,5.0471,5.0805,5.1153,5.1501,5.2154,5.2954,5.3219,5.3233,5.303,5.2764,5.2497,5.223,5.2154,5.2,4.3691,4.3691,4.3691,4.3691,4.3691,4.3691,4.3691,4.3691,4.3691,4.3691,4.3691,4.3691,4.3691,4.3691,4.3691,4.3691,4.3691,4.3691,4.3691,4.3691,4.3691,4.3691,4.3691,4.3691,4.3691,4.3691,4.3691,4.3691,4.3691,4.3691,4.3691,4.3691,4.3691,4.3691,4.3691,4.3733,4.3774,4.3774,4.3793,4.3774,4.3774,4.3774,4.3733,4.3733,4.3691,4.3691,4.3691,4.3691,4.3691,4.3691,4.3691,4.3691,4.3691,4.3691,4.3691,4.3691,4.3815,4.3815,4.3815,4.3835,4.3691,4.3691,4.3691,4.3835,4.3793,4.4041,4.4205,4.4205,4.4411,4.4595,4.4677,4.4677,4.4657,4.4657,4.4657,4.4657,4.4698,4.4739,4.4739,4.4698,4.4698,4.4698,4.523,4.582,4.6225,4.6488,4.673,4.6972,4.7052,4.7092,4.7012,4.6931,4.6891,4.6931,4.7192,4.7392,4.7632,4.7933,4.8251,4.8569,4.8903,4.9219,4.9494,4.9869,5.0221,5.0533,5.1015,5.1555,5.2077,5.1847,5.1616,5.1246,5.1015,5.0921,5.0805,4.3691,4.3691,4.3691,4.3691,4.3691,4.3691,4.3691,4.3691,4.3691,4.3691,4.3691,4.3691,4.3691,4.3691,4.3691,4.3691,4.3691,4.3691,4.3691,4.3691,4.3691,4.3691,4.3691,4.3691,4.3691,4.3691,4.3691,4.3691,4.3691,4.3691,4.3691,4.3691,4.3691,4.3691,4.3691,4.3691,4.3691,4.3691,4.3691,4.3691,4.3691,4.3691,4.3691,4.3691,4.3691,4.3691,4.3691,4.3691,4.3691,4.3691,4.3691,4.3691,4.3691,4.3691,4.3691,4.3691,4.3691,4.3691,4.3691,4.3691,4.3691,4.3691,4.3691,4.3691,4.3711,4.3691,4.3774,4.3815,4.4,4.3958,4.3917,4.3835,4.4,4.4041,4.4123,4.4123,4.4123,4.4041,4.4,4.3876,4.3917,4.4082,4.4164,4.4842,4.525,4.5556,4.5739,4.6003,4.582,4.582,4.5617,4.5495,4.5413,4.5576,4.5901,4.6184,4.6548,4.6851,4.7132,4.7392,4.7672,4.7951,4.811,4.8547,4.8886,4.9004,4.9162,4.9808,5.0277,5.0533,5.0416,5.0003,4.969,4.9533,4.9398,4.3691,4.3691,4.3691,4.3691,4.3691,4.3691,4.3691,4.3691,4.3691,4.3691,4.3691,4.3691,4.3691,4.3691,4.3691,4.3691,4.3691,4.3691,4.3691,4.3691,4.3691,4.3691,4.3691,4.3691,4.3691,4.3691,4.3691,4.3691,4.3691,4.3691,4.3691,4.3691,4.3691,4.3691,4.3691,4.3691,4.3691,4.3691,4.3691,4.3691,4.3691,4.3691,4.3691,4.3691,4.3691,4.3691,4.3691,4.3691,4.3691,4.3691,4.3691,4.3691,4.3691,4.3691,4.3691,4.3691,4.3691,4.3691,4.3691,4.3691,4.3691,4.3691,4.3691,4.3691,4.3691,4.3691,4.3691,4.3691,4.3691,4.3691,4.3691,4.3733,4.3733,4.3691,4.3691,4.3691,4.3691,4.3691,4.3691,4.3752,4.3752,4.3793,4.3835,4.3958,4.4288,4.4616,4.4841,4.4984,4.4882,4.4841,4.48,4.4759,4.4759,4.4841,4.5148,4.5393,4.5596,4.584,4.6043,4.6326,4.6588,4.6467,4.6669,4.7111,4.7573,4.7773,4.7973,4.8251,4.8609,4.9083,4.9044,4.8706,4.845,4.8132,4.8012,4.3691,4.3691,4.3691,4.3691,4.3691,4.3691,4.3691,4.3691,4.3691,4.3691,4.3691,4.3691,4.3691,4.3691,4.3691,4.3691,4.3691,4.3691,4.3691,4.3691,4.3691,4.3691,4.3691,4.3691,4.3691,4.3691,4.3691,4.3691,4.3691,4.3691,4.3691,4.3691,4.3691,4.3691,4.3691,4.3691,4.3691,4.3691,4.3691,4.3691,4.3691,4.3691,4.3691,4.3691,4.3691,4.3691,4.3691,4.3691,4.3691,4.3691,4.3691,4.3691,4.3691,4.3691,4.3691,4.3691,4.3691,4.3691,4.3691,4.3691,4.3691,4.3691,4.3691,4.3691,4.3691,4.3691,4.3691,4.3691,4.3691,4.3691,4.3691,4.3691,4.3691,4.3691,4.3691,4.3691,4.3691,4.3691,4.3691,4.3691,4.3691,4.3691,4.3733,4.3774,4.3917,4.4164,4.4205,4.439,4.439,4.439,4.4411,4.4411,4.4411,4.4493,4.4616,4.4821,4.5025,4.5107,4.5311,4.5434,4.5556,4.5434,4.5515,4.6003,4.6367,4.6569,4.6649,4.677,4.7213,4.7773,4.7592,4.7352,4.6891,4.6609,4.669,4.3691,4.3691,4.3691,4.3691,4.3691,4.3691,4.3691,4.3691,4.3691,4.3691,4.3691,4.3691,4.3691,4.3691,4.3691,4.3691,4.3691,4.3691,4.3691,4.3691,4.3691,4.3691,4.3691,4.3691,4.3691,4.3691,4.3691,4.3691,4.3691,4.3691,4.3691,4.3691,4.3691,4.3691,4.3691,4.3691,4.3691,4.3691,4.3691,4.3691,4.3691,4.3691,4.3691,4.3691,4.3691,4.3691,4.3691,4.3691,4.3691,4.3691,4.3691,4.3691,4.3691,4.3691,4.3691,4.3691,4.3691,4.3691,4.3691,4.3691,4.3691,4.3691,4.3691,4.3691,4.3691,4.3691,4.3691,4.3691,4.3691,4.3691,4.3691,4.3691,4.3691,4.3691,4.3691,4.3691,4.3691,4.3691,4.3691,4.3691,4.3691,4.3691,4.3691,4.3691,4.3691,4.3774,4.3733,4.3793,4.3917,4.3958,4.4082,4.4082,4.4123,4.4123,4.4205,4.4329,4.4452,4.4493,4.4575,4.4698,4.478,4.4821,4.4944,4.5127,4.5311,4.5637,4.5393,4.5168,4.5759,4.6265,4.6165,4.5921,4.5393,4.5332,4.5596,4.3691,4.3691,4.3691,4.3691,4.3691,4.3691,4.3691,4.3691,4.3691,4.3691,4.3691,4.3691,4.3691,4.3691,4.3691,4.3691,4.3691,4.3691,4.3691,4.3691,4.3691,4.3691,4.3691,4.3691,4.3691,4.3691,4.3691,4.3691,4.3691,4.3691,4.3691,4.3691,4.3691,4.3691,4.3691,4.3691,4.3691,4.3691,4.3691,4.3691,4.3691,4.3691,4.3691,4.3691,4.3691,4.3691,4.3691,4.3691,4.3691,4.3691,4.3691,4.3691,4.3691,4.3691,4.3691,4.3691,4.3691,4.3691,4.3691,4.3691,4.3691,4.3691,4.3691,4.3691,4.3691,4.3691,4.3691,4.3691,4.3691,4.3691,4.3691,4.3691,4.3691,4.3691,4.3691,4.3691,4.3691,4.3691,4.3691,4.3691,4.3691,4.3691,4.3691,4.3691,4.3691,4.3691,4.3691,4.3691,4.3793,4.3793,4.3835,4.3835,4.3835,4.3774,4.3774,4.398,4.4021,4.4123,4.4041,4.4041,4.4123,4.4288,4.4411,4.4575,4.4616,4.4657,4.4657,4.4657,4.4534,4.4698,4.4944,4.5107,4.5005,4.4964,4.5168,4.3691,4.3691,4.3691,4.3691,4.3691,4.3691,4.3691,4.3691,4.3691,4.3691,4.3691,4.3691,4.3691,4.3691,4.3691,4.3691,4.3691,4.3691,4.3691,4.3691,4.3691,4.3691,4.3691,4.3691,4.3691,4.3691,4.3691,4.3691,4.3691,4.3691,4.3691,4.3691,4.3691,4.3691,4.3691,4.3691,4.3691,4.3691,4.3691,4.3691,4.3691,4.3691,4.3691,4.3691,4.3691,4.3691,4.3691,4.3691,4.3691,4.3691,4.3691,4.3691,4.3691,4.3691,4.3691,4.3691,4.3691,4.3691,4.3691,4.3691,4.3691,4.3691,4.3691,4.3691,4.3691,4.3691,4.3691,4.3691,4.3691,4.3691,4.3691,4.3691,4.3691,4.3691,4.3691,4.3691,4.3691,4.3691,4.3691,4.3691,4.3691,4.3691,4.3691,4.3691,4.3691,4.3691,4.3691,4.3691,4.3691,4.3691,4.3691,4.3691,4.3691,4.3691,4.3691,4.3733,4.3774,4.3691,4.3691,4.3691,4.3733,4.3958,4.4041,4.4082,4.4164,4.4247,4.4329,4.4329,4.4205,4.4164,4.4247,4.4411,4.4554,4.4595,4.4677,4.3691,4.3691,4.3691,4.3691,4.3691,4.3691,4.3691,4.3691,4.3691,4.3691,4.3691,4.3691,4.3691,4.3691,4.3691,4.3691,4.3691,4.3691,4.3691,4.3691,4.3691,4.3691,4.3691,4.3691,4.3691,4.3691,4.3691,4.3691,4.3691,4.3691,4.3691,4.3691,4.3691,4.3691,4.3691,4.3691,4.3691,4.3691,4.3691,4.3691,4.3691,4.3691,4.3691,4.3691,4.3691,4.3691,4.3691,4.3691,4.3691,4.3691,4.3691,4.3691,4.3691,4.3691,4.3691,4.3691,4.3691,4.3691,4.3691,4.3691,4.3691,4.3691,4.3691,4.3691,4.3691,4.3691,4.3691,4.3691,4.3691,4.3691,4.3691,4.3691,4.3691,4.3691,4.3691,4.3691,4.3691,4.3691,4.3691,4.3691,4.3691,4.3691,4.3691,4.3691,4.3691,4.3691,4.3691,4.3691,4.3691,4.3691,4.3691,4.3691,4.3691,4.3691,4.3691,4.3691,4.3691,4.3691,4.3691,4.3691,4.3691,4.3691,4.3815,4.3856,4.3774,4.3815,4.4,4.4,4.3815,4.3835,4.3917,4.3958,4.4123,4.4041,4.4041,4.3691,4.3691,4.3691,4.3691,4.3691,4.3691,4.3691,4.3691,4.3691,4.3691,4.3691,4.3691,4.3691,4.3691,4.3691,4.3691,4.3691,4.3691,4.3691,4.3691,4.3691,4.3691,4.3691,4.3691,4.3691,4.3691,4.3691,4.3691,4.3691,4.3691,4.3691,4.3691,4.3691,4.3691,4.3691,4.3691,4.3691,4.3691,4.3691,4.3691,4.3691,4.3691,4.3691,4.3691,4.3691,4.3691,4.3691,4.3691,4.3691,4.3691,4.3691,4.3691,4.3691,4.3691,4.3691,4.3691,4.3691,4.3691,4.3691,4.3691,4.3691,4.3691,4.3691,4.3691,4.3691,4.3691,4.3691,4.3691,4.3691,4.3691,4.3691,4.3691,4.3691,4.3691,4.3691,4.3691,4.3691,4.3691,4.3691,4.3691,4.3691,4.3691,4.3691,4.3691,4.3691,4.3691,4.3691,4.3691,4.3691,4.3691,4.3691,4.3691,4.3691,4.3691,4.3691,4.3691,4.3691,4.3691,4.3691,4.3691,4.3691,4.3691,4.3691,4.3691,4.3691,4.3691,4.3733,4.3691,4.3691,4.3691,4.3793,4.3733,4.3691,4.3691,4.3691,4.3691,4.3691,4.3691,4.3691,4.3691,4.3691,4.3691,4.3691,4.3691,4.3691,4.3691,4.3691,4.3691,4.3691,4.3691,4.3691,4.3691,4.3691,4.3691,4.3691,4.3691,4.3691,4.3691,4.3691,4.3691,4.3691,4.3691,4.3691,4.3691,4.3691,4.3691,4.3691,4.3691,4.3691,4.3691,4.3691,4.3691,4.3691,4.3691,4.3691,4.3691,4.3691,4.3691,4.3691,4.3691,4.3691,4.3691,4.3691,4.3691,4.3691,4.3691,4.3691,4.3691,4.3691,4.3691,4.3691,4.3691,4.3691,4.3691,4.3691,4.3691,4.3691,4.3691,4.3691,4.3691,4.3691,4.3691,4.3691,4.3691,4.3691,4.3691,4.3691,4.3691,4.3691,4.3691,4.3691,4.3691,4.3691,4.3691,4.3691,4.3691,4.3691,4.3691,4.3691,4.3691,4.3691,4.3691,4.3691,4.3691,4.3691,4.3691,4.3691,4.3691,4.3691,4.3691,4.3691,4.3691,4.3691,4.3691,4.3691,4.3691,4.3691,4.3691,4.3691,4.3691,4.3691,4.3691,4.3691,4.3691,4.3691,4.3691,4.3691,4.3691,4.3691,4.3691,4.3691,4.3691,4.3691,4.3691,4.3691,4.3691,4.3691,4.3691,4.3691,4.3691,4.3691,4.3691,4.3691,4.3691,4.3691,4.3691,4.3691,4.3691,4.3691,4.3691,4.3691,4.3691,4.3691,4.3691,4.3691,4.3691,4.3691,4.3691,4.3691,4.3691,4.3691,4.3691,4.3691,4.3691,4.3691,4.3691,4.3691,4.3691,4.3691,4.3691,4.3691,4.3691,4.3691,4.3691,4.3691,4.3691,4.3691,4.3691,4.3691,4.3691,4.3691,4.3691,4.3691,4.3691,4.3691,4.3691,4.3691,4.3691,4.3691,4.3691,4.3691,4.3691,4.3691,4.3691,4.3691,4.3691,4.3691,4.3691,4.3691,4.3691,4.3691,4.3691,4.3691,4.3691,4.3691,4.3691,4.3691,4.3691,4.3691,4.3691,4.3691,4.3691,4.3691,4.3691,4.3691,4.3691,4.3691,4.3691,4.3691,4.3691,4.3691,4.3691,4.3691,4.3691,4.3691,4.3691,4.3691,4.3691,4.3691,4.3691,4.3691,4.3691,4.3691,4.3691,4.3691,4.3691,4.3691,4.3691,4.3691,4.3691,4.3691,4.3691,4.3691,4.3691,4.3691,4.3691,4.3691,4.3691,4.3691,4.3691,4.3691,4.3691,4.3691,4.3691,4.3691,4.3691,4.3691,4.3691,4.3691,4.3691,4.3691,4.3691,4.3691,4.3691,4.3691,4.3691,4.3691,4.3691,4.3691,4.3691,4.3691,4.3691,4.3691,4.3691,4.3691,4.3691,4.3691,4.3691,4.3691,4.3691,4.3691,4.3691,4.3691,4.3691,4.3691,4.3691,4.3691,4.3691,4.3691,4.3691,4.3691,4.3691,4.3691,4.3691,4.3691,4.3691,4.3691,4.3691,4.3691,4.3691,4.3691,4.3691,4.3691,4.3691,4.3691,4.3691,4.3691,4.3691,4.3691,4.3691,4.3691,4.3691,4.3691,4.3691,4.3691,4.3691,4.3691,4.3691,4.3691,4.3691,4.3691,4.3691,4.3691,4.3691,4.3691,4.3691,4.3691,4.3691,4.3691,4.3691,4.3691,4.3691,4.3691,4.3691,4.3691,4.3691,4.3691,4.3691,4.3691,4.3691,4.3691,4.3691,4.3691,4.3691,4.3691,4.3691,4.3691,4.3691,4.3691,4.3691,4.3691,4.3691,4.3691,4.3691,4.3691,4.3691,4.3691,4.3691,4.3691,4.3691,4.3691,4.3691,4.3691,4.3691,4.3691,4.3691,4.3691,4.3691,4.3691,4.3691,4.3691,4.3691,4.3691,4.3691,4.3691,4.3691,4.3691,4.3691,4.3691,4.3691,4.3691,4.3691,4.3691,4.3691,4.3691,4.3691,4.3691,4.3691,4.3691,4.3691,4.3691,4.3691,4.3691,4.3691,4.3691,4.3691,4.3691,4.3691,4.3691,4.3691,4.3691,4.3691,4.3691,4.3691,4.3691,4.3691,4.3691,4.3691,4.3691,4.3691,4.3691,4.3691,4.3691,4.3691,4.3691,4.3691,4.3691,4.3691,4.3691,4.3691,4.3691,4.3691,4.3691,4.3691,4.3691,4.3691,4.3691,4.3691,4.3691,4.3691,4.3691,4.3691,4.3691,4.3691,4.3691,4.3691,4.3691,4.3691,4.3691,4.3691,4.3691,4.3691,4.3691,4.3691,4.3691,4.3691,4.3691,4.3691,4.3691,4.3691,4.3691,4.3691,4.3691,4.3691,4.3691,4.3691,4.3691,4.3691,4.3691,4.3691,4.3691,4.3691,4.3691,4.3691,4.3691,4.3691,4.3691,4.3691,4.3691,4.3691,4.3691,4.3691,4.3691,4.3691,4.3691,4.3691,4.3691,4.3691,4.3691,4.3691,4.3691,4.3691,4.3691,4.3691,4.3691,4.3691,4.3691,4.3691,4.3691,4.3691,4.3691,4.3691,4.3691,4.3691,4.3691,4.3691,4.3691,4.3691,4.3691,4.3691,4.3691,4.3691,4.3691,4.3691,4.3691,4.3691,4.3691,4.3691,4.3691,4.3691,4.3691,4.3691,4.3691,4.3691,4.3691,4.3691,4.3691,4.3691,4.3691,4.3691,4.3691,4.3691,4.3691,4.3691,4.3691,4.3691,4.3691,4.3691,4.3691,4.3691,4.3691,4.3691,4.3691,4.3691,4.3691,4.3691,4.3691,4.3691,4.3691,4.3691,4.3691,4.3691,4.3691,4.3691,4.3691,4.3691,4.3691,4.3691,4.3691,4.3691,4.3691,4.3691,4.3691,4.3691,4.3691,4.3691,4.3691,4.3691,4.3691,4.3691,4.3691,4.3691,4.3691,4.3691,4.3691,4.3691,4.3691,4.3691,4.3691,4.3691,4.3691,4.3691,4.3691,4.3691,4.3691,4.3691,4.3691,4.3691,4.3691,4.3691,4.3691,4.3691,4.3691,4.3691,4.3691,4.3691,4.3691,4.3691,4.3691,4.3691,4.3691,4.3691,4.3691,4.3691,4.3691,4.3691,4.3691,4.3691,4.3691,4.3691,4.3691,4.3691,4.3691,4.3691,4.3691,4.3691,4.3691,4.3691,4.3691,4.3691,4.3691,4.3691,4.3691,4.3691,4.3691,4.3691,4.3691,4.3691,4.3691,4.3691,4.3691,4.3691,4.3691,4.3691,4.3691,4.3691,4.3691,4.3691,4.3691,4.3691,4.3691,4.3691,4.3691,4.3691,4.3691,4.3691,4.3691,4.3691,4.3691,4.3691,4.3691,4.3691,4.3691,4.3691,4.3691,4.3691,4.3691,4.3691,4.3691,4.3691,4.3691,4.3691,4.3691,4.3691,4.3691,4.3691,4.3691,4.3691,4.3691,4.3691,4.3691,4.3691,4.3691,4.3691,4.3691,4.3691,4.3691,4.3691,4.3691,4.3691,4.3691,4.3691,4.3691,4.3691,4.3691,4.3691,4.3691,4.3691,4.3691,4.3691,4.3691,4.3691,4.3691,4.3691,4.3691,4.3691,4.3691,4.3691,4.3691,4.3691,4.3691,4.3691,4.3691,4.3691,4.3691,4.3691,4.3691,4.3691,4.3691,4.3691,4.3691,4.3691,4.3691,4.3691,4.3691]},{"header":{"parameterUnit":"m.s-1","parameterCategory":1,"la1":31.0,"la2":29.5877,"lo1":-88.7671,"lo2":-86.6584,"dy":0.0162,"dx":0.0185,"nx":115,"ny":88,"refTime":"2023-04-20T18:00:00:Z","depth":0,"parameterNumber":3,"parameterNumberName":"V-component_of_WINDS"},"data":[0.0,0.0,0.0,0.0,0.0,0.0,0.0,0.0,0.0,0.0,0.0,0.0,0.0,0.0,0.0,0.0,0.0,0.0,0.0,0.0,0.0,0.0,0.0,0.0,0.0,0.0,0.0,0.0,0.0,0.0,0.0,0.0,0.0,0.0,0.0,0.0,0.0,0.0,0.0,0.0,0.0,0.0,0.0,0.0,0.0,0.0,0.0,0.0,0.0,0.0,0.0,0.0,0.0,0.0,0.0,0.0,0.0,0.0,0.0,0.0,0.0,0.0,0.0,0.0,0.0,0.0,0.0,0.0,0.0,0.0,0.0,0.0,0.0,0.0,0.0,0.0,0.0,0.0,0.0,0.0,0.0,0.0,0.0,0.0,0.0,0.0,0.0,0.0,0.0,0.0,0.0,0.0,0.0,0.0,0.0,0.0,0.0,0.0,0.0,0.0,0.0,0.0,0.0,0.0,0.0,0.0,0.0,0.0,0.0,0.0,0.0,0.0,0.0,0.0,0.0,0.0,0.0,0.0,0.0,0.0,0.0,0.0,0.0,0.0,0.0,0.0,0.0,0.0,0.0,0.0,0.0,0.0,0.0,0.0,0.0,0.0,0.0,0.0,0.0,0.0,0.0,0.0,0.0,0.0,0.0,0.0,0.0,0.0,0.0,0.0,0.0,0.0,0.0,0.0,0.0,0.0,0.0,0.0,0.0,0.0,0.0,0.0,0.0,0.0,0.0,0.0,0.0,0.0,0.0,0.0,0.0,0.0,0.0,0.0,0.0,0.0,0.0,0.0,0.0,0.0,0.0,0.0,0.0,0.0,0.0,0.0,0.0,0.0,0.0,0.0,0.0,0.0,0.0,0.0,0.0,0.0,0.0,0.0,0.0,0.0,0.0,0.0,0.0,0.0,0.0,0.0,0.0,0.0,0.0,0.0,0.0,0.0,0.0,0.0,0.0,0.0,0.0,0.0,0.0,0.0,0.0,0.0,0.0,0.0,0.0,0.0,0.0,0.0,0.0,0.0,0.0,0.0,0.0,0.0,0.0,0.0,0.0,0.0,0.0,0.0,0.0,0.0,0.0,0.0,0.0,0.0,0.0,0.0,0.0,0.0,0.0,0.0,0.0,0.0,0.0,0.0,0.0,0.0,0.0,0.0,0.0,0.0,0.0,0.0,0.0,0.0,0.0,0.0,0.0,0.0,0.0,0.0,0.0,0.0,0.0,0.0,0.0,0.0,0.0,0.0,0.0,0.0,0.0,0.0,0.0,0.0,0.0,0.0,0.0,0.0,0.0,0.0,0.0,0.0,0.0,0.0,0.0,0.0,0.0,0.0,0.0,0.0,0.0,0.0,0.0,0.0,0.0,0.0,0.0,0.0,0.0,0.0,0.0,0.0,0.0,0.0,0.0,0.0,0.0,0.0,0.0,0.0,0.0,0.0,0.0,0.0,0.0,0.0,0.0,0.0,0.0,0.0,0.0,0.0,0.0,0.0,0.0,0.0,0.0,0.0,0.0,0.0,0.0,0.0,0.0,0.0,0.0,0.0,0.0,0.0,0.0,0.0,0.0,0.0,0.0,0.0,0.0,0.0,0.0,0.0,0.0,0.0,0.0,0.0,0.0,0.0,0.0,0.0,0.0,0.0,0.0,0.0,0.0,0.0,0.0,0.0,0.0,0.0,0.0,0.0,0.0,0.0,0.0,0.0,0.0,0.0,0.0,0.0,0.0,0.0,0.0,0.0,0.0,0.0,0.0,0.0,0.0,0.0,0.0,0.0,0.0,0.0,0.0,0.0,0.0,0.0,0.0,0.0,0.0,0.0,0.0,0.0,0.0,0.0,0.0,0.0,0.0,0.0,0.0,0.0,0.0,0.0,0.0,0.0,0.0,0.0,0.0,0.0,0.0,0.0,0.0,0.0,0.0,0.0,0.0,0.0,0.0,0.0,0.0,0.0,0.0,0.0,0.0,0.0,0.0,0.0,0.0,0.0,0.0,0.0,0.0,0.0,0.0,0.0,0.0,0.0,0.0,0.0,0.0,0.0,0.0,0.0,0.0,0.0,0.0,0.0,0.0,0.0,0.0,0.0,0.0,0.0,0.0,0.0,0.0,0.0,0.0,0.0,0.0,0.0,0.0,0.0,0.0,0.0,0.0,0.0,0.0,0.0,0.0,0.0,0.0,0.0,0.0,0.0,0.0,0.0,0.0,0.0,0.0,0.0,0.0,0.0,0.0,0.0,0.0,0.0,0.0,0.0,0.0,0.0,0.0,0.0,0.0,0.0,0.0,0.0,0.0,0.0,0.0,0.0,0.0,0.0,0.0,0.0,0.0,0.0,0.0,0.0,0.0,0.0,0.0,0.0,0.0,0.0,0.0,0.0,0.0,0.0,0.0,0.0,0.0,0.0,0.0,0.0,0.0,0.0,0.0,0.0,0.0,0.0,0.0,0.0,0.0,0.0,0.0,0.0,0.0,0.0,0.0,0.0,0.0,0.0,0.0,0.0,0.0,0.0,0.0,0.0,0.0,0.0,0.0,0.0,0.0,0.0,0.0,0.0,0.0,0.0,0.0,0.0,0.0,0.0,0.0,0.0,0.0,0.0,0.0,0.0,0.0,0.0,0.0,0.0,0.0,0.0,0.0,0.0,0.0,0.0,0.0,0.0,0.0,0.0,0.0,0.0,0.0,0.0,0.0,0.0,0.0,0.0,0.0,0.0,0.0,0.0,0.0,0.0,0.0,0.0,0.0,0.0,0.0,0.0,0.0,0.0,0.0,0.0,0.0,0.0,0.0,0.0,0.0,0.0,0.0,0.0,0.0,0.0,0.0,0.0,0.0,0.0,0.0,0.0,0.0,0.0,0.0,0.0,0.0,0.0,0.0,0.0,0.0,0.0,0.0,0.0,0.0,0.0,0.0,0.0,0.0,0.0,0.0,0.0,0.0,0.0,0.0,0.0,0.0,0.0,0.0,0.0,0.0,0.0,0.0,0.0,0.0,0.0,0.0,0.0,0.0,0.0,0.0,0.0,0.0,0.0,0.0,0.0,0.0,0.0,0.0,0.0,0.0,0.0,0.0,0.0,0.0,0.0,0.0,0.0,0.0,0.0,0.0,0.0,0.0,0.0,0.0,0.0,0.0,0.0,0.0,0.0,0.0,0.0,0.0,0.0,0.0,0.0,0.0,0.0,0.0,0.0,0.0,0.0,0.0,0.0,0.0,0.0,0.0,0.0,0.0,0.0,0.0,0.0,0.0,0.0,0.0,0.0,0.0,0.0,0.0,0.0,0.0,0.0,0.0,0.0,0.0,0.0,0.0,0.0,0.0,0.0,0.0,0.0,0.0,0.0,0.0,0.0,0.0,0.0,0.0,0.0,0.0,0.0,0.0,0.0,0.0,0.0,0.0,0.0,0.0,0.0,0.0,0.0,0.0,0.0,0.0,0.0,0.0,0.0,0.0,0.0,0.0,0.0,0.0,0.0,0.0,0.0,0.0,0.0,0.0,0.0,0.0,0.0,0.0,0.0,0.0,0.0,0.0,0.0,0.0,0.0,0.0,0.0,0.0,0.0,0.0,0.0,0.0,0.0,0.0,0.0,0.0,0.0,0.0,0.0,0.0,0.0,0.0,0.0,0.0,0.0,0.0,0.0,0.0,0.0,0.0,0.0,0.0,0.0,0.0,0.0,0.0,0.0,0.0,0.0,0.0,0.0,0.0,0.0,0.0,0.0,0.0,0.0,0.0,0.0,0.0,0.0,0.0,0.0,0.0,0.0,0.0,0.0,0.0,0.0,0.0,0.0,0.0,0.0,0.0,0.0,0.0,0.0,0.0,0.0,0.0,0.0,0.0,0.0,0.0,0.0,0.0,0.0,0.0,0.0,0.0,0.0,0.0,0.0,0.0,0.0,0.0,0.0,0.0,0.0,0.0,0.0,0.0,0.0,0.0,0.0,0.0,0.0,0.0,0.0,0.0,0.0,0.0,0.0,0.0,0.0,0.0,0.0,0.0,0.0,0.0,0.0,0.0,0.0,0.0,0.0,0.0,0.0,0.0,0.0,0.0,0.0,0.0,0.0,0.0,0.0,0.0,0.0,0.0,0.0,0.0,0.0,0.0,0.0,0.0,0.0,0.0,0.0,0.0,0.0,0.0,0.0,0.0,0.0,0.0,0.0,0.0,0.0,0.0,0.0,0.0,0.0,0.0,0.0,0.0,0.0,0.0,0.0,0.0,0.0,0.0,0.0,0.0,0.0,0.0,0.0,0.0,0.0,0.0,0.0,0.0,0.0,2.9079,0.0,0.0,0.0,0.0,0.0,0.0,0.0,0.0,0.0,0.0,0.0,0.0,0.0,0.0,0.0,0.0,0.0,0.0,0.0,0.0,0.0,0.0,0.0,0.0,0.0,0.0,0.0,0.0,0.0,0.0,0.0,0.0,0.0,0.0,0.0,0.0,0.0,0.0,0.0,0.0,0.0,0.0,0.0,0.0,0.0,0.0,0.0,0.0,0.0,0.0,0.0,0.0,0.0,0.0,0.0,0.0,0.0,0.0,0.0,0.0,0.0,0.0,0.0,0.0,0.0,0.0,0.0,0.0,0.0,0.0,0.0,0.0,0.0,0.0,0.0,0.0,0.0,0.0,0.0,0.0,0.0,0.0,0.0,0.0,0.0,0.0,0.0,0.0,0.0,0.0,0.0,0.0,0.0,0.0,0.0,0.0,0.0,0.0,0.0,0.0,0.0,0.0,0.0,0.0,0.0,0.0,0.0,0.0,0.0,0.0,2.896,2.9012,2.8932,2.9165,2.9688,0.0,0.0,0.0,0.0,0.0,0.0,0.0,0.0,0.0,0.0,0.0,0.0,0.0,0.0,0.0,0.0,0.0,0.0,0.0,0.0,0.0,0.0,0.0,0.0,0.0,0.0,0.0,0.0,0.0,0.0,0.0,0.0,0.0,0.0,0.0,0.0,0.0,0.0,0.0,0.0,0.0,0.0,0.0,0.0,0.0,0.0,0.0,0.0,0.0,0.0,0.0,0.0,0.0,0.0,0.0,0.0,0.0,0.0,0.0,0.0,0.0,0.0,0.0,0.0,0.0,0.0,0.0,0.0,0.0,0.0,0.0,0.0,0.0,0.0,0.0,0.0,0.0,0.0,0.0,0.0,0.0,0.0,0.0,0.0,0.0,0.0,0.0,0.0,0.0,0.0,0.0,0.0,0.0,0.0,0.0,0.0,0.0,0.0,0.0,0.0,0.0,0.0,0.0,0.0,0.0,0.0,0.0,0.0,0.0,0.0,0.0,0.0,2.9655,2.9863,3.0497,0.0,0.0,0.0,0.0,0.0,0.0,0.0,0.0,0.0,0.0,0.0,0.0,0.0,0.0,0.0,0.0,0.0,0.0,0.0,0.0,0.0,0.0,0.0,0.0,0.0,0.0,0.0,0.0,0.0,0.0,0.0,0.0,0.0,0.0,0.0,0.0,0.0,0.0,0.0,0.0,0.0,0.0,0.0,0.0,0.0,0.0,0.0,0.0,0.0,0.0,0.0,0.0,0.0,0.0,0.0,0.0,0.0,0.0,0.0,0.0,0.0,0.0,0.0,0.0,0.0,0.0,0.0,0.0,0.0,0.0,0.0,0.0,0.0,0.0,0.0,0.0,0.0,0.0,0.0,0.0,0.0,0.0,0.0,0.0,0.0,0.0,0.0,0.0,0.0,0.0,0.0,0.0,0.0,0.0,0.0,0.0,0.0,0.0,0.0,0.0,0.0,0.0,0.0,0.0,0.0,0.0,0.0,0.0,0.0,0.0,3.0715,3.0432,3.0235,0.0,3.1412,0.0,0.0,0.0,0.0,0.0,0.0,0.0,0.0,0.0,0.0,0.0,0.0,0.0,0.0,0.0,0.0,0.0,0.0,0.0,0.0,0.0,0.0,0.0,0.0,0.0,0.0,0.0,0.0,0.0,0.0,0.0,0.0,0.0,0.0,0.0,0.0,0.0,0.0,0.0,0.0,0.0,0.0,0.0,0.0,0.0,0.0,0.0,0.0,0.0,0.0,0.0,0.0,0.0,0.0,0.0,0.0,0.0,0.0,0.0,0.0,0.0,0.0,0.0,0.0,0.0,0.0,0.0,0.0,0.0,0.0,0.0,0.0,0.0,0.0,0.0,0.0,0.0,0.0,0.0,0.0,0.0,0.0,0.0,0.0,0.0,0.0,0.0,0.0,0.0,0.0,0.0,0.0,0.0,0.0,0.0,0.0,0.0,0.0,0.0,0.0,0.0,0.0,0.0,0.0,0.0,0.0,0.0,0.0,0.0,0.0,3.1899,3.1393,3.1386,3.1672,0.0,0.0,0.0,0.0,0.0,0.0,0.0,0.0,0.0,0.0,0.0,0.0,0.0,0.0,0.0,0.0,0.0,0.0,0.0,0.0,0.0,0.0,0.0,0.0,0.0,0.0,0.0,0.0,0.0,0.0,0.0,0.0,0.0,0.0,0.0,0.0,0.0,0.0,0.0,0.0,0.0,0.0,0.0,0.0,0.0,0.0,0.0,0.0,0.0,0.0,0.0,0.0,0.0,0.0,0.0,0.0,0.0,0.0,0.0,0.0,0.0,0.0,0.0,0.0,0.0,0.0,0.0,0.0,0.0,0.0,0.0,0.0,0.0,0.0,0.0,0.0,0.0,0.0,0.0,0.0,0.0,0.0,0.0,0.0,0.0,0.0,0.0,0.0,0.0,0.0,0.0,0.0,0.0,0.0,0.0,0.0,0.0,0.0,0.0,0.0,0.0,0.0,0.0,0.0,0.0,0.0,0.0,0.0,0.0,0.0,3.3122,3.2882,3.235,3.2519,3.2862,3.3247,0.0,0.0,0.0,0.0,0.0,0.0,0.0,0.0,0.0,0.0,0.0,0.0,0.0,0.0,0.0,0.0,0.0,0.0,0.0,0.0,0.0,0.0,0.0,0.0,0.0,0.0,0.0,0.0,0.0,0.0,0.0,0.0,0.0,0.0,0.0,0.0,0.0,0.0,0.0,0.0,0.0,0.0,0.0,0.0,0.0,0.0,0.0,0.0,0.0,0.0,0.0,0.0,0.0,0.0,0.0,0.0,0.0,0.0,0.0,0.0,0.0,0.0,0.0,0.0,0.0,0.0,0.0,0.0,0.0,0.0,0.0,0.0,0.0,0.0,0.0,0.0,0.0,0.0,0.0,0.0,0.0,0.0,0.0,0.0,0.0,0.0,0.0,0.0,0.0,0.0,0.0,0.0,0.0,0.0,0.0,0.0,0.0,0.0,0.0,0.0,0.0,0.0,0.0,0.0,0.0,0.0,0.0,0.0,3.4208,3.3911,3.3536,3.309,3.352,3.3956,0.0,0.0,0.0,0.0,0.0,0.0,0.0,0.0,0.0,0.0,0.0,0.0,0.0,0.0,0.0,0.0,0.0,0.0,0.0,0.0,0.0,0.0,0.0,0.0,0.0,0.0,0.0,0.0,0.0,0.0,0.0,0.0,0.0,0.0,0.0,0.0,0.0,0.0,0.0,0.0,0.0,0.0,0.0,0.0,0.0,0.0,0.0,0.0,0.0,0.0,0.0,0.0,0.0,0.0,0.0,0.0,0.0,0.0,0.0,0.0,0.0,0.0,0.0,0.0,0.0,0.0,0.0,0.0,0.0,0.0,0.0,0.0,0.0,0.0,0.0,0.0,0.0,0.0,0.0,0.0,0.0,0.0,0.0,0.0,0.0,0.0,0.0,0.0,0.0,0.0,0.0,0.0,0.0,0.0,0.0,0.0,0.0,0.0,0.0,0.0,0.0,0.0,0.0,0.0,0.0,0.0,0.0,0.0,0.0,3.5069,3.4449,3.4116,3.4111,3.4188,3.4377,0.0,0.0,0.0,0.0,0.0,0.0,0.0,0.0,0.0,0.0,0.0,0.0,0.0,0.0,0.0,0.0,0.0,0.0,0.0,0.0,0.0,0.0,0.0,0.0,0.0,0.0,0.0,0.0,0.0,0.0,0.0,0.0,0.0,0.0,0.0,0.0,0.0,0.0,0.0,0.0,0.0,0.0,0.0,0.0,0.0,0.0,0.0,0.0,0.0,0.0,0.0,0.0,0.0,0.0,0.0,0.0,0.0,0.0,0.0,0.0,0.0,0.0,0.0,0.0,0.0,0.0,0.0,0.0,0.0,0.0,0.0,0.0,0.0,0.0,0.0,0.0,0.0,0.0,0.0,0.0,0.0,0.0,0.0,0.0,0.0,0.0,0.0,0.0,0.0,0.0,0.0,0.0,0.0,0.0,0.0,0.0,0.0,0.0,0.0,0.0,0.0,0.0,0.0,0.0,0.0,0.0,0.0,0.0,0.0,3.5402,0.0,3.4758,3.4858,3.482,3.4896,0.0,0.0,0.0,0.0,0.0,0.0,0.0,0.0,0.0,0.0,0.0,0.0,0.0,0.0,0.0,0.0,0.0,0.0,0.0,0.0,0.0,0.0,0.0,0.0,0.0,0.0,0.0,0.0,0.0,0.0,0.0,0.0,0.0,0.0,0.0,0.0,0.0,0.0,0.0,0.0,0.0,0.0,0.0,0.0,0.0,0.0,0.0,0.0,0.0,0.0,0.0,0.0,0.0,0.0,0.0,0.0,0.0,0.0,0.0,0.0,0.0,0.0,0.0,0.0,0.0,0.0,0.0,0.0,0.0,0.0,0.0,0.0,0.0,0.0,0.0,0.0,0.0,0.0,0.0,0.0,0.0,0.0,0.0,0.0,0.0,0.0,0.0,0.0,0.0,0.0,0.0,0.0,0.0,0.0,0.0,0.0,0.0,0.0,0.0,0.0,0.0,0.0,0.0,0.0,0.0,0.0,0.0,0.0,3.5765,3.5259,3.5452,3.5453,3.5211,3.5452,3.5716,0.0,0.0,0.0,0.0,0.0,0.0,0.0,0.0,0.0,0.0,0.0,0.0,0.0,0.0,0.0,0.0,0.0,0.0,0.0,0.0,0.0,0.0,0.0,0.0,0.0,0.0,0.0,0.0,0.0,0.0,0.0,0.0,0.0,0.0,0.0,0.0,0.0,0.0,0.0,0.0,0.0,0.0,0.0,0.0,0.0,0.0,0.0,0.0,0.0,0.0,0.0,0.0,0.0,0.0,0.0,0.0,0.0,0.0,0.0,0.0,0.0,0.0,0.0,0.0,0.0,0.0,0.0,0.0,0.0,0.0,0.0,0.0,0.0,0.0,0.0,0.0,0.0,0.0,0.0,0.0,0.0,0.0,0.0,0.0,0.0,0.0,0.0,0.0,0.0,0.0,0.0,0.0,0.0,0.0,0.0,0.0,0.0,0.0,0.0,0.0,0.0,0.0,0.0,0.0,0.0,0.0,0.0,0.0,0.0,3.6026,3.5931,3.5836,3.5764,3.5812,3.5908,0.0,0.0,0.0,0.0,0.0,0.0,0.0,0.0,0.0,0.0,0.0,0.0,0.0,0.0,0.0,0.0,0.0,0.0,0.0,0.0,0.0,0.0,0.0,0.0,0.0,0.0,0.0,0.0,0.0,0.0,0.0,0.0,0.0,0.0,0.0,0.0,0.0,0.0,0.0,0.0,0.0,0.0,0.0,0.0,0.0,0.0,0.0,0.0,0.0,0.0,0.0,0.0,0.0,0.0,0.0,0.0,0.0,0.0,0.0,0.0,0.0,0.0,0.0,0.0,0.0,0.0,0.0,0.0,0.0,0.0,0.0,0.0,0.0,0.0,0.0,0.0,0.0,0.0,0.0,0.0,0.0,0.0,0.0,0.0,0.0,0.0,0.0,0.0,0.0,0.0,0.0,0.0,0.0,0.0,0.0,0.0,0.0,0.0,0.0,0.0,0.0,0.0,0.0,0.0,0.0,0.0,0.0,0.0,0.0,3.6405,3.6241,3.6146,3.6169,3.6146,3.6146,3.6146,0.0,0.0,0.0,0.0,0.0,0.0,0.0,0.0,0.0,0.0,0.0,0.0,0.0,0.0,0.0,0.0,0.0,0.0,0.0,0.0,0.0,0.0,0.0,0.0,0.0,0.0,0.0,0.0,0.0,0.0,0.0,0.0,0.0,0.0,0.0,0.0,0.0,0.0,0.0,0.0,0.0,0.0,0.0,0.0,0.0,0.0,0.0,0.0,0.0,0.0,0.0,0.0,0.0,0.0,0.0,0.0,0.0,0.0,0.0,0.0,0.0,0.0,0.0,0.0,0.0,0.0,0.0,0.0,0.0,0.0,0.0,0.0,0.0,0.0,0.0,0.0,0.0,0.0,0.0,0.0,0.0,0.0,0.0,0.0,0.0,0.0,0.0,0.0,0.0,0.0,0.0,0.0,0.0,0.0,0.0,0.0,0.0,0.0,0.0,0.0,0.0,0.0,0.0,0.0,0.0,0.0,0.0,0.0,3.6405,3.6405,3.6405,3.6405,3.6405,3.6405,0.0,0.0,0.0,0.0,0.0,0.0,0.0,0.0,0.0,0.0,0.0,0.0,0.0,0.0,0.0,0.0,0.0,0.0,0.0,0.0,0.0,0.0,0.0,0.0,0.0,0.0,0.0,0.0,0.0,0.0,0.0,0.0,0.0,0.0,0.0,0.0,0.0,0.0,0.0,0.0,0.0,0.0,0.0,0.0,0.0,0.0,0.0,0.0,0.0,0.0,0.0,0.0,0.0,0.0,0.0,0.0,0.0,0.0,0.0,0.0,0.0,0.0,0.0,0.0,0.0,0.0,0.0,0.0,0.0,0.0,0.0,0.0,0.0,0.0,0.0,0.0,0.0,0.0,0.0,0.0,0.0,0.0,0.0,0.0,0.0,0.0,0.0,0.0,0.0,0.0,0.0,0.0,0.0,0.0,0.0,0.0,0.0,0.0,0.0,0.0,0.0,0.0,0.0,0.0,0.0,0.0,0.0,0.0,0.0,3.6405,3.6405,3.6405,3.6405,3.6405,3.6405,0.0,0.0,0.0,0.0,0.0,0.0,0.0,0.0,0.0,0.0,0.0,0.0,0.0,0.0,0.0,0.0,0.0,0.0,0.0,0.0,0.0,0.0,0.0,0.0,0.0,0.0,0.0,0.0,0.0,0.0,0.0,0.0,0.0,0.0,0.0,0.0,0.0,0.0,0.0,0.0,0.0,0.0,0.0,0.0,0.0,0.0,0.0,0.0,0.0,0.0,0.0,0.0,0.0,0.0,0.0,0.0,0.0,0.0,0.0,0.0,0.0,0.0,0.0,0.0,0.0,0.0,0.0,0.0,0.0,0.0,0.0,0.0,0.0,0.0,0.0,0.0,0.0,0.0,0.0,0.0,0.0,0.0,0.0,0.0,0.0,0.0,0.0,0.0,0.0,0.0,0.0,0.0,0.0,0.0,0.0,0.0,0.0,0.0,0.0,0.0,0.0,0.0,0.0,0.0,0.0,0.0,0.0,0.0,3.6405,3.6405,3.6405,3.6405,3.6405,3.6405,3.6405,0.0,0.0,0.0,0.0,0.0,0.0,0.0,0.0,0.0,0.0,0.0,0.0,0.0,0.0,0.0,0.0,0.0,0.0,0.0,0.0,0.0,0.0,0.0,0.0,0.0,0.0,0.0,0.0,0.0,0.0,0.0,0.0,0.0,0.0,0.0,0.0,0.0,0.0,0.0,0.0,0.0,0.0,0.0,0.0,0.0,0.0,0.0,0.0,0.0,0.0,0.0,0.0,0.0,0.0,0.0,0.0,0.0,0.0,0.0,0.0,0.0,0.0,0.0,0.0,0.0,0.0,0.0,0.0,0.0,0.0,0.0,0.0,0.0,0.0,0.0,0.0,0.0,0.0,0.0,0.0,0.0,0.0,0.0,0.0,0.0,0.0,0.0,0.0,0.0,0.0,0.0,0.0,0.0,0.0,0.0,0.0,0.0,0.0,0.0,0.0,0.0,0.0,0.0,0.0,0.0,0.0,0.0,0.0,3.6405,3.6405,3.6405,3.6405,3.6405,3.6405,3.6405,0.0,0.0,0.0,0.0,0.0,0.0,0.0,0.0,0.0,0.0,0.0,0.0,0.0,0.0,0.0,0.0,0.0,0.0,0.0,0.0,0.0,0.0,0.0,0.0,0.0,0.0,0.0,0.0,0.0,0.0,0.0,0.0,0.0,0.0,0.0,0.0,0.0,0.0,0.0,0.0,0.0,0.0,0.0,0.0,0.0,0.0,0.0,0.0,0.0,0.0,0.0,0.0,0.0,0.0,0.0,0.0,0.0,0.0,0.0,0.0,0.0,0.0,0.0,0.0,0.0,0.0,0.0,0.0,0.0,0.0,0.0,0.0,0.0,0.0,0.0,0.0,0.0,0.0,0.0,0.0,0.0,0.0,0.0,0.0,0.0,0.0,0.0,0.0,0.0,0.0,0.0,0.0,0.0,0.0,0.0,0.0,0.0,0.0,0.0,0.0,0.0,0.0,0.0,0.0,0.0,0.0,0.0,0.0,3.6405,3.6405,3.6405,3.6405,3.6405,3.6405,3.6405,0.0,0.0,0.0,0.0,0.0,0.0,0.0,0.0,0.0,0.0,0.0,0.0,0.0,0.0,0.0,0.0,0.0,0.0,0.0,0.0,0.0,0.0,0.0,0.0,0.0,0.0,0.0,0.0,0.0,0.0,0.0,0.0,0.0,0.0,0.0,0.0,0.0,0.0,0.0,0.0,0.0,0.0,0.0,0.0,0.0,0.0,0.0,0.0,3.3721,0.0,0.0,0.0,0.0,0.0,0.0,0.0,0.0,0.0,0.0,0.0,0.0,0.0,0.0,0.0,0.0,0.0,0.0,0.0,0.0,0.0,0.0,0.0,0.0,0.0,0.0,0.0,0.0,0.0,0.0,0.0,0.0,0.0,0.0,0.0,0.0,0.0,0.0,0.0,0.0,0.0,0.0,0.0,0.0,0.0,0.0,0.0,0.0,0.0,0.0,0.0,0.0,0.0,0.0,0.0,0.0,0.0,0.0,0.0,3.6405,3.6405,3.6405,3.6405,3.6405,3.6405,3.6405,0.0,0.0,0.0,0.0,0.0,0.0,0.0,0.0,0.0,0.0,0.0,0.0,0.0,0.0,0.0,0.0,0.0,0.0,0.0,0.0,0.0,0.0,0.0,0.0,0.0,0.0,0.0,0.0,0.0,0.0,0.0,0.0,0.0,0.0,0.0,0.0,0.0,0.0,0.0,0.0,0.0,0.0,0.0,0.0,0.0,0.0,0.0,0.0,0.0,0.0,0.0,0.0,0.0,0.0,0.0,0.0,0.0,0.0,0.0,0.0,0.0,0.0,0.0,0.0,0.0,0.0,0.0,0.0,0.0,0.0,0.0,0.0,0.0,0.0,0.0,0.0,0.0,0.0,0.0,0.0,0.0,0.0,0.0,0.0,0.0,0.0,0.0,0.0,0.0,0.0,0.0,0.0,0.0,0.0,0.0,0.0,0.0,0.0,0.0,0.0,0.0,0.0,0.0,0.0,0.0,0.0,0.0,3.6405,3.6455,3.6507,3.6531,3.6581,3.6632,3.6581,3.6531,3.6507,0.0,0.0,0.0,0.0,0.0,0.0,0.0,0.0,0.0,0.0,0.0,0.0,0.0,0.0,0.0,0.0,0.0,0.0,0.0,0.0,0.0,0.0,0.0,0.0,0.0,0.0,0.0,0.0,0.0,0.0,0.0,0.0,0.0,0.0,0.0,0.0,0.0,0.0,3.3947,3.4424,0.0,0.0,0.0,0.0,0.0,0.0,0.0,0.0,3.4904,0.0,0.0,0.0,0.0,0.0,0.0,0.0,0.0,0.0,0.0,0.0,0.0,0.0,0.0,0.0,0.0,0.0,0.0,0.0,0.0,0.0,0.0,0.0,0.0,0.0,0.0,0.0,0.0,0.0,0.0,0.0,0.0,0.0,0.0,0.0,0.0,0.0,0.0,0.0,0.0,0.0,0.0,0.0,0.0,0.0,0.0,0.0,0.0,0.0,0.0,0.0,0.0,0.0,0.0,0.0,0.0,3.6405,3.6405,3.6607,3.706,3.7085,3.7286,3.7713,3.7311,3.7085,3.706,0.0,0.0,0.0,0.0,0.0,0.0,0.0,0.0,0.0,0.0,0.0,0.0,0.0,0.0,0.0,0.0,0.0,0.0,0.0,0.0,0.0,0.0,0.0,0.0,0.0,0.0,0.0,0.0,0.0,0.0,0.0,0.0,0.0,0.0,0.0,0.0,0.0,0.0,0.0,3.4653,3.4703,0.0,0.0,0.0,0.0,0.0,0.0,0.0,0.0,3.5929,0.0,0.0,0.0,0.0,0.0,0.0,0.0,0.0,0.0,0.0,0.0,0.0,0.0,0.0,0.0,0.0,0.0,0.0,0.0,0.0,0.0,0.0,0.0,0.0,0.0,0.0,0.0,0.0,0.0,0.0,0.0,0.0,0.0,0.0,0.0,0.0,0.0,0.0,0.0,0.0,0.0,0.0,0.0,0.0,0.0,0.0,0.0,0.0,0.0,0.0,0.0,0.0,0.0,0.0,0.0,3.721,3.7235,3.7386,3.7588,3.7613,3.7739,3.799,3.7739,3.7487,0.0,0.0,0.0,0.0,0.0,0.0,0.0,0.0,0.0,0.0,0.0,0.0,0.0,0.0,0.0,0.0,0.0,0.0,0.0,0.0,0.0,0.0,0.0,0.0,0.0,0.0,0.0,0.0,0.0,0.0,0.0,0.0,0.0,0.0,0.0,0.0,0.0,0.0,0.0,0.0,3.5378,3.5579,3.5579,0.0,0.0,0.0,0.0,0.0,0.0,3.6205,3.6281,0.0,0.0,0.0,0.0,0.0,0.0,0.0,0.0,0.0,0.0,0.0,0.0,0.0,0.0,0.0,0.0,0.0,0.0,0.0,0.0,0.0,0.0,0.0,0.0,0.0,0.0,0.0,0.0,0.0,0.0,0.0,0.0,0.0,0.0,0.0,0.0,0.0,0.0,0.0,0.0,0.0,0.0,0.0,0.0,0.0,0.0,0.0,0.0,0.0,0.0,0.0,0.0,0.0,0.0,0.0,3.799,3.799,3.8065,3.8165,3.8165,3.8241,3.8341,3.8241,3.7965,0.0,0.0,0.0,0.0,0.0,0.0,0.0,0.0,0.0,0.0,0.0,0.0,0.0,0.0,0.0,0.0,0.0,0.0,0.0,0.0,0.0,0.0,0.0,0.0,0.0,0.0,0.0,0.0,0.0,0.0,0.0,0.0,0.0,0.0,0.0,0.0,0.0,0.0,0.0,0.0,0.0,3.6431,3.6532,3.6557,0.0,0.0,0.0,0.0,3.6708,3.6733,0.0,0.0,0.0,0.0,0.0,0.0,0.0,0.0,0.0,0.0,0.0,0.0,0.0,0.0,0.0,0.0,0.0,0.0,0.0,0.0,0.0,0.0,0.0,0.0,0.0,0.0,0.0,0.0,0.0,0.0,0.0,0.0,0.0,0.0,0.0,0.0,0.0,0.0,0.0,0.0,0.0,0.0,0.0,0.0,0.0,0.0,0.0,0.0,0.0,0.0,0.0,0.0,0.0,0.0,0.0,0.0,3.799,3.799,3.8266,3.8768,3.8793,3.9019,3.9471,3.9019,3.8768,0.0,0.0,0.0,0.0,0.0,0.0,0.0,0.0,0.0,0.0,0.0,0.0,0.0,0.0,0.0,0.0,0.0,0.0,0.0,0.0,0.0,0.0,0.0,0.0,0.0,0.0,0.0,0.0,0.0,0.0,0.0,0.0,0.0,0.0,0.0,0.0,0.0,0.0,0.0,0.0,0.0,3.6581,3.7034,3.711,3.7262,0.0,0.0,3.7814,3.7814,3.7814,0.0,0.0,0.0,0.0,0.0,0.0,0.0,0.0,0.0,0.0,0.0,0.0,0.0,0.0,0.0,0.0,0.0,0.0,0.0,0.0,0.0,0.0,0.0,0.0,0.0,0.0,0.0,0.0,0.0,0.0,0.0,0.0,0.0,0.0,0.0,0.0,0.0,0.0,0.0,0.0,0.0,0.0,0.0,0.0,0.0,0.0,0.0,0.0,0.0,0.0,0.0,0.0,0.0,0.0,0.0,3.8968,3.9398,3.9423,3.955,3.9804,3.9829,3.9982,4.0364,4.0007,3.9727,0.0,0.0,0.0,0.0,0.0,0.0,0.0,0.0,0.0,0.0,0.0,0.0,0.0,0.0,0.0,0.0,0.0,0.0,0.0,0.0,0.0,0.0,0.0,0.0,0.0,0.0,0.0,0.0,0.0,0.0,0.0,0.0,0.0,0.0,0.0,0.0,0.0,0.0,0.0,0.0,0.0,0.0,3.7563,3.7638,0.0,0.0,0.0,3.799,3.799,0.0,0.0,0.0,0.0,0.0,0.0,0.0,0.0,0.0,0.0,0.0,0.0,0.0,0.0,0.0,0.0,0.0,0.0,0.0,0.0,0.0,0.0,0.0,0.0,0.0,0.0,0.0,0.0,0.0,0.0,0.0,0.0,0.0,0.0,0.0,0.0,0.0,0.0,0.0,0.0,0.0,0.0,0.0,0.0,0.0,0.0,0.0,0.0,0.0,0.0,0.0,0.0,0.0,0.0,0.0,0.0,0.0,4.0694,4.0694,4.0694,4.0694,4.077,4.0896,4.1097,4.0972,0.0,0.0,0.0,0.0,0.0,0.0,0.0,0.0,0.0,0.0,0.0,0.0,0.0,0.0,0.0,0.0,0.0,0.0,0.0,0.0,0.0,0.0,0.0,0.0,0.0,0.0,0.0,3.5782,0.0,0.0,0.0,0.0,0.0,0.0,0.0,0.0,0.0,0.0,0.0,0.0,0.0,0.0,3.7588,3.814,3.8216,3.8266,0.0,0.0,3.8442,3.8417,3.8417,3.8417,0.0,0.0,0.0,0.0,0.0,0.0,0.0,0.0,0.0,0.0,0.0,0.0,0.0,0.0,0.0,0.0,0.0,0.0,0.0,0.0,0.0,0.0,0.0,0.0,0.0,0.0,0.0,0.0,0.0,0.0,0.0,0.0,0.0,0.0,0.0,0.0,0.0,0.0,0.0,0.0,0.0,0.0,0.0,0.0,0.0,0.0,0.0,0.0,0.0,0.0,0.0,0.0,0.0,0.0,0.0,4.1222,4.1247,4.1247,4.1272,4.1471,4.1647,4.1647,4.1819,4.1817,0.0,0.0,0.0,0.0,0.0,0.0,0.0,0.0,0.0,0.0,0.0,0.0,0.0,0.0,0.0,0.0,0.0,0.0,0.0,0.0,0.0,0.0,0.0,0.0,0.0,0.0,0.0,0.0,0.0,0.0,0.0,0.0,0.0,0.0,0.0,0.0,0.0,0.0,0.0,0.0,0.0,3.8165,3.8768,3.8843,3.9019,0.0,0.0,3.9597,3.9572,3.9597,3.9572,3.9572,0.0,0.0,0.0,0.0,0.0,0.0,0.0,0.0,0.0,0.0,0.0,0.0,0.0,0.0,0.0,0.0,0.0,0.0,0.0,0.0,0.0,0.0,0.0,0.0,0.0,0.0,0.0,0.0,0.0,0.0,0.0,0.0,0.0,0.0,0.0,0.0,0.0,0.0,0.0,0.0,0.0,0.0,0.0,0.0,0.0,0.0,0.0,0.0,0.0,0.0,0.0,0.0,0.0,4.1781,4.2822,4.302,4.328,4.3604,4.3505,4.3511,4.3682,4.3203,4.3012,0.0,0.0,0.0,0.0,0.0,0.0,0.0,0.0,0.0,0.0,0.0,0.0,0.0,0.0,0.0,0.0,0.0,0.0,0.0,0.0,0.0,0.0,0.0,0.0,0.0,0.0,0.0,0.0,3.7688,3.7914,3.8517,0.0,0.0,0.0,0.0,0.0,0.0,0.0,0.0,0.0,0.0,3.8768,3.9321,3.9371,0.0,0.0,4.0199,4.0299,4.0625,4.0675,4.0549,4.0249,4.0023,0.0,0.0,0.0,0.0,0.0,0.0,0.0,0.0,0.0,0.0,0.0,0.0,0.0,0.0,0.0,0.0,0.0,0.0,0.0,0.0,0.0,0.0,0.0,0.0,0.0,0.0,0.0,0.0,0.0,0.0,0.0,0.0,0.0,0.0,0.0,0.0,0.0,0.0,0.0,0.0,0.0,0.0,0.0,0.0,0.0,0.0,0.0,0.0,0.0,0.0,0.0,0.0,4.3047,4.4508,4.4826,4.5139,4.5555,4.5459,4.5449,4.5616,4.5151,4.479,0.0,0.0,0.0,0.0,0.0,0.0,0.0,0.0,0.0,0.0,0.0,0.0,0.0,0.0,0.0,0.0,0.0,0.0,0.0,0.0,0.0,0.0,0.0,0.0,0.0,0.0,0.0,0.0,3.8417,3.8668,3.9095,0.0,0.0,0.0,0.0,0.0,0.0,0.0,0.0,0.0,0.0,3.9828,4.0359,4.0435,4.0586,4.0939,4.0937,4.1035,4.1386,4.1462,4.1311,4.0959,0.0,0.0,0.0,0.0,0.0,0.0,0.0,0.0,0.0,0.0,0.0,0.0,0.0,0.0,0.0,0.0,0.0,0.0,0.0,0.0,0.0,0.0,0.0,0.0,0.0,0.0,0.0,0.0,0.0,0.0,4.0542,0.0,0.0,0.0,0.0,0.0,0.0,0.0,0.0,0.0,0.0,0.0,0.0,0.0,0.0,0.0,0.0,0.0,0.0,0.0,0.0,0.0,0.0,4.4606,4.6223,4.651,4.6655,4.6707,4.7133,4.7342,4.7365,4.7577,4.7311,4.6477,0.0,0.0,0.0,0.0,0.0,0.0,0.0,0.0,0.0,0.0,0.0,0.0,0.0,0.0,0.0,0.0,0.0,0.0,0.0,0.0,0.0,0.0,0.0,0.0,0.0,0.0,3.8869,3.9346,3.9647,0.0,0.0,0.0,0.0,0.0,0.0,0.0,0.0,0.0,0.0,4.1363,4.1543,4.2029,4.2131,4.2132,4.2157,4.1944,4.1809,4.1835,4.1835,4.1809,0.0,0.0,0.0,0.0,0.0,0.0,0.0,0.0,0.0,0.0,0.0,0.0,0.0,0.0,0.0,0.0,0.0,0.0,0.0,0.0,0.0,0.0,0.0,0.0,0.0,0.0,0.0,4.316,4.3135,0.0,0.0,0.0,0.0,0.0,0.0,0.0,0.0,0.0,0.0,0.0,4.6223,4.6223,0.0,0.0,0.0,0.0,0.0,0.0,0.0,0.0,0.0,0.0,0.0,0.0,4.6393,4.7648,4.8105,4.8494,4.8929,4.8833,4.8817,4.8817,4.85,4.8131,4.7619,0.0,0.0,0.0,0.0,0.0,0.0,0.0,0.0,0.0,0.0,0.0,0.0,0.0,0.0,0.0,0.0,0.0,0.0,0.0,0.0,0.0,0.0,0.0,0.0,0.0,3.9718,0.0,0.0,0.0,0.0,0.0,0.0,0.0,0.0,0.0,0.0,0.0,4.1847,4.245,4.2838,4.302,4.284,4.2945,4.3101,0.0,0.0,0.0,0.0,0.0,0.0,0.0,0.0,0.0,0.0,0.0,0.0,0.0,0.0,4.3216,4.2098,4.1764,4.1688,4.184,0.0,0.0,0.0,0.0,0.0,0.0,0.0,0.0,0.0,0.0,0.0,0.0,0.0,0.0,4.4861,0.0,4.4585,0.0,0.0,0.0,0.0,0.0,0.0,0.0,0.0,4.7276,4.7633,4.793,4.793,4.8254,0.0,4.889,4.832,0.0,0.0,0.0,0.0,0.0,0.0,0.0,0.0,4.8014,4.9083,4.9725,5.0258,5.0669,5.0526,5.0461,5.0431,4.9601,4.9034,4.8803,4.7972,4.7253,0.0,0.0,0.0,0.0,0.0,0.0,0.0,0.0,0.0,0.0,0.0,0.0,0.0,0.0,0.0,0.0,0.0,0.0,0.0,0.0,0.0,0.0,0.0,4.0903,0.0,0.0,0.0,0.0,0.0,0.0,0.0,0.0,0.0,4.3288,4.3439,4.3755,4.4192,4.4553,4.479,4.4859,0.0,0.0,0.0,0.0,0.0,0.0,0.0,4.5474,4.513,4.497,4.4758,4.4203,4.4546,4.497,4.505,0.0,0.0,4.3408,4.2912,4.2835,4.3015,4.2938,4.2861,4.3041,4.3248,4.348,0.0,0.0,0.0,0.0,0.0,0.0,0.0,0.0,4.6241,4.6143,0.0,4.5872,0.0,0.0,0.0,0.0,0.0,4.8214,0.0,0.0,4.8272,4.8775,4.9551,4.9581,4.9905,5.0525,5.0583,5.056,5.0458,4.8685,0.0,0.0,0.0,0.0,0.0,0.0,4.9424,5.053,5.1332,5.1832,5.1862,5.2103,5.2217,5.2187,5.0936,5.0163,4.9978,4.9301,4.8571,4.7905,4.7195,0.0,0.0,0.0,0.0,0.0,0.0,0.0,0.0,0.0,0.0,0.0,0.0,0.0,0.0,0.0,0.0,0.0,0.0,0.0,0.0,4.1648,0.0,0.0,0.0,0.0,0.0,0.0,0.0,0.0,0.0,0.0,4.5445,4.5517,4.5835,4.6422,0.0,0.0,0.0,0.0,4.8497,4.9023,4.8678,4.8328,4.8328,4.7811,4.7403,4.7376,0.0,0.0,4.6219,4.6561,4.7014,4.7321,4.7616,4.7213,4.5285,4.4517,4.428,4.4725,4.449,4.4253,4.4724,4.5303,4.5644,5.1531,0.0,0.0,0.0,0.0,5.014,5.0083,5.0083,5.0004,4.9979,4.9925,4.9416,0.0,0.0,0.0,0.0,0.0,0.0,5.1273,5.1335,5.1155,5.1208,5.1458,5.1435,5.1524,5.1733,5.218,5.2321,5.2126,5.1577,5.0588,4.9146,0.0,0.0,0.0,0.0,5.0614,5.1385,5.1887,5.2306,5.2808,5.2881,5.2929,5.2929,5.2097,5.1601,5.1523,5.0292,4.9512,4.9303,4.833,0.0,0.0,0.0,0.0,0.0,0.0,0.0,0.0,0.0,0.0,0.0,0.0,0.0,0.0,0.0,0.0,0.0,0.0,0.0,4.4868,4.4896,4.4857,0.0,0.0,0.0,0.0,0.0,0.0,0.0,0.0,0.0,4.9309,4.869,4.8361,0.0,0.0,5.0077,5.006,5.022,5.0251,5.0086,4.9904,0.0,4.9536,4.9501,4.9518,4.9518,4.943,4.9292,4.9162,4.9111,4.9088,4.9231,4.9284,4.9149,4.8613,4.7702,4.7136,4.7216,4.7136,4.7082,4.7216,4.7432,4.7539,5.3322,5.3195,5.2293,5.1909,5.1909,5.1938,5.1909,5.1938,5.1909,5.1909,5.1909,5.1553,5.1378,5.1349,5.1067,0.0,0.0,0.0,5.2807,5.2954,5.2683,5.2606,5.2576,5.2576,5.2606,5.2606,5.2995,5.3125,5.296,5.293,5.2397,5.1364,0.0,0.0,5.1335,5.1595,5.1947,5.2358,5.2778,5.3174,5.3593,5.3618,5.3468,5.3198,5.2809,5.2606,5.2576,5.1446,5.0738,5.0644,4.9527,4.8563,0.0,0.0,0.0,0.0,0.0,0.0,0.0,0.0,0.0,0.0,0.0,4.2777,0.0,0.0,0.0,0.0,4.4857,4.5918,4.7033,4.6847,0.0,0.0,0.0,0.0,0.0,0.0,0.0,4.8866,5.0021,5.0993,5.167,5.1459,5.1153,5.0871,5.1449,5.1899,5.1827,0.0,5.202,5.1972,5.1845,5.1715,5.1561,5.1463,5.1334,5.1075,5.1046,5.0995,5.0866,5.0818,5.0904,5.1132,5.1189,5.1275,5.1507,5.0902,4.9985,4.9167,4.8977,4.8977,4.9003,4.9142,4.9334,5.467,5.5064,5.3396,5.2668,5.2634,5.2634,5.2634,5.2609,5.2609,5.2634,5.2609,5.2575,5.2491,5.2487,5.2768,0.0,5.2951,5.3226,5.3378,5.3348,5.3318,5.3288,5.3288,5.3288,5.3288,5.3288,5.3348,5.3378,5.3378,5.3378,5.3348,5.3354,5.3109,5.3074,5.3174,5.3198,5.3228,5.3288,5.3892,5.4227,5.4281,5.4281,5.3982,5.3408,5.3318,5.3288,5.3258,5.2636,5.2157,5.1886,5.0757,4.995,4.9628,0.0,0.0,0.0,0.0,0.0,0.0,0.0,0.0,0.0,0.0,0.0,0.0,0.0,0.0,0.0,4.6918,0.0,4.8033,4.8062,0.0,0.0,0.0,4.7975,4.8668,4.9412,5.0237,5.1126,0.0,0.0,5.2896,5.3714,5.3868,5.2773,5.2634,5.2871,5.3466,5.3499,5.3706,5.413,5.4097,5.3916,5.3721,5.3363,5.2942,5.2465,5.223,5.2193,5.1995,5.2067,5.2448,5.2924,5.3092,5.3213,5.3828,5.3544,5.2888,5.0802,5.0368,5.0313,5.0398,5.0738,5.1104,5.5508,5.5209,5.5287,5.5027,5.4525,5.4525,5.4525,5.455,5.4525,5.4525,5.4495,5.3963,5.3481,5.3033,5.362,5.3853,5.3883,5.4491,5.4725,5.467,5.4192,5.3982,5.3952,5.3982,5.3952,5.4012,5.4486,5.473,5.4725,5.47,5.473,5.47,5.465,5.4142,5.3228,5.3198,5.3443,5.3952,5.4132,5.4461,5.494,5.497,5.488,5.4725,5.4221,5.3982,5.3952,5.3348,5.294,5.2862,5.2085,5.1339,5.0597,5.0084,0.0,0.0,0.0,0.0,0.0,0.0,0.0,0.0,0.0,4.6443,4.6956,0.0,4.7304,0.0,4.8454,4.9369,5.0317,5.007,0.0,0.0,5.0616,5.0784,5.1375,5.1655,5.1925,5.2349,5.309,5.3655,5.3828,5.4501,5.4885,5.458,5.4525,5.4584,5.4763,5.4793,5.4747,5.4722,5.4679,5.4491,5.4311,5.4347,5.4404,5.4428,5.4247,5.4124,5.4044,5.3887,5.3814,5.3961,5.3965,5.4024,5.42,5.4149,5.3987,5.338,5.2958,5.2644,5.2672,5.2788,5.2876,5.6376,5.6077,5.6462,5.6402,5.5987,5.5418,5.5234,5.5234,5.5234,5.5234,5.5179,5.482,5.4431,5.4127,5.4461,5.464,5.467,5.5029,5.5234,5.5204,5.482,5.464,5.464,5.464,5.464,5.467,5.5029,5.5234,5.5234,5.5234,5.5234,5.5234,5.5234,5.4845,5.4127,5.4072,5.4251,5.464,5.464,5.482,5.5179,5.5234,5.5234,5.5179,5.485,5.464,5.464,5.3982,5.3653,5.3623,5.2995,5.2438,5.1959,5.1697,5.1022,0.0,0.0,0.0,0.0,0.0,0.0,0.0,0.0,0.0,0.0,0.0,4.8917,4.974,5.036,5.1095,5.2013,5.1834,5.1886,5.2364,5.2321,5.2372,5.2728,5.3025,5.3253,5.3407,5.4022,5.449,5.4615,5.5209,5.5653,5.5653,5.5867,5.5927,5.5713,5.5653,5.5667,5.5781,5.5815,5.5764,5.5549,5.5708,5.5867,5.6021,5.5918,5.5815,5.5815,5.5682,5.5549,5.5549,5.5549,5.5549,5.5549,5.5549,5.5549,5.5497,5.5289,5.4943,5.4416,5.4305,5.4364,5.7184,5.7094,5.7184,5.7154,5.7004,5.5897,5.5418,5.5448,5.5418,5.5474,5.5448,5.5418,5.5448,5.5418,5.5448,5.5418,5.5448,5.5418,5.5448,5.5418,5.5418,5.5448,5.5448,5.5418,5.5448,5.5418,5.5418,5.5448,5.5448,5.5448,5.5444,5.5418,5.5418,5.5448,5.5418,5.5418,5.5359,5.5234,5.5234,5.5234,5.5234,5.5234,5.5234,5.5234,5.5234,5.5234,5.5204,5.464,5.4341,5.4286,5.3683,5.3348,5.3318,5.3258,5.269,0.0,5.1468,0.0,0.0,0.0,0.0,0.0,0.0,0.0,0.0,4.9668,5.0514,5.1862,5.2192,5.2576,5.3139,5.3198,5.3258,5.3318,5.3348,5.3348,5.3468,5.4042,5.4461,5.4461,5.5029,5.5448,5.5478,5.5983,5.6312,5.6342,5.6675,5.6825,5.6551,5.6372,5.6466,5.706,5.7094,5.6892,5.6922,5.7008,5.7034,5.7064,5.7004,5.7094,5.7008,5.7008,5.7038,5.7038,5.6978,5.7008,5.7094,5.7038,5.7038,5.6952,5.6896,5.659,5.5808,5.5529,5.5736,5.7603,5.7154,5.7693,5.7603,5.7064,5.6825,5.6735,5.6735,5.6735,5.6735,5.6735,5.6735,5.6761,5.6735,5.6735,5.6735,5.6735,5.6735,5.6735,5.6735,5.6735,5.6735,5.6735,5.6735,5.6735,5.6735,5.6735,5.6735,5.6735,5.6735,5.6735,5.6735,5.6735,5.6735,5.6735,0.0,0.0,0.0,5.5234,5.5234,5.5234,5.5234,5.5234,5.5234,5.5234,0.0,5.5179,5.5059,5.4999,5.497,5.4371,0.0,0.0,0.0,0.0,0.0,0.0,0.0,0.0,0.0,0.0,0.0,5.2503,5.233,5.2336,5.2425,5.2604,5.2892,5.297,5.3079,5.3198,5.3198,5.3414,5.3952,5.4012,5.4221,5.476,5.5414,5.5833,5.5833,5.6372,5.6735,5.6705,5.6855,5.6915,5.6915,5.7034,5.7274,5.7666,5.7274,5.7004,5.7094,5.7214,5.7124,5.7094,5.7154,5.7214,5.7094,5.7094,5.7124,5.7184,5.7154,5.7124,5.7154,5.7094,5.7124,5.7124,5.7094,5.7184,5.7124,5.7124,5.7038,5.6814,5.6758,5.6788,5.9189,0.0,5.8919,5.871,0.0,5.8082,5.8082,5.8052,5.7363,5.7094,5.7094,5.7094,5.7094,5.7094,5.7094,5.7094,5.7094,5.7094,5.7094,5.7094,5.7094,5.7094,5.7094,5.7094,5.7094,5.7094,5.7094,5.7094,5.7094,5.7094,5.7094,5.7094,5.7094,5.7094,5.7094,5.7094,5.6795,5.6137,5.6137,5.6162,5.6137,5.6162,5.6137,5.6137,5.6137,0.0,0.0,0.0,0.0,0.0,0.0,0.0,0.0,5.4875,0.0,5.3743,5.3683,5.3533,5.3228,5.3198,5.3348,5.3683,5.4281,5.4246,5.3288,5.3198,5.3348,5.3653,5.3683,5.3832,5.4156,5.4486,5.4815,5.5149,5.5448,5.5777,5.6107,5.6462,5.6615,5.6671,5.6911,5.7094,5.7094,5.7423,5.7573,5.7633,5.7902,5.8201,5.8471,5.8022,5.7693,5.8022,5.8082,5.8082,5.8082,5.8082,5.8082,5.8082,5.8082,5.8082,5.8082,5.8082,5.8082,5.8082,5.8082,5.8082,5.8082,5.8082,5.8082,5.8082,5.8082,5.8231,5.8441,5.8052,5.7723,6.0775,6.0266,6.0266,5.9967,5.9458,5.9458,5.9458,5.9368,0.0,0.0,0.0,5.7453,5.7453,5.7479,5.7453,5.7453,5.7453,5.7453,5.7453,5.7453,5.7453,5.7513,5.7659,5.7633,5.7693,5.7812,5.7812,5.7812,5.7812,5.7812,5.7812,5.7812,5.7812,5.7782,5.7812,5.7812,5.7812,5.7782,5.7334,5.7094,5.7094,5.7094,5.7094,5.7094,5.7094,5.7094,5.7094,5.7094,5.7094,5.7094,5.7094,5.6855,5.6402,5.6372,5.5863,5.482,5.473,5.4491,5.3947,5.3887,5.4102,5.467,5.5718,5.5653,5.4007,5.3887,5.4102,5.467,5.47,5.497,5.5478,5.6013,5.6372,5.6372,5.6795,5.7064,5.7094,5.7214,5.7274,5.7274,5.7423,5.7513,5.7693,5.8171,5.8534,5.8683,5.9159,5.9458,5.9368,5.8949,5.868,5.9129,5.9338,5.9458,5.9458,5.9458,5.9458,5.9458,5.9458,5.9458,5.9458,5.9458,5.9458,5.9458,5.9458,5.9431,5.9458,5.9458,5.9458,5.9458,5.9458,5.9608,6.0027,5.9428,5.8863,6.1074,6.0926,6.0984,6.0924,6.0807,6.0835,6.0807,6.0715,5.9398,5.883,5.883,5.883,5.883,5.883,5.883,5.883,5.883,5.88,5.883,5.883,5.883,5.9129,5.9668,5.9668,5.9967,6.0505,6.0535,6.0508,6.0535,6.0535,6.0508,6.0478,6.0565,6.0478,6.0538,6.0508,6.0508,6.0478,5.8261,5.7094,5.7094,5.7094,5.7094,5.7094,5.7124,5.7094,5.7094,5.7124,5.7094,5.7094,5.7094,5.7034,5.6974,5.6974,5.6885,5.6705,5.6675,5.6645,5.6555,5.6555,5.6585,5.6675,5.6855,5.6825,5.6585,5.6581,5.6585,5.6675,5.6615,5.6705,5.6825,5.6885,5.6974,5.6974,5.7034,5.7124,5.7214,5.7693,5.8025,5.8082,5.8474,5.9039,5.9458,5.9697,5.9967,6.0505,6.0508,6.0717,6.0567,6.0236,5.9877,5.9997,6.0475,6.0747,6.0657,6.0777,6.0715,6.0835,6.0717,6.0657,6.0627,6.0655,6.0655,6.0775,6.0657,6.0687,6.0745,6.0835,6.0715,6.0685,6.0627,6.0775,6.0924,6.0745,6.0657,6.1972,6.1642,6.1642,6.1433,6.1076,6.1076,6.1076,6.1046,6.0475,6.0206,6.0179,6.0206,6.0176,6.0206,6.0206,6.0206,6.0206,6.0206,6.0179,6.0179,6.0179,6.0356,6.0625,6.0655,6.0805,6.1076,6.1076,6.1076,6.1076,6.1076,6.1076,6.1076,6.1076,6.1076,6.1076,6.1076,6.1076,6.1076,5.9907,5.9279,5.9249,5.8919,5.871,5.871,5.8381,5.8201,5.8201,5.8171,5.8171,5.8201,5.8201,5.8022,5.7663,5.7663,5.7483,5.7124,5.7094,5.7094,5.7094,5.7094,5.7274,5.7603,5.7636,5.7812,5.8171,5.7513,5.7094,5.7094,5.7094,5.7094,5.7124,5.7423,5.7636,5.7663,5.7962,5.8321,5.868,5.8979,5.9338,5.967,5.9969,6.0296,6.0595,6.0625,6.0715,6.1046,6.1076,6.1106,6.1136,6.1194,6.1044,6.0745,6.0924,6.1046,6.1106,6.1076,6.1076,6.1076,6.1076,6.1076,6.1076,6.1106,6.1106,6.1076,6.1106,6.1076,6.1106,6.1076,6.1076,6.1076,6.1076,6.1194,6.1523,6.1912,6.1912,6.3459,6.2979,6.2979,6.2678,6.2228,6.2228,6.214,6.199,6.2018,6.19,6.1691,6.131,6.1076,6.1076,6.1076,6.1076,6.1076,6.1076,6.1076,6.1076,6.1076,6.1166,6.1343,6.1315,6.1403,6.1553,6.1553,6.1553,6.1553,6.1553,6.1553,6.1553,6.1553,6.1553,6.1553,6.1553,6.1553,6.1553,6.1553,6.1405,6.1076,6.0595,6.0296,6.0296,5.9817,5.9548,5.9548,5.9548,5.9548,5.9548,5.9548,5.9281,5.8803,5.8773,5.8534,5.8082,5.7992,5.7992,5.7992,5.7992,5.8231,5.8713,5.8773,5.8982,5.9398,5.862,5.7932,5.7812,5.8022,5.8082,5.8201,5.8504,5.8773,5.8803,5.9221,5.9727,6.0206,6.0326,6.0505,6.1014,6.1076,6.1106,6.1285,6.1315,6.1433,6.1583,6.1553,6.1553,6.1613,6.2032,6.2061,6.1912,6.1672,6.1642,6.1553,6.1613,6.1613,6.1553,6.1613,6.1672,6.1672,6.1613,6.1583,6.1642,6.1642,6.1672,6.1613,6.1613,6.1642,6.1702,6.1732,6.1852,6.245,6.3079,6.3049,6.5665,6.5635,6.5574,6.5605,6.5453,6.5483,6.5119,6.4605,6.4634,6.43,6.3579,6.1896,6.1194,6.1076,6.1164,6.1194,6.1166,6.1106,6.1136,6.1136,6.1076,6.1433,6.2002,6.2032,6.2331,6.2839,6.2928,6.2899,6.2928,6.2899,6.2928,6.2928,6.2928,6.2928,6.2899,6.2928,6.2928,6.2928,6.2928,6.2301,6.1166,6.1016,6.1014,6.1014,6.0954,6.0924,6.0837,6.0896,6.0924,6.0924,6.0867,6.0894,6.0777,6.0777,6.0775,6.0657,6.0657,6.0745,6.0687,6.0745,6.0657,6.0807,6.0717,6.0717,6.0864,6.0747,6.0475,5.9997,6.0356,6.0478,6.0717,6.0657,6.0597,6.0538,6.0687,6.0926,6.1014,6.1014,6.1044,6.1076,6.1253,6.1315,6.1912,6.2061,6.2301,6.2839,6.2899,6.2899,6.2928,6.3018,6.3257,6.3438,6.3258,6.2929,6.2928,6.2928,6.2899,6.2928,6.2928,6.2899,6.2899,6.2899,6.2928,6.2899,6.2899,6.2899,6.2928,6.2928,6.2928,6.2899,6.2929,6.3079,6.3707,6.4276,6.4097,6.6342,6.6514,6.6545,6.6514,6.6545,6.6545,6.6277,6.583,6.583,6.5562,6.5116,6.4312,6.3478,6.2557,6.2527,6.2442,6.2299,6.2271,6.2271,6.2271,6.2271,6.26,6.3169,6.3228,6.3588,6.4186,6.4216,6.4246,6.4246,6.4246,6.4216,6.4246,6.4246,6.4216,6.4216,6.4246,6.4187,6.4246,6.4246,6.3947,6.3348,6.2301,6.1702,6.1642,6.1313,6.1076,6.1076,6.1076,6.1076,6.1076,6.1076,6.1076,6.1076,6.1076,6.1076,6.1076,6.1076,6.1076,6.1076,6.1076,6.1076,6.1076,6.1076,6.1076,6.1106,6.1463,6.1553,6.1343,6.1194,6.1076,6.1106,6.1106,6.1076,6.1076,6.1076,6.1283,6.1672,6.1702,6.1822,6.2181,6.2271,6.2361,6.2689,6.2989,6.3498,6.4066,6.4216,6.4156,6.4216,6.4246,6.4336,6.4515,6.4366,6.4246,6.4186,6.4216,6.4216,6.4216,6.4216,6.4216,6.4186,6.4216,6.4216,6.4157,6.4126,6.4126,6.4216,6.4216,6.4246,6.4156,6.4216,6.4336,6.4545,6.4815,6.4665,6.7498,6.7669,6.7698,6.7698,6.7698,6.7698,6.7432,6.7077,6.7047,6.6871,6.6516,6.6487,6.5796,6.4629,6.4309,6.4081,6.3908,6.3908,6.3908,6.3908,6.3908,6.4148,6.451,6.4452,6.4663,6.5053,6.5024,6.4994,6.4994,6.4994,6.4994,6.4994,6.4994,6.4994,6.4994,6.4994,6.4994,6.4994,6.4994,6.4994,6.4785,6.3647,6.2899,6.2839,6.2241,6.1883,6.1882,6.1732,6.1642,6.1672,6.1642,6.1642,6.1642,6.1642,6.1642,6.1642,6.1642,6.1642,6.1642,6.1642,6.1642,6.1642,6.1792,6.1912,6.2002,6.251,6.2869,6.2899,6.245,6.2153,6.1672,6.1642,6.1702,6.1852,6.1912,6.2181,6.2839,6.2899,6.3109,6.3528,6.3617,6.3617,6.3677,6.4006,6.4455,6.4815,6.4934,6.4994,6.4994,6.4964,6.5024,6.5233,6.5263,6.5174,6.5054,6.4904,6.4994,6.4994,6.4904,6.4874,6.4994,6.4994,6.4964,6.4635,6.4904,6.4964,6.4755,6.4845,6.5024,6.5054,6.5114,6.5203,6.5263,6.5383,6.5532,6.9667,6.9665,6.9665,6.9631,6.9665,6.9662,6.929,6.8698,6.8698,6.8355,6.78,6.7797,6.7564,6.7164,6.6367,6.5904,6.5816,6.5755,6.5696,6.5696,6.5756,6.5846,6.5878,6.5584,6.5468,6.5619,6.5442,6.5203,6.5114,6.5084,6.4994,6.5054,6.5114,6.5054,6.5114,6.5144,6.5024,6.5144,6.5144,6.5084,6.5054,6.4934,6.4815,6.4755,6.4186,6.3767,6.3767,6.3288,6.3018,6.3018,6.3018,6.3018,6.3018,6.2989,6.2989,6.3018,6.2989,6.3018,6.3018,6.3018,6.2989,6.3049,6.3438,6.3827,6.3737,6.4216,6.4575,6.4785,6.4545,6.4126,6.3199,6.2989,6.3199,6.3677,6.3797,6.4096,6.4695,6.4545,6.4845,6.4815,6.4725,6.4725,6.4845,6.4934,6.4994,6.5114,6.5084,6.5114,6.5203,6.5114,6.5413,6.5802,6.5922,6.5742,6.5174,6.5323,6.5233,6.5263,6.5443,6.5174,6.5054,6.4994,6.5054,6.5114,6.5263,6.5293,6.5084,6.5084,6.5203,6.5353,6.5772,6.5892,6.5951,6.652,6.661,7.0782,7.0949,7.0949,7.0949,7.0949,7.0949,7.0739,7.035,7.0319,7.0081,6.9692,6.9661,6.9605,6.9493,6.8956,6.7833,6.6374,6.6255,6.617,6.6026,6.6026,6.6238,6.6604,6.6515,6.6699,6.7032,6.6973,6.6793,6.6613,6.6613,6.6492,6.6311,6.6281,6.6281,6.6281,6.6281,6.6281,6.6281,6.6281,6.6281,6.6251,6.6281,6.6281,6.6221,6.5203,6.4635,6.4635,6.4425,6.4306,6.4306,6.4336,6.4336,6.4336,6.4306,6.4306,6.4336,6.4336,6.4336,6.4336,6.4336,6.4336,6.4336,6.4515,6.4635,6.4665,6.4845,6.4994,6.5024,6.5024,6.4695,6.4486,6.4306,6.4395,6.4575,6.4635,6.4725,6.4934,6.4994,6.4994,6.4994,6.4994,6.5144,6.5562,6.5622,6.5832,6.6191,6.6281,6.6221,6.6251,6.6281,6.6311,6.655,6.664,6.658,6.637,6.6311,6.6311,6.6311,6.634,6.6311,6.6221,6.6131,6.6191,6.6101,6.6071,6.6071,6.6011,6.6041,6.6041,6.6161,6.649,6.643,6.664,6.6849,6.6939,7.1726,7.1889,7.1884,7.1889,7.1916,7.1889,7.1807,7.1644,7.1616,7.1475,7.131,7.1282,7.1222,7.1084,7.0917,6.986,6.7993,6.7676,6.7389,6.7246,6.7246,6.7462,6.783,6.7803,6.7959,6.8207,6.809,6.788,6.7699,6.7669,6.7487,6.7152,6.7152,6.7091,6.7029,6.6999,6.6999,6.6999,6.6999,6.6969,6.6999,6.6999,6.6999,6.6879,6.6131,6.5532,6.5323,6.5114,6.4994,6.4994,6.4994,6.4994,6.4994,6.4994,6.4994,6.4994,6.4994,6.4994,6.4994,6.4994,6.4994,6.5024,6.5203,6.5323,6.5323,6.5503,6.5652,6.5652,6.5652,6.5652,6.5622,6.5622,6.5562,6.5383,6.5323,6.5443,6.5622,6.5682,6.5682,6.5742,6.5742,6.5922,6.6221,6.6311,6.652,6.6969,6.6999,6.6999,6.6999,6.6999,6.6999,6.6999,6.6939,6.6939,6.6789,6.6729,6.6729,6.6759,6.6729,6.6909,6.6999,6.6999,6.6999,6.6999,6.6999,6.6999,6.6999,6.6999,6.6999,6.6999,6.6909,6.6789,6.6879,6.6939,6.6999,7.2535,7.2529,7.2503,7.2556,7.2556,7.2582,7.2535,7.2508,7.2508,7.2449,7.2369,7.2455,7.2262,7.2041,7.1933,7.1602,7.0902,7.008,6.9626,6.9514,6.9574,6.9574,6.9607,6.9408,6.9147,6.8919,6.8328,6.806,6.806,6.803,6.788,6.7548,6.7517,6.7365,6.7029,6.706,6.7029,6.6999,6.6999,6.6999,6.6999,6.6999,6.6999,6.6999,6.6879,6.658,6.6011,6.5443,6.5174,6.5144,6.5144,6.5054,6.5174,6.5174,6.5084,6.5174,6.5114,6.5084,6.5084,6.5144,6.5233,6.5263,6.5682,6.6011,6.6071,6.649,6.6789,6.6759,6.6789,6.6849,6.6819,6.6789,6.658,6.6131,6.6011,6.6251,6.67,6.6909,6.6939,6.6849,6.6789,6.6939,6.6969,6.6879,6.6909,6.6969,6.6999,6.6999,6.6999,6.6999,6.6999,6.6999,6.6999,6.6999,6.6999,6.6969,6.6969,6.6969,6.6939,6.6999,6.6999,6.6999,6.6999,6.6999,6.6999,6.6999,6.6999,6.6999,6.6999,6.6999,6.6999,6.6999,6.6999,6.6999,6.6999,7.3595,7.3595,7.3595,7.3595,7.3595,7.3595,7.3525,7.3344,7.3318,7.324,7.3083,7.3057,7.3005,7.2867,7.2709,7.2523,7.2342,7.1825,7.1222,7.0585,7.0441,7.0444,7.0444,7.0331,7.0132,6.9847,6.9412,6.9006,6.8683,6.8624,6.8388,6.794,6.785,6.7669,6.7365,6.7365,6.7274,6.7029,6.6999,6.6999,6.6999,6.6999,6.6999,6.6999,6.6999,6.6879,6.667,6.649,6.64,6.634,6.637,6.637,6.637,6.637,6.637,6.637,6.637,6.637,6.637,6.634,6.6341,6.64,6.655,6.667,6.667,6.688,6.7029,6.6999,6.6999,6.6999,6.6999,6.6999,6.6879,6.67,6.67,6.67,6.6909,6.6999,6.6999,6.6999,6.6999,6.6999,6.6999,6.6999,6.6999,6.6999,6.6999,6.6999,6.6999,6.6999,6.6999,6.6999,6.6999,6.6999,6.6999,6.6999,6.6999,6.6999,6.6999,6.6999,6.6999,6.6999,6.6999,6.6999,6.6999,6.6999,6.6999,6.6999,6.6999,6.6999,6.6999,6.6999,6.6999,6.6999,6.6999,7.4431,7.4464,7.4406,7.4439,7.4439,7.4439,7.4364,7.4188,7.4188,7.4087,7.396,7.3935,7.3826,7.3723,7.3569,7.3363,7.3181,7.3031,7.247,7.1716,7.1415,7.1392,7.1337,7.1112,7.0893,7.0585,7.0189,6.9818,6.9443,6.9298,6.8919,6.8417,6.8328,6.812,6.7729,6.7699,6.7578,6.7396,6.7396,6.7365,6.7396,6.7396,6.7365,6.7396,6.7365,6.7365,6.7365,6.7396,6.7274,6.7243,6.7304,6.7365,6.7396,6.7366,6.7335,6.7365,6.7396,6.7366,6.7396,6.7336,6.7365,6.7396,6.7365,6.7365,6.7365,6.7304,6.7182,6.7182,6.7091,6.6999,6.6999,6.6999,6.6999,6.6999,6.6969,6.6999,6.6999,6.6999,6.6999,6.6999,6.6999,6.6999,6.6999,6.6999,6.6999,6.6999,6.6999,6.6999,6.6999,6.6999,6.6999,6.6999,6.6999,6.6999,6.6999,6.6999,6.6999,6.6999,6.6999,6.6999,6.6999,6.6999,6.6999,6.6999,6.6999,6.6999,6.6999,6.6999,6.6999,6.6999,6.6999,6.6999,6.6999,6.6999,6.6999,7.5042,7.5042,7.5042,7.5042,7.5042,7.5042,7.4993,7.4993,7.4968,7.4944,7.4919,7.4845,7.4738,7.4564,7.4414,7.4213,7.3859,7.3807,7.3654,7.3292,7.2926,7.2635,7.2396,7.1933,7.158,7.131,7.0754,7.0444,7.0331,7.0018,6.9588,6.9094,6.8977,6.8683,6.8269,6.809,6.806,6.8,6.797,6.794,6.794,6.794,6.794,6.794,6.794,6.794,6.797,6.806,6.791,6.7638,6.7789,6.791,6.797,6.8,6.794,6.791,6.797,6.794,6.797,6.788,6.791,6.791,6.791,6.8,6.788,6.7669,6.7517,6.7517,6.7304,6.7121,6.7091,6.7091,6.706,6.6999,6.6999,6.6999,6.6999,6.6999,6.6999,6.6999,6.6999,6.6999,6.6999,6.6999,6.6999,6.6999,6.6999,6.6999,6.6999,6.6999,6.6999,6.6999,6.6999,6.6999,6.6999,6.6999,6.6999,6.6999,6.6999,6.6999,6.6999,6.6999,6.6999,6.6999,6.6999,6.6999,6.6999,6.6999,6.6999,6.6999,6.6999,6.6999,6.6999,6.6999,6.6999,7.5518,7.5518,7.5518,7.5518,7.5518,7.5518,7.5398,7.5228,7.5204,7.5131,7.5042,7.5027,7.4993,7.4861,7.4895,7.4796,7.4639,7.4614,7.4614,7.4539,7.4414,7.3833,7.3188,7.2735,7.2497,7.2369,7.1798,7.1443,7.1222,7.0722,7.0303,6.9933,6.9703,6.9383,6.9036,6.8772,6.8535,6.8298,6.812,6.806,6.806,6.806,6.8,6.8,6.803,6.8119,6.8358,6.8772,6.8655,6.794,6.794,6.8,6.809,6.809,6.812,6.812,6.806,6.803,6.803,6.806,6.803,6.8,6.815,6.8,6.8,6.794,6.788,6.785,6.7789,6.7729,6.7699,6.7517,6.7304,6.7029,6.706,6.7029,6.6999,6.6999,6.6999,6.6999,6.6999,6.6999,6.6999,6.6999,6.6999,6.6999,6.6999,6.6999,6.6999,6.6999,6.6999,6.6999,6.6999,6.6999,6.6999,6.6999,6.6999,6.6999,6.6999,6.6999,6.6999,6.6999,6.6999,6.6999,6.6999,6.6999,6.6999,6.6999,6.6999,6.6999,6.6999,6.6999,6.6999,6.6999,6.6999,7.5676,7.5676,7.5676,7.5676,7.5676,7.5676,7.5614,7.5494,7.547,7.5422,7.5301,7.5277,7.531,7.5277,7.531,7.5237,7.5131,7.5106,7.5067,7.4993,7.4944,7.4489,7.3876,7.3518,7.3363,7.3181,7.2656,7.231,7.2068,7.1525,7.1112,7.0806,7.0529,7.0189,6.9761,6.9588,6.9327,6.9034,6.883,6.8772,6.8772,6.8772,6.8772,6.8772,6.8772,6.8889,6.924,6.9559,6.9385,6.8802,6.8683,6.8742,6.8742,6.8742,6.8772,6.8772,6.8772,6.8772,6.8772,6.8772,6.8772,6.8772,6.8772,6.8742,6.8772,6.8654,6.8596,6.8387,6.8268,6.8119,6.8,6.7819,6.7638,6.7487,6.7426,6.7304,6.706,6.6999,6.6999,6.6999,6.6999,6.6999,6.6999,6.6999,6.6999,6.6999,6.6999,6.6999,6.6999,6.6999,6.7029,6.7091,6.7091,6.7091,6.706,6.706,6.7029,6.7029,6.6999,6.6999,6.6999,6.6999,6.6999,6.6999,6.6999,6.6999,6.6999,6.6999,6.6999,6.6999,6.6999,6.6999,6.6999,6.6999,6.6999,7.5676,7.5676,7.5676,7.5676,7.5676,7.5676,7.5686,7.5709,7.5652,7.5686,7.5628,7.5652,7.5638,7.5676,7.5614,7.5566,7.5349,7.5349,7.5252,7.5189,7.5115,7.4886,7.463,7.4281,7.4054,7.3833,7.3285,7.3077,7.2867,7.2417,7.1987,7.1716,7.1475,7.1064,7.0641,7.0473,7.0246,6.999,6.9816,6.9787,6.9787,6.9787,6.9789,6.9789,6.9904,7.0018,7.0246,7.0476,7.0275,6.9703,6.9816,6.9847,6.9844,6.9873,6.9844,6.9847,6.9818,6.9847,6.9844,6.9787,6.9844,6.9816,6.9816,6.9873,6.9758,6.9617,6.9414,6.9123,6.877,6.8624,6.8329,6.8209,6.8149,6.812,6.809,6.7819,6.7396,6.7122,6.7121,6.7121,6.7121,6.7121,6.7121,6.7121,6.7152,6.7365,6.7335,6.7335,6.7335,6.7365,6.7335,6.7304,6.7274,6.7182,6.7152,6.7152,6.7091,6.7029,6.6999,6.6999,6.6999,6.6999,6.6999,6.6999,6.6999,6.6999,6.6999,6.6999,6.6999,6.6999,6.6999,6.6999,6.6999,6.6999,6.6999,7.5676,7.5676,7.5676,7.5676,7.5676,7.5676,7.5676,7.5676,7.5676,7.5676,7.5676,7.5676,7.5676,7.5676,7.5676,7.5662,7.5614,7.559,7.559,7.5566,7.5542,7.5518,7.5316,7.4984,7.4763,7.4539,7.4105,7.3851,7.3672,7.3129,7.2682,7.2603,7.2315,7.2019,7.1634,7.1388,7.1199,7.0893,7.067,7.0585,7.0585,7.0554,7.0585,7.0585,7.0782,7.0925,7.106,7.1447,7.158,7.1333,7.089,7.0638,7.0613,7.0585,7.0585,7.0554,7.0557,7.0557,7.0529,7.0554,7.0497,7.0554,7.0582,7.0529,7.0529,7.0501,7.0303,7.0047,6.9933,6.9617,6.9182,6.9125,6.8977,6.8801,6.8713,6.8654,6.8476,6.8059,6.7789,6.7759,6.7789,6.7789,6.7789,6.7729,6.7759,6.7759,6.7759,6.7789,6.7759,6.7699,6.7638,6.7578,6.7578,6.7548,6.7517,6.7457,6.7365,6.7304,6.7243,6.7213,6.7182,6.706,6.7091,6.706,6.6999,6.6999,6.6999,6.6999,6.6999,6.6999,6.6999,6.6999,6.6999,6.6999,6.6999,7.5676,7.5676,7.5676,7.5676,7.5676,7.5676,7.5676,7.5676,7.5676,7.5676,7.5676,7.5676,7.5676,7.5676,7.5676,7.5676,7.5676,7.5676,7.5676,7.5686,7.5652,7.5676,7.5652,7.547,7.5252,7.5082,7.4738,7.4539,7.4339,7.3851,7.3466,7.3415,7.311,7.2715,7.247,7.2283,7.2041,7.183,7.1639,7.1557,7.1557,7.1557,7.1557,7.1557,7.1753,7.1862,7.2014,7.223,7.247,7.247,7.2176,7.177,7.1584,7.1557,7.1529,7.1557,7.1557,7.1557,7.1557,7.1557,7.1557,7.1529,7.1557,7.1557,7.147,7.1415,7.1199,7.0977,7.0754,7.0501,7.0075,6.9847,6.9732,6.9588,6.9414,6.9414,6.9414,6.8889,6.8417,6.8417,6.8417,6.8417,6.8417,6.8387,6.8238,6.8179,6.7939,6.797,6.791,6.788,6.791,6.788,6.794,6.794,6.791,6.7819,6.7669,6.7669,6.7638,6.7638,6.7638,6.7426,6.7183,6.7121,6.706,6.6999,6.6999,6.6999,6.6999,6.6999,6.6969,6.6999,6.7029,6.706,6.7029,7.5676,7.5676,7.5676,7.5676,7.5676,7.5676,7.5676,7.5676,7.5676,7.5676,7.5676,7.5676,7.5676,7.5676,7.5676,7.5676,7.5676,7.5676,7.5676,7.5676,7.5676,7.5676,7.5652,7.5604,7.5542,7.5349,7.5106,7.5042,7.4861,7.4539,7.4206,7.4155,7.3826,7.3492,7.3233,7.3077,7.292,7.2688,7.2556,7.2529,7.2529,7.2529,7.2529,7.2529,7.2635,7.2741,7.292,7.3103,7.3259,7.3473,7.3551,7.3318,7.2979,7.2635,7.2609,7.2615,7.2529,7.2503,7.2503,7.2529,7.2556,7.2641,7.2615,7.2582,7.2503,7.231,7.2095,7.1798,7.1584,7.1282,7.0917,7.075,7.0613,7.0473,7.0246,7.0246,7.0275,6.9761,6.9501,6.924,6.924,6.9211,6.9094,6.9006,6.877,6.8564,6.8387,6.8238,6.8209,6.8268,6.8447,6.8535,6.8683,6.8595,6.8535,6.8507,6.8298,6.8059,6.8029,6.7999,6.8,6.7759,6.7487,6.7213,6.7121,6.706,6.7029,6.6999,6.6999,6.6969,6.7061,6.7182,6.7182,6.7121,6.7152,7.5676,7.5676,7.5676,7.5676,7.5676,7.5676,7.5676,7.5676,7.5676,7.5676,7.5676,7.5676,7.5676,7.5676,7.5676,7.5676,7.5676,7.5676,7.5676,7.5676,7.5676,7.5676,7.5676,7.5676,7.5662,7.559,7.5398,7.5252,7.5204,7.4984,7.4787,7.4787,7.4664,7.4464,7.4155,7.4029,7.3749,7.3551,7.337,7.3266,7.3266,7.3266,7.3266,7.3292,7.3422,7.3551,7.3679,7.3978,7.4256,7.4306,7.4564,7.4622,7.4289,7.3654,7.3292,7.324,7.3266,7.3292,7.3292,7.324,7.3188,7.3129,7.324,7.324,7.3214,7.3136,7.292,7.2656,7.2396,7.2127,7.1825,7.1689,7.158,7.1447,7.131,7.1282,7.131,7.1171,7.0862,7.0582,7.036,7.0047,6.9961,6.9818,6.9674,6.9528,6.9383,6.9296,6.9267,6.9325,6.9441,6.9499,6.9557,6.9414,6.9269,6.9182,6.9036,6.8654,6.8535,6.8387,6.8298,6.806,6.7789,6.7669,6.7366,6.7182,6.7121,6.7121,6.7121,6.7243,6.7335,6.7426,6.7457,6.7487,6.7638,7.5676,7.5676,7.5676,7.5676,7.5676,7.5676,7.5676,7.5676,7.5676,7.5676,7.5676,7.5676,7.5676,7.5676,7.5676,7.5676,7.5676,7.5676,7.5676,7.5676,7.5676,7.5676,7.5676,7.5676,7.5676,7.5662,7.5566,7.5494,7.5494,7.5252,7.5155,7.514,7.5067,7.4919,7.4763,7.4614,7.4489,7.4339,7.4213,7.4138,7.4163,7.4163,7.4163,7.4213,7.4264,7.4364,7.4414,7.4564,7.4738,7.4763,7.4919,7.4993,7.4845,7.4564,7.4163,7.4163,7.4138,7.4163,7.4163,7.4188,7.4213,7.4188,7.4163,7.4188,7.4138,7.4037,7.3723,7.3363,7.311,7.2873,7.2682,7.2576,7.239,7.2256,7.2154,7.2154,7.2235,7.2262,7.2095,7.1879,7.1415,7.1116,7.0921,7.0782,7.0585,7.0473,7.0356,7.0328,7.0328,7.0328,7.0385,7.0356,7.0385,7.0271,7.0104,7.0018,6.9847,6.9443,6.9151,6.9005,6.8889,6.8772,6.8565,6.8358,6.7999,6.7638,6.7517,6.7608,6.7548,6.7517,6.7699,6.785,6.7819,6.788,6.809,7.5676,7.5676,7.5676,7.5676,7.5676,7.5676,7.5676,7.5676,7.5676,7.5676,7.5676,7.5676,7.5676,7.5676,7.5676,7.5676,7.5676,7.5676,7.5676,7.5676,7.5676,7.5676,7.5676,7.5676,7.5676,7.5676,7.5652,7.5676,7.5628,7.5494,7.5398,7.5349,7.5237,7.514,7.5164,7.5033,7.5091,7.5067,7.4993,7.5027,7.5027,7.5027,7.5027,7.5018,7.5042,7.5042,7.4993,7.5082,7.5131,7.5131,7.5131,7.5164,7.514,7.514,7.514,7.514,7.5067,7.5027,7.4968,7.4919,7.4821,7.4796,7.4944,7.4968,7.4895,7.4589,7.4389,7.4011,7.3833,7.3654,7.3544,7.3363,7.3207,7.3103,7.2979,7.29,7.3051,7.3155,7.3207,7.2893,7.2417,7.2154,7.1965,7.1671,7.1447,7.142,7.1337,7.131,7.131,7.1222,7.1222,7.1199,7.1171,7.1084,7.0973,7.0834,7.067,7.0331,7.0132,7.0018,6.9847,6.9703,6.9443,6.9182,6.883,6.8505,6.8328,6.809,6.7969,6.7969,6.8179,6.8329,6.8477,6.8565,6.8742,7.5676,7.5676,7.5676,7.5676,7.5676,7.5676,7.5676,7.5676,7.5676,7.5676,7.5676,7.5676,7.5676,7.5676,7.5676,7.5676,7.5676,7.5676,7.5676,7.5676,7.5676,7.5676,7.5676,7.5676,7.5676,7.5676,7.5676,7.5676,7.5652,7.5662,7.5638,7.5614,7.559,7.559,7.5494,7.5349,7.5277,7.5228,7.5115,7.5018,7.5042,7.5042,7.5042,7.5091,7.5155,7.5277,7.5301,7.5422,7.5542,7.5566,7.559,7.5614,7.5638,7.5614,7.5614,7.5494,7.531,7.5027,7.5042,7.5091,7.5091,7.5091,7.5067,7.5051,7.5042,7.5018,7.4895,7.4895,7.4713,7.4539,7.4314,7.4281,7.4155,7.4003,7.3851,7.3826,7.3927,7.3876,7.3927,7.3927,7.3492,7.3181,7.2946,7.2635,7.2348,7.2348,7.2321,7.2235,7.2181,7.2127,7.2073,7.2046,7.1987,7.196,7.1852,7.1716,7.1498,7.1258,7.1092,7.0949,7.0726,7.0557,7.0303,7.0018,6.9672,6.9238,6.8889,6.8624,6.8447,6.8595,6.8889,6.9094,6.924,6.9356,6.9472,7.5676,7.5676,7.5676,7.5676,7.5676,7.5676,7.5676,7.5676,7.5676,7.5676,7.5676,7.5676,7.5676,7.5676,7.5676,7.5676,7.5676,7.5676,7.5676,7.5676,7.5676,7.5676,7.5676,7.5676,7.5676,7.5676,7.5676,7.5676,7.5676,7.5676,7.5676,7.5676,7.5676,7.5652,7.5676,7.559,7.5542,7.5518,7.5446,7.5398,7.5398,7.5373,7.5373,7.5373,7.5494,7.5518,7.5566,7.5614,7.5676,7.5676,7.5676,7.5676,7.5676,7.5709,7.5709,7.5686,7.5542,7.5422,7.5398,7.5373,7.5349,7.5373,7.5373,7.5422,7.5373,7.5286,7.5155,7.5155,7.5067,7.4944,7.4845,7.4796,7.4713,7.4639,7.4556,7.4581,7.4581,7.4614,7.4589,7.4614,7.4564,7.4231,7.3876,7.3518,7.3266,7.3162,7.3083,7.2979,7.2926,7.2841,7.2873,7.2873,7.2873,7.2847,7.2709,7.2576,7.2417,7.2208,7.1992,7.183,7.1584,7.1333,7.1144,7.0893,7.0641,7.0161,6.9559,6.9356,6.9296,6.9501,6.9703,6.9904,7.0104,7.0161,7.0275,7.5676,7.5676,7.5676,7.5676,7.5676,7.5676,7.5676,7.5676,7.5676,7.5676,7.5676,7.5676,7.5676,7.5676,7.5676,7.5676,7.5676,7.5676,7.5676,7.5676,7.5676,7.5676,7.5676,7.5676,7.5676,7.5676,7.5676,7.5676,7.5676,7.5676,7.5676,7.5676,7.5676,7.5676,7.5676,7.5652,7.5628,7.5628,7.5662,7.5628,7.5628,7.5628,7.5652,7.5652,7.5676,7.5676,7.5676,7.5676,7.5676,7.5676,7.5676,7.5676,7.5676,7.5676,7.5676,7.5676,7.5604,7.5604,7.5604,7.5638,7.5676,7.5676,7.5676,7.5638,7.5662,7.5518,7.5422,7.5422,7.5301,7.5237,7.5189,7.5189,7.5155,7.5155,7.5155,7.5155,7.5131,7.5106,7.5106,7.5131,7.5131,7.5131,7.4812,7.4406,7.4155,7.4037,7.3884,7.3731,7.3679,7.3654,7.3705,7.3756,7.3782,7.3756,7.3544,7.3415,7.3259,7.311,7.29,7.2688,7.2417,7.2203,7.2014,7.1803,7.1557,7.1337,7.0945,7.0554,7.0218,7.0388,7.0557,7.0778,7.0945,7.106,7.1144,7.5676,7.5676,7.5676,7.5676,7.5676,7.5676,7.5676,7.5676,7.5676,7.5676,7.5676,7.5676,7.5676,7.5676,7.5676,7.5676,7.5676,7.5676,7.5676,7.5676,7.5676,7.5676,7.5676,7.5676,7.5676,7.5676,7.5676,7.5676,7.5676,7.5676,7.5676,7.5676,7.5676,7.5676,7.5676,7.5676,7.5676,7.5676,7.5676,7.5676,7.5676,7.5676,7.5676,7.5676,7.5676,7.5676,7.5676,7.5676,7.5676,7.5676,7.5676,7.5676,7.5676,7.5676,7.5676,7.5676,7.5676,7.5676,7.5676,7.5676,7.5676,7.5676,7.5676,7.5676,7.5709,7.5676,7.5628,7.5604,7.5542,7.5566,7.559,7.5638,7.5542,7.5518,7.547,7.547,7.547,7.5518,7.5542,7.5614,7.559,7.5494,7.5446,7.5,7.4754,7.4614,7.4548,7.4339,7.4498,7.4498,7.4622,7.4697,7.4746,7.4647,7.4356,7.418,7.3953,7.3807,7.3628,7.3415,7.3233,7.3051,7.2946,7.2656,7.2476,7.2396,7.2289,7.1798,7.147,7.1337,7.142,7.1662,7.1879,7.1987,7.2127,7.5676,7.5676,7.5676,7.5676,7.5676,7.5676,7.5676,7.5676,7.5676,7.5676,7.5676,7.5676,7.5676,7.5676,7.5676,7.5676,7.5676,7.5676,7.5676,7.5676,7.5676,7.5676,7.5676,7.5676,7.5676,7.5676,7.5676,7.5676,7.5676,7.5676,7.5676,7.5676,7.5676,7.5676,7.5676,7.5676,7.5676,7.5676,7.5676,7.5676,7.5676,7.5676,7.5676,7.5676,7.5676,7.5676,7.5676,7.5676,7.5676,7.5676,7.5676,7.5676,7.5676,7.5676,7.5676,7.5676,7.5676,7.5676,7.5676,7.5676,7.5676,7.5676,7.5676,7.5676,7.5676,7.5676,7.5676,7.5676,7.5676,7.5676,7.5676,7.5652,7.5652,7.5676,7.5676,7.5676,7.5676,7.5676,7.5676,7.5686,7.5686,7.5662,7.5638,7.5566,7.5373,7.5179,7.5091,7.5051,7.5067,7.5091,7.5115,7.514,7.514,7.5091,7.4861,7.4713,7.4589,7.4439,7.4314,7.4138,7.3927,7.4003,7.3876,7.3595,7.3344,7.3214,7.3083,7.29,7.2662,7.2342,7.2369,7.255,7.2768,7.2979,7.3057,7.5676,7.5676,7.5676,7.5676,7.5676,7.5676,7.5676,7.5676,7.5676,7.5676,7.5676,7.5676,7.5676,7.5676,7.5676,7.5676,7.5676,7.5676,7.5676,7.5676,7.5676,7.5676,7.5676,7.5676,7.5676,7.5676,7.5676,7.5676,7.5676,7.5676,7.5676,7.5676,7.5676,7.5676,7.5676,7.5676,7.5676,7.5676,7.5676,7.5676,7.5676,7.5676,7.5676,7.5676,7.5676,7.5676,7.5676,7.5676,7.5676,7.5676,7.5676,7.5676,7.5676,7.5676,7.5676,7.5676,7.5676,7.5676,7.5676,7.5676,7.5676,7.5676,7.5676,7.5676,7.5676,7.5676,7.5676,7.5676,7.5676,7.5676,7.5676,7.5676,7.5676,7.5676,7.5676,7.5676,7.5676,7.5676,7.5676,7.5676,7.5676,7.5676,7.5652,7.5628,7.559,7.5446,7.5422,7.5359,7.5359,7.5359,7.5301,7.5301,7.5301,7.5252,7.5179,7.5058,7.4935,7.4886,7.4763,7.4688,7.4614,7.4688,7.4639,7.4339,7.4113,7.3986,7.3935,7.3859,7.3577,7.3214,7.3285,7.3441,7.3782,7.396,7.3909,7.5676,7.5676,7.5676,7.5676,7.5676,7.5676,7.5676,7.5676,7.5676,7.5676,7.5676,7.5676,7.5676,7.5676,7.5676,7.5676,7.5676,7.5676,7.5676,7.5676,7.5676,7.5676,7.5676,7.5676,7.5676,7.5676,7.5676,7.5676,7.5676,7.5676,7.5676,7.5676,7.5676,7.5676,7.5676,7.5676,7.5676,7.5676,7.5676,7.5676,7.5676,7.5676,7.5676,7.5676,7.5676,7.5676,7.5676,7.5676,7.5676,7.5676,7.5676,7.5676,7.5676,7.5676,7.5676,7.5676,7.5676,7.5676,7.5676,7.5676,7.5676,7.5676,7.5676,7.5676,7.5676,7.5676,7.5676,7.5676,7.5676,7.5676,7.5676,7.5676,7.5676,7.5676,7.5676,7.5676,7.5676,7.5676,7.5676,7.5676,7.5676,7.5676,7.5676,7.5676,7.5676,7.5628,7.5652,7.5662,7.559,7.5566,7.5494,7.5494,7.547,7.547,7.5422,7.5349,7.5277,7.5252,7.5204,7.5131,7.5082,7.5058,7.4984,7.4919,7.4763,7.4564,7.4713,7.4895,7.4489,7.413,7.4239,7.4389,7.4713,7.4796,7.4589,7.5676,7.5676,7.5676,7.5676,7.5676,7.5676,7.5676,7.5676,7.5676,7.5676,7.5676,7.5676,7.5676,7.5676,7.5676,7.5676,7.5676,7.5676,7.5676,7.5676,7.5676,7.5676,7.5676,7.5676,7.5676,7.5676,7.5676,7.5676,7.5676,7.5676,7.5676,7.5676,7.5676,7.5676,7.5676,7.5676,7.5676,7.5676,7.5676,7.5676,7.5676,7.5676,7.5676,7.5676,7.5676,7.5676,7.5676,7.5676,7.5676,7.5676,7.5676,7.5676,7.5676,7.5676,7.5676,7.5676,7.5676,7.5676,7.5676,7.5676,7.5676,7.5676,7.5676,7.5676,7.5676,7.5676,7.5676,7.5676,7.5676,7.5676,7.5676,7.5676,7.5676,7.5676,7.5676,7.5676,7.5676,7.5676,7.5676,7.5676,7.5676,7.5676,7.5676,7.5676,7.5676,7.5676,7.5676,7.5676,7.5662,7.5662,7.5638,7.5638,7.5638,7.5628,7.5628,7.5508,7.5484,7.547,7.5518,7.5518,7.547,7.5373,7.5301,7.5204,7.5179,7.5155,7.5155,7.5155,7.5228,7.5131,7.4984,7.4886,7.4993,7.5018,7.4895,7.5676,7.5676,7.5676,7.5676,7.5676,7.5676,7.5676,7.5676,7.5676,7.5676,7.5676,7.5676,7.5676,7.5676,7.5676,7.5676,7.5676,7.5676,7.5676,7.5676,7.5676,7.5676,7.5676,7.5676,7.5676,7.5676,7.5676,7.5676,7.5676,7.5676,7.5676,7.5676,7.5676,7.5676,7.5676,7.5676,7.5676,7.5676,7.5676,7.5676,7.5676,7.5676,7.5676,7.5676,7.5676,7.5676,7.5676,7.5676,7.5676,7.5676,7.5676,7.5676,7.5676,7.5676,7.5676,7.5676,7.5676,7.5676,7.5676,7.5676,7.5676,7.5676,7.5676,7.5676,7.5676,7.5676,7.5676,7.5676,7.5676,7.5676,7.5676,7.5676,7.5676,7.5676,7.5676,7.5676,7.5676,7.5676,7.5676,7.5676,7.5676,7.5676,7.5676,7.5676,7.5676,7.5676,7.5676,7.5676,7.5676,7.5676,7.5676,7.5676,7.5676,7.5676,7.5676,7.5652,7.5628,7.5676,7.5676,7.5676,7.5652,7.5566,7.5518,7.5494,7.5446,7.5398,7.5349,7.5349,7.5422,7.5446,7.5398,7.5301,7.5262,7.5237,7.5189,7.5676,7.5676,7.5676,7.5676,7.5676,7.5676,7.5676,7.5676,7.5676,7.5676,7.5676,7.5676,7.5676,7.5676,7.5676,7.5676,7.5676,7.5676,7.5676,7.5676,7.5676,7.5676,7.5676,7.5676,7.5676,7.5676,7.5676,7.5676,7.5676,7.5676,7.5676,7.5676,7.5676,7.5676,7.5676,7.5676,7.5676,7.5676,7.5676,7.5676,7.5676,7.5676,7.5676,7.5676,7.5676,7.5676,7.5676,7.5676,7.5676,7.5676,7.5676,7.5676,7.5676,7.5676,7.5676,7.5676,7.5676,7.5676,7.5676,7.5676,7.5676,7.5676,7.5676,7.5676,7.5676,7.5676,7.5676,7.5676,7.5676,7.5676,7.5676,7.5676,7.5676,7.5676,7.5676,7.5676,7.5676,7.5676,7.5676,7.5676,7.5676,7.5676,7.5676,7.5676,7.5676,7.5676,7.5676,7.5676,7.5676,7.5676,7.5676,7.5676,7.5676,7.5676,7.5676,7.5676,7.5676,7.5676,7.5676,7.5676,7.5676,7.5676,7.5604,7.558,7.5628,7.5604,7.5542,7.5542,7.5604,7.5638,7.559,7.5566,7.547,7.5518,7.5518,7.5676,7.5676,7.5676,7.5676,7.5676,7.5676,7.5676,7.5676,7.5676,7.5676,7.5676,7.5676,7.5676,7.5676,7.5676,7.5676,7.5676,7.5676,7.5676,7.5676,7.5676,7.5676,7.5676,7.5676,7.5676,7.5676,7.5676,7.5676,7.5676,7.5676,7.5676,7.5676,7.5676,7.5676,7.5676,7.5676,7.5676,7.5676,7.5676,7.5676,7.5676,7.5676,7.5676,7.5676,7.5676,7.5676,7.5676,7.5676,7.5676,7.5676,7.5676,7.5676,7.5676,7.5676,7.5676,7.5676,7.5676,7.5676,7.5676,7.5676,7.5676,7.5676,7.5676,7.5676,7.5676,7.5676,7.5676,7.5676,7.5676,7.5676,7.5676,7.5676,7.5676,7.5676,7.5676,7.5676,7.5676,7.5676,7.5676,7.5676,7.5676,7.5676,7.5676,7.5676,7.5676,7.5676,7.5676,7.5676,7.5676,7.5676,7.5676,7.5676,7.5676,7.5676,7.5676,7.5676,7.5676,7.5676,7.5676,7.5676,7.5676,7.5676,7.5676,7.5676,7.5676,7.5676,7.5652,7.5676,7.5676,7.5676,7.5662,7.5652,7.5676,7.5676,7.5676,7.5676,7.5676,7.5676,7.5676,7.5676,7.5676,7.5676,7.5676,7.5676,7.5676,7.5676,7.5676,7.5676,7.5676,7.5676,7.5676,7.5676,7.5676,7.5676,7.5676,7.5676,7.5676,7.5676,7.5676,7.5676,7.5676,7.5676,7.5676,7.5676,7.5676,7.5676,7.5676,7.5676,7.5676,7.5676,7.5676,7.5676,7.5676,7.5676,7.5676,7.5676,7.5676,7.5676,7.5676,7.5676,7.5676,7.5676,7.5676,7.5676,7.5676,7.5676,7.5676,7.5676,7.5676,7.5676,7.5676,7.5676,7.5676,7.5676,7.5676,7.5676,7.5676,7.5676,7.5676,7.5676,7.5676,7.5676,7.5676,7.5676,7.5676,7.5676,7.5676,7.5676,7.5676,7.5676,7.5676,7.5676,7.5676,7.5676,7.5676,7.5676,7.5676,7.5676,7.5676,7.5676,7.5676,7.5676,7.5676,7.5676,7.5676,7.5676,7.5676,7.5676,7.5676,7.5676,7.5676,7.5676,7.5676,7.5676,7.5676,7.5676,7.5676,7.5676,7.5676,7.5676,7.5676,7.5676,7.5676,7.5676,7.5676,7.5676,7.5676,7.5676,7.5676,7.5676,7.5676,7.5676,7.5676,7.5676,7.5676,7.5676,7.5676,7.5676,7.5676,7.5676,7.5676,7.5676,7.5676,7.5676,7.5676,7.5676,7.5676,7.5676,7.5676,7.5676,7.5676,7.5676,7.5676,7.5676,7.5676,7.5676,7.5676,7.5676,7.5676,7.5676,7.5676,7.5676,7.5676,7.5676,7.5676,7.5676,7.5676,7.5676,7.5676,7.5676,7.5676,7.5676,7.5676,7.5676,7.5676,7.5676,7.5676,7.5676,7.5676,7.5676,7.5676,7.5676,7.5676,7.5676,7.5676,7.5676,7.5676,7.5676,7.5676,7.5676,7.5676,7.5676,7.5676,7.5676,7.5676,7.5676,7.5676,7.5676,7.5676,7.5676,7.5676,7.5676,7.5676,7.5676,7.5676,7.5676,7.5676,7.5676,7.5676,7.5676,7.5676,7.5676,7.5676,7.5676,7.5676,7.5676,7.5676,7.5676,7.5676,7.5676,7.5676,7.5676,7.5676,7.5676,7.5676,7.5676,7.5676,7.5676,7.5676,7.5676,7.5676,7.5676,7.5676,7.5676,7.5676,7.5676,7.5676,7.5676,7.5676,7.5676,7.5676,7.5676,7.5676,7.5676,7.5676,7.5676,7.5676,7.5676,7.5676,7.5676,7.5676,7.5676,7.5676,7.5676,7.5676,7.5676,7.5676,7.5676,7.5676,7.5676,7.5676,7.5676,7.5676,7.5676,7.5676,7.5676,7.5676,7.5676,7.5676,7.5676,7.5676,7.5676,7.5676,7.5676,7.5676,7.5676,7.5676,7.5676,7.5676,7.5676,7.5676,7.5676,7.5676,7.5676,7.5676,7.5676,7.5676,7.5676,7.5676,7.5676,7.5676,7.5676,7.5676,7.5676,7.5676,7.5676,7.5676,7.5676,7.5676,7.5676,7.5676,7.5676,7.5676,7.5676,7.5676,7.5676,7.5676,7.5676,7.5676,7.5676,7.5676,7.5676,7.5676,7.5676,7.5676,7.5676,7.5676,7.5676,7.5676,7.5676,7.5676,7.5676,7.5676,7.5676,7.5676,7.5676,7.5676,7.5676,7.5676,7.5676,7.5676,7.5676,7.5676,7.5676,7.5676,7.5676,7.5676,7.5676,7.5676,7.5676,7.5676,7.5676,7.5676,7.5676,7.5676,7.5676,7.5676,7.5676,7.5676,7.5676,7.5676,7.5676,7.5676,7.5676,7.5676,7.5676,7.5676,7.5676,7.5676,7.5676,7.5676,7.5676,7.5676,7.5676,7.5676,7.5676,7.5676,7.5676,7.5676,7.5676,7.5676,7.5676,7.5676,7.5676,7.5676,7.5676,7.5676,7.5676,7.5676,7.5676,7.5676,7.5676,7.5676,7.5676,7.5676,7.5676,7.5676,7.5676,7.5676,7.5676,7.5676,7.5676,7.5676,7.5676,7.5676,7.5676,7.5676,7.5676,7.5676,7.5676,7.5676,7.5676,7.5676,7.5676,7.5676,7.5676,7.5676,7.5676,7.5676,7.5676,7.5676,7.5676,7.5676,7.5676,7.5676,7.5676,7.5676,7.5676,7.5676,7.5676,7.5676,7.5676,7.5676,7.5676,7.5676,7.5676,7.5676,7.5676,7.5676,7.5676,7.5676,7.5676,7.5676,7.5676,7.5676,7.5676,7.5676,7.5676,7.5676,7.5676,7.5676,7.5676,7.5676,7.5676,7.5676,7.5676,7.5676,7.5676,7.5676,7.5676,7.5676,7.5676,7.5676,7.5676,7.5676,7.5676,7.5676,7.5676,7.5676,7.5676,7.5676,7.5676,7.5676,7.5676,7.5676,7.5676,7.5676,7.5676,7.5676,7.5676,7.5676,7.5676,7.5676,7.5676,7.5676,7.5676,7.5676,7.5676,7.5676,7.5676,7.5676,7.5676,7.5676,7.5676,7.5676,7.5676,7.5676,7.5676,7.5676,7.5676,7.5676,7.5676,7.5676,7.5676,7.5676,7.5676,7.5676,7.5676,7.5676,7.5676,7.5676,7.5676,7.5676,7.5676,7.5676,7.5676,7.5676,7.5676,7.5676,7.5676,7.5676,7.5676,7.5676,7.5676,7.5676,7.5676,7.5676,7.5676,7.5676,7.5676,7.5676,7.5676,7.5676,7.5676,7.5676,7.5676,7.5676,7.5676,7.5676,7.5676,7.5676,7.5676,7.5676,7.5676,7.5676,7.5676,7.5676,7.5676,7.5676,7.5676,7.5676,7.5676,7.5676,7.5676,7.5676,7.5676,7.5676,7.5676,7.5676,7.5676,7.5676,7.5676,7.5676,7.5676,7.5676,7.5676,7.5676,7.5676,7.5676,7.5676,7.5676,7.5676,7.5676,7.5676,7.5676,7.5676,7.5676,7.5676,7.5676,7.5676,7.5676,7.5676,7.5676,7.5676,7.5676,7.5676,7.5676,7.5676,7.5676,7.5676,7.5676,7.5676,7.5676,7.5676,7.5676,7.5676,7.5676,7.5676,7.5676,7.5676,7.5676,7.5676,7.5676,7.5676,7.5676,7.5676,7.5676,7.5676,7.5676,7.5676,7.5676,7.5676,7.5676,7.5676,7.5676,7.5676,7.5676,7.5676,7.5676,7.5676,7.5676,7.5676,7.5676,7.5676,7.5676,7.5676,7.5676,7.5676,7.5676,7.5676,7.5676,7.5676,7.5676,7.5676,7.5676,7.5676,7.5676,7.5676,7.5676,7.5676,7.5676,7.5676,7.5676,7.5676,7.5676,7.5676,7.5676,7.5676,7.5676,7.5676,7.5676,7.5676,7.5676,7.5676,7.5676,7.5676,7.5676,7.5676,7.5676,7.5676,7.5676,7.5676,7.5676,7.5676,7.5676,7.5676,7.5676,7.5676,7.5676,7.5676,7.5676,7.5676,7.5676,7.5676,7.5676,7.5676,7.5676,7.5676,7.5676,7.5676,7.5676,7.5676,7.5676,7.5676,7.5676,7.5676,7.5676,7.5676,7.5676,7.5676,7.5676,7.5676,7.5676,7.5676,7.5676,7.5676,7.5676,7.5676,7.5676,7.5676,7.5676,7.5676,7.5676,7.5676,7.5676,7.5676,7.5676,7.5676,7.5676,7.5676,7.5676,7.5676,7.5676,7.5676,7.5676]}]]